GFSSGP_sfc_wetblb_000.txt.gz
Wetbulb
55.54 52.86 53.39 50.77 43.48 41.76 37.62 42.63 52.73 51.26 52.32 57.68 59.51 56.61 54.96 56.00 54.30 51.44 66.48 68.28 69.86 69.91 70.79 71.02 71.56 72.59 72.54 72.61 72.40 72.19 72.26 71.83 71.06 70.71 70.31 70.00 69.39 68.64 68.66 68.79 69.33 68.86 68.51 68.07 67.78 67.68 67.47 67.50 67.56
53.90 54.89 52.07 47.02 40.52 36.79 39.53 48.82 50.34 53.56 55.72 58.03 58.30 58.38 57.42 56.04 62.64 63.70 64.75 69.02 70.08 70.15 70.34 70.59 71.68 72.03 72.42 72.22 72.21 72.06 71.98 71.66 71.11 70.64 70.28 69.70 68.76 68.39 68.36 67.96 68.51 67.36 67.00 66.94 67.02 67.11 67.01 66.71 66.81
55.53 55.12 46.42 43.38 39.26 35.82 41.25 48.82 50.96 53.97 56.44 56.86 55.24 57.28 56.98 56.44 63.03 63.68 67.39 69.68 70.40 69.98 70.54 71.01 71.06 71.57 71.97 71.99 72.04 71.92 71.94 71.66 71.33 70.38 69.31 68.92 68.34 68.07 67.32 66.83 66.34 65.83 65.82 65.48 65.43 65.19 65.34 65.57 65.72
52.32 49.09 45.95 40.37 36.69 41.15 47.85 49.25 54.12 55.70 57.51 58.26 56.66 53.42 57.19 61.22 62.20 67.56 69.90 70.59 69.96 70.59 70.09 69.95 70.36 71.29 71.76 71.88 71.62 71.40 71.01 70.72 69.88 69.37 68.98 68.38 67.73 67.08 66.32 65.77 65.04 64.66 64.35 64.04 64.04 63.52 63.16 63.79 64.40
52.14 46.21 40.08 37.22 39.20 48.49 50.92 52.70 53.52 52.53 55.62 55.92 56.54 53.01 54.77 62.78 68.63 69.40 69.50 69.89 68.99 69.65 71.19 71.06 69.74 70.95 71.36 71.47 71.19 70.70 70.24 69.87 69.76 69.63 68.61 67.56 67.04 66.24 65.67 64.96 64.17 63.54 63.23 63.09 62.92 62.47 62.32 62.60 63.03
45.52 44.60 38.24 35.24 43.56 49.32 49.51 52.95 53.85 55.69 55.65 55.29 54.85 54.66 54.47 61.12 67.14 68.13 69.48 69.20 69.68 68.91 70.38 71.34 71.16 70.87 70.73 70.61 69.95 69.28 69.21 69.27 69.18 69.03 68.26 67.19 66.60 65.99 65.33 64.46 63.56 63.05 62.44 62.21 62.07 62.08 61.99 61.99 62.28
44.03 41.76 38.85 40.06 46.46 46.70 48.00 48.99 49.99 52.65 54.29 54.83 56.72 51.42 54.22 58.48 64.00 67.30 68.13 68.59 69.24 69.51 69.48 69.13 69.40 69.51 68.70 67.94 67.82 68.02 68.61 68.45 68.31 68.22 67.76 67.15 66.54 66.36 65.50 64.47 63.62 63.05 62.37 62.04 61.93 62.13 62.28 61.93 61.92
45.20 42.76 39.71 42.01 45.27 43.12 46.77 46.19 48.12 50.30 49.41 58.12 57.97 50.93 51.20 55.31 61.36 64.21 66.36 66.50 66.41 66.70 66.90 65.41 66.06 66.27 66.04 66.25 66.95 67.11 67.04 66.92 67.10 67.34 66.67 66.07 65.86 65.95 65.95 65.36 64.46 64.32 63.59 62.98 62.99 63.25 62.70 62.09 62.28
46.80 39.53 37.42 40.15 43.10 43.98 45.62 46.49 45.62 49.20 52.09 52.88 53.53 55.69 57.18 56.34 56.65 58.36 58.53 59.91 61.87 63.90 63.72 63.52 63.83 64.01 64.22 64.47 66.01 66.92 66.98 66.31 65.96 66.20 65.94 64.70 63.82 62.83 63.23 64.22 63.71 64.97 64.07 63.87 64.19 63.92 63.36 62.38 61.90
43.52 39.22 40.23 44.70 46.06 43.36 43.34 44.72 45.58 47.78 52.00 52.59 54.44 57.35 56.70 55.41 56.43 56.40 55.39 58.19 59.51 60.64 61.96 62.34 62.42 62.59 63.17 65.24 64.51 63.94 64.92 64.31 64.07 64.16 63.76 63.53 63.06 62.64 62.87 63.42 64.63 64.60 64.29 64.38 64.41 64.28 63.84 62.72 57.88
41.32 39.50 42.41 43.50 45.67 44.61 42.96 43.74 45.16 46.27 46.73 54.04 54.04 54.65 55.10 54.58 53.83 55.01 54.74 57.14 59.42 60.81 62.59 62.07 63.21 62.79 61.31 62.25 62.24 62.31 63.07 63.07 63.46 63.75 63.17 62.53 63.25 60.80 62.27 60.54 61.24 60.89 62.61 61.34 61.96 61.00 60.24 59.02 57.49
39.60 42.16 43.37 43.20 43.84 43.07 42.97 43.64 43.44 43.78 46.74 56.85 57.61 57.25 56.41 55.09 54.86 54.32 53.70 54.97 57.07 60.40 60.90 61.30 61.78 61.99 59.34 60.87 61.65 61.70 61.94 62.65 62.87 62.73 61.63 60.03 59.71 57.26 57.00 58.06 59.02 58.55 58.24 58.98 59.02 58.96 58.56 57.04 57.37
41.27 42.03 43.50 44.34 45.85 43.41 44.21 42.70 43.32 43.10 47.67 58.05 58.23 57.91 56.85 56.62 56.03 56.45 55.77 55.64 56.89 60.27 61.24 60.85 60.33 59.95 59.64 58.92 59.76 59.71 60.23 61.98 62.04 61.74 61.00 58.81 58.48 56.31 56.34 55.65 55.09 54.36 54.00 54.65 54.35 55.79 55.06 53.47 54.43
43.87 43.23 42.87 43.54 44.30 44.64 43.50 42.80 44.79 44.01 47.15 56.45 57.44 56.50 57.24 57.69 57.30 56.24 54.63 54.26 57.21 61.57 60.47 61.46 61.98 61.82 60.70 59.94 59.72 59.24 58.96 58.15 59.65 59.69 59.12 58.67 57.37 56.46 56.12 54.93 54.96 54.84 54.88 54.61 53.50 52.98 52.77 53.11 53.45
44.34 40.62 41.68 41.15 43.39 42.85 45.47 41.30 41.45 45.87 47.40 54.84 56.55 57.03 57.02 57.47 57.55 57.14 56.39 55.41 56.86 61.96 61.91 62.65 62.64 61.45 60.51 59.81 60.00 59.05 55.39 56.10 56.06 55.51 55.43 55.69 56.12 55.71 55.04 53.45 52.95 53.94 54.86 54.19 53.71 53.24 53.11 52.92 53.32
42.60 41.08 37.27 42.48 44.61 45.30 43.28 37.95 43.59 44.23 44.98 46.77 51.26 54.55 54.89 55.52 56.72 56.43 56.14 55.45 58.16 61.39 62.03 62.71 62.41 62.45 59.28 58.52 57.22 56.25 56.05 54.83 53.78 54.50 54.01 54.74 55.02 54.34 52.90 52.07 51.66 52.73 52.81 52.33 51.82 52.21 51.90 50.98 50.62
39.31 34.78 37.51 40.58 45.12 43.99 41.89 38.82 43.40 44.89 44.94 43.79 43.44 46.19 49.55 51.76 53.50 54.01 53.58 53.87 60.64 61.48 61.86 61.38 61.31 60.59 59.20 57.13 56.27 54.55 54.17 53.66 53.19 52.55 51.85 53.66 54.29 54.07 51.89 50.77 50.99 51.90 50.78 49.96 49.90 49.64 49.89 48.69 48.06
35.83 37.15 35.62 38.77 41.62 42.95 40.25 39.27 43.44 44.71 47.23 47.73 48.49 50.06 51.47 51.35 51.38 53.74 54.66 56.45 55.80 58.32 58.09 58.21 59.45 59.35 56.22 51.79 52.44 51.70 52.03 52.80 51.40 50.64 51.88 52.23 51.37 51.25 50.17 50.11 50.13 50.20 48.89 47.59 47.36 46.63 46.88 46.89 46.59
42.82 39.80 38.32 38.87 43.37 42.12 41.32 41.03 42.43 46.47 48.79 48.12 48.84 50.39 50.53 49.98 51.36 52.95 53.23 53.28 52.98 52.86 52.69 53.24 53.94 54.84 51.87 50.44 50.22 51.32 49.10 49.77 49.46 49.42 50.67 51.03 51.29 51.01 49.65 48.73 48.95 48.43 47.01 46.10 45.95 45.81 45.41 45.51 45.63
43.26 41.36 39.66 42.09 44.96 42.06 41.04 39.72 43.44 46.66 46.82 48.20 48.78 49.14 49.24 49.61 50.15 51.11 51.08 51.38 50.80 50.63 51.63 51.85 51.04 50.57 50.87 51.67 50.98 50.75 48.90 48.65 49.14 51.84 51.49 50.53 50.07 49.49 49.14 47.05 46.10 46.62 45.48 44.70 44.34 44.82 43.90 44.30 44.63
41.94 40.45 39.55 40.26 41.78 41.53 42.72 38.89 42.07 44.70 46.01 46.84 46.89 48.26 49.59 49.71 49.12 50.01 50.25 48.63 47.87 47.94 48.94 49.26 48.73 48.90 49.89 50.70 49.02 48.97 49.07 49.21 48.88 48.09 47.51 48.47 47.71 47.24 46.31 45.58 45.52 45.03 44.76 43.64 43.45 43.86 43.34 42.22 43.11
39.44 44.42 43.42 41.59 38.25 33.56 39.02 30.82 38.53 41.80 43.51 45.67 46.81 46.97 48.51 49.08 50.08 49.84 48.71 47.94 48.08 47.25 47.51 48.14 48.81 48.64 48.84 48.70 47.65 47.89 46.72 45.67 46.66 46.09 45.01 44.19 45.30 45.66 45.57 44.85 44.60 44.36 44.10 42.69 43.01 44.99 42.88 42.40 40.88
42.60 45.05 42.60 41.59 37.61 36.06 37.32 33.89 36.94 42.37 40.77 42.16 43.30 45.95 46.49 47.69 48.18 48.19 48.38 48.78 48.14 47.75 47.56 47.51 48.51 48.54 48.24 48.06 47.22 46.78 45.05 44.23 44.40 44.08 42.36 42.47 43.34 44.30 43.95 43.71 43.36 43.27 43.04 42.15 41.89 42.42 41.64 41.71 40.72
45.80 43.84 42.72 41.19 38.18 29.88 37.88 35.86 35.06 38.03 41.35 43.86 44.51 45.32 46.44 46.57 47.23 48.18 48.95 49.20 48.25 47.46 46.89 46.39 47.08 47.91 47.86 46.89 46.58 46.60 43.85 42.98 42.24 40.89 40.27 40.89 42.00 42.43 42.69 43.07 41.49 40.59 40.69 40.27 39.94 39.18 39.49 38.78 38.52
43.22 39.43 32.31 30.36 27.61 27.60 40.56 36.60 37.05 42.81 45.01 45.40 44.80 44.99 45.69 46.24 46.85 47.55 47.87 47.56 47.36 47.23 47.32 47.24 47.72 48.10 47.73 46.54 44.93 43.75 42.53 41.64 40.32 40.21 41.25 41.13 41.99 41.89 41.40 41.04 40.43 39.92 39.91 39.39 38.79 38.06 37.41 38.05 37.47
40.59 38.81 30.64 26.60 24.24 31.58 38.19 32.65 35.90 43.52 46.96 47.61 47.57 46.29 46.81 46.95 46.84 46.78 46.74 46.42 46.48 47.15 47.03 46.61 45.53 43.68 44.54 43.80 42.85 42.83 43.29 44.06 43.75 43.18 40.02 41.82 41.13 40.34 40.72 40.37 39.93 39.48 39.37 38.48 37.69 36.77 36.38 36.40 35.57
41.19 34.56 39.84 33.10 30.50 28.07 32.34 36.83 41.24 44.54 44.44 45.95 46.53 47.32 44.83 44.44 44.61 45.69 45.63 46.20 46.33 46.29 45.55 46.32 45.53 43.73 43.09 43.38 43.27 44.44 45.36 44.99 44.51 44.44 41.74 42.19 40.16 41.49 39.59 39.25 38.09 38.02 37.61 37.53 37.23 35.35 34.82 34.32 33.94
40.94 42.24 34.74 31.22 24.67 22.74 29.64 32.72 34.59 39.27 41.10 42.34 41.87 42.06 43.64 44.38 44.60 44.95 45.09 45.01 45.11 45.54 46.71 47.15 45.82 43.35 42.39 42.81 44.38 45.73 45.39 44.52 42.84 40.85 39.73 39.01 38.94 39.63 38.78 37.49 36.79 36.89 36.67 36.17 36.15 34.92 34.37 33.85 33.49
40.10 38.37 38.13 36.42 30.21 24.33 21.60 28.61 39.25 41.24 41.67 41.02 41.92 42.90 42.93 43.19 43.16 43.80 43.85 44.16 43.51 43.54 43.33 43.25 42.98 43.71 42.68 42.45 42.72 42.04 41.79 41.35 40.58 39.48 39.42 38.63 38.62 39.58 39.68 38.45 36.60 35.39 34.70 34.04 33.00 33.54 34.18 33.81 32.24
41.05 39.48 37.62 27.16 30.68 27.50 24.99 28.90 41.19 40.99 42.53 43.88 43.66 43.81 44.38 43.78 43.96 43.52 42.82 42.57 41.81 40.97 40.83 40.02 41.26 41.80 41.71 42.03 42.36 41.92 41.61 40.71 39.34 38.45 37.55 37.86 37.58 37.67 37.42 37.71 36.31 34.15 33.01 32.29 31.41 31.86 31.36 29.72 28.74

GFSSGP_sfc_wetblb_003.txt.gz
Wetbulb
55.33 52.04 52.28 50.32 42.68 39.58 36.76 41.20 50.99 49.41 52.64 57.65 58.49 56.43 55.71 57.44 54.89 51.27 65.03 67.52 69.69 69.59 70.61 71.13 71.61 72.05 71.98 72.11 72.01 71.78 71.68 70.76 70.41 70.02 69.82 69.36 68.63 68.44 68.55 68.26 67.95 67.22 66.71 66.57 66.57 66.63 66.45 66.34 66.56
52.13 52.88 50.58 45.55 38.69 35.64 38.64 46.76 50.67 53.90 56.29 57.45 58.16 58.53 58.05 57.59 62.96 64.15 64.85 69.31 69.86 69.71 70.06 71.05 71.73 71.90 72.00 71.74 71.75 71.75 71.41 70.80 70.33 70.03 69.66 68.82 68.44 68.05 67.66 67.32 67.15 66.48 66.09 65.93 65.79 65.76 65.45 65.45 65.73
52.39 52.86 45.65 42.32 37.15 34.04 38.09 48.26 52.22 55.52 57.39 56.39 55.14 56.43 56.81 59.64 63.49 63.81 67.27 69.68 69.96 69.39 69.93 71.17 71.12 71.52 71.95 71.88 71.67 71.45 71.40 71.21 70.44 69.92 69.20 68.43 67.95 67.08 66.34 65.97 65.57 65.29 65.07 64.96 64.84 64.58 64.01 64.04 64.34
49.21 46.98 44.31 39.81 37.81 39.73 43.80 47.63 52.37 53.66 56.42 57.80 56.25 53.37 57.09 62.28 63.60 65.93 68.75 69.89 69.23 69.04 69.66 69.91 70.25 71.10 71.59 71.80 71.56 71.31 71.13 70.22 69.70 69.46 68.49 67.92 67.23 66.38 65.52 65.13 64.56 64.18 64.20 63.86 63.49 62.90 62.63 62.69 63.16
47.90 43.09 39.36 37.24 38.75 42.60 45.32 51.13 53.91 53.59 54.24 55.14 55.82 52.79 55.09 64.85 67.20 68.41 69.28 69.21 68.89 69.26 70.19 70.34 69.60 70.68 71.18 71.19 71.08 70.91 70.03 69.22 69.21 68.93 67.96 67.22 66.49 65.74 64.88 64.14 63.49 63.14 62.71 62.59 62.38 62.33 62.13 62.12 62.46
42.84 41.42 37.02 36.07 40.75 46.54 47.01 51.88 55.27 54.19 54.65 55.67 55.99 54.08 53.59 65.75 67.07 68.32 68.76 68.24 69.25 69.55 70.89 70.54 70.65 70.31 70.24 70.42 69.95 69.50 69.30 69.29 69.20 68.76 67.75 66.79 66.09 65.53 64.70 63.69 62.94 62.73 62.33 62.07 62.26 62.57 62.36 62.33 62.21
39.58 38.95 36.99 38.73 43.80 44.44 46.79 50.44 54.27 53.49 53.75 53.78 56.13 50.47 54.50 62.93 65.59 68.40 68.17 68.13 68.43 69.01 69.47 70.20 70.27 70.39 69.19 68.18 67.91 67.89 68.13 68.33 68.35 68.06 67.62 67.11 66.36 65.89 64.84 63.55 62.92 62.61 62.23 62.47 62.84 63.18 62.74 62.46 62.35
42.92 40.71 37.29 41.93 42.27 42.68 45.83 47.69 50.77 54.99 52.26 57.33 56.02 49.76 53.01 57.54 65.30 67.48 67.46 67.21 67.90 68.24 68.14 67.53 66.61 66.53 65.85 65.92 66.99 67.15 67.26 67.28 67.46 67.43 66.83 65.80 65.45 65.77 65.70 65.30 64.05 63.63 63.42 63.49 63.63 63.81 63.49 63.11 62.80
43.53 38.02 35.38 39.18 40.98 41.40 44.48 45.96 47.18 52.23 54.77 53.70 54.07 53.63 60.46 61.30 64.01 63.95 63.66 64.18 64.07 64.93 63.85 63.79 64.31 64.20 63.96 63.94 65.83 66.77 66.98 66.54 66.45 66.23 65.91 64.25 62.65 61.85 62.20 64.08 64.18 64.81 64.27 64.04 64.23 64.12 63.91 62.97 62.30
41.79 36.02 39.14 43.71 44.14 41.79 43.83 50.22 50.33 51.72 51.76 52.19 52.19 54.29 59.32 59.47 61.69 60.73 60.59 60.76 61.07 61.33 62.11 62.46 62.44 62.52 63.06 65.37 63.78 63.10 64.14 63.56 63.33 63.52 63.02 62.73 62.11 61.92 63.08 63.11 64.26 64.85 64.45 64.52 64.65 64.63 64.15 63.55 58.57
40.13 38.57 41.69 42.55 45.62 46.04 43.91 44.37 45.76 50.66 48.69 52.10 51.34 52.50 56.43 58.09 58.41 58.41 58.06 59.53 59.77 61.13 61.96 61.58 61.48 61.83 61.90 62.21 62.35 61.94 62.35 62.21 62.42 62.72 62.16 62.08 62.58 61.70 61.23 60.40 59.71 59.89 62.40 60.50 61.43 60.64 59.92 58.88 57.99
38.38 42.01 41.82 43.00 44.12 42.84 42.60 43.19 45.80 45.02 52.34 55.54 55.30 54.42 54.90 55.37 56.10 56.90 56.86 57.81 57.63 59.94 61.18 61.59 61.05 61.00 60.35 60.80 61.13 60.86 61.65 61.84 62.09 62.76 62.38 60.37 59.48 58.05 57.45 57.80 57.45 56.18 56.05 55.49 57.75 57.90 57.81 57.21 57.05
39.50 40.13 41.40 43.16 43.62 42.01 42.98 41.58 43.64 42.15 50.60 56.40 55.91 54.46 54.46 55.01 54.87 56.27 57.38 57.46 58.47 60.14 60.70 61.12 61.52 60.55 59.67 59.83 60.09 60.22 60.79 62.27 62.42 61.94 61.33 59.55 58.18 55.38 55.10 54.49 54.26 53.86 53.77 53.52 52.96 53.11 53.36 52.33 52.38
42.51 40.86 40.59 42.10 43.33 42.19 41.81 41.46 41.65 42.61 53.67 54.50 54.60 53.62 53.96 54.23 54.25 52.98 52.64 53.60 57.82 60.63 60.29 59.58 61.22 60.01 58.55 57.44 58.99 59.10 59.56 60.77 61.45 60.83 59.19 57.67 56.44 55.19 55.21 54.14 53.65 53.09 53.67 53.57 53.12 52.43 51.97 51.93 52.24
42.59 39.56 40.14 40.02 41.05 40.90 43.42 39.20 39.33 43.58 54.06 54.03 54.28 54.82 54.48 54.77 54.82 54.50 53.65 52.69 57.17 59.55 60.01 59.77 60.14 60.19 58.42 58.11 58.14 57.47 58.11 57.84 57.91 56.00 55.67 55.45 55.66 54.66 53.34 51.85 51.07 51.50 52.02 51.24 50.71 50.65 50.54 49.67 50.23
40.63 38.96 35.93 40.65 42.50 42.26 41.14 36.52 41.22 44.08 52.68 52.34 52.69 52.28 53.49 52.78 52.32 52.30 53.75 53.13 53.96 58.01 59.60 61.56 63.29 60.93 60.38 59.34 58.23 56.65 55.33 53.25 53.80 53.68 53.70 53.96 53.79 52.88 51.26 49.53 49.24 49.65 50.37 49.81 48.67 48.97 47.31 47.12 47.00
37.13 33.30 35.70 38.83 43.24 41.49 40.29 37.22 42.04 41.89 48.17 44.65 47.27 48.42 49.85 50.26 50.98 52.82 54.31 54.09 56.07 58.04 60.78 61.40 62.76 62.73 61.22 58.16 55.93 54.61 52.87 51.33 50.84 50.73 51.29 50.99 50.81 50.69 48.88 48.43 48.80 49.43 48.59 47.05 46.81 46.29 46.15 45.59 45.31
33.85 35.09 33.51 37.12 39.74 41.01 38.14 38.24 41.75 45.11 46.00 45.85 46.04 46.67 47.58 48.74 49.90 51.75 53.38 54.48 54.60 54.64 56.93 58.19 57.58 58.49 55.32 53.37 52.37 51.22 51.97 51.47 51.38 49.88 49.60 49.81 49.46 49.74 48.87 48.18 47.92 47.62 46.10 45.17 44.50 43.83 44.82 44.71 44.54
39.54 37.08 36.60 36.51 41.19 40.53 38.78 39.74 42.41 44.95 46.92 46.59 46.28 46.14 46.90 47.50 48.79 50.46 50.78 51.30 51.41 51.79 52.82 54.31 53.81 53.30 53.21 52.23 51.51 50.54 49.54 49.57 49.56 49.05 49.55 48.70 48.06 48.34 46.60 45.94 45.85 45.44 44.24 43.27 43.91 43.77 43.18 42.81 43.52
41.31 38.33 36.87 40.21 42.74 41.41 40.71 38.90 41.87 44.11 44.47 46.44 46.33 45.84 46.27 47.24 48.28 49.41 49.55 49.57 49.15 49.93 50.99 51.36 51.42 50.24 50.51 50.71 49.80 51.08 50.00 49.08 50.68 49.88 48.44 47.29 46.52 45.53 46.03 44.84 44.43 43.83 43.17 42.62 42.27 42.02 41.82 42.11 42.82
40.62 37.87 37.75 38.33 41.08 41.86 41.56 38.13 39.09 43.25 44.41 46.13 46.31 46.54 46.79 47.08 47.51 48.81 48.29 46.00 46.16 46.96 47.56 48.07 48.11 49.06 49.43 51.41 50.52 48.13 47.45 47.37 45.87 44.67 44.46 43.93 45.76 44.84 44.30 44.09 43.71 43.02 42.28 41.31 41.37 41.82 41.22 40.28 41.52
37.95 42.55 41.42 39.63 37.86 33.55 38.07 29.27 36.75 39.87 41.72 43.99 44.94 45.81 46.74 48.24 47.61 47.21 46.25 45.36 45.50 44.96 45.64 46.25 47.18 47.13 47.72 47.52 46.92 46.46 45.95 44.75 44.30 43.72 41.47 41.92 43.85 43.27 43.47 42.94 42.36 41.68 41.18 40.32 41.53 41.72 39.84 39.86 38.27
40.97 43.17 40.64 40.39 35.33 34.67 35.35 32.03 34.60 40.27 38.95 41.41 43.02 45.75 47.11 45.94 46.64 46.42 46.52 46.79 45.93 45.72 45.31 45.66 46.96 47.43 47.02 46.51 46.32 45.61 43.71 42.01 42.82 41.02 40.16 40.66 41.93 42.07 42.55 41.39 41.84 40.98 40.09 39.05 38.37 38.31 37.50 37.71 36.78
44.41 42.25 41.17 39.04 36.30 28.63 35.39 33.35 32.96 36.34 39.40 41.46 43.25 45.61 46.89 45.59 45.31 46.43 47.35 47.48 46.44 44.77 44.35 43.94 45.52 46.19 46.43 45.76 44.79 43.96 41.44 41.10 39.36 38.73 39.09 39.30 40.69 41.22 41.68 42.28 40.73 39.45 38.72 37.96 37.35 36.58 36.14 35.77 35.63
41.70 38.10 30.73 29.67 26.27 26.65 37.26 34.49 34.98 40.92 42.50 43.33 43.84 43.86 44.48 45.34 46.38 47.93 47.25 45.00 44.65 44.05 44.20 45.81 45.19 43.94 43.24 42.44 41.85 41.56 40.44 39.42 39.51 39.68 39.53 41.04 41.65 41.49 40.43 39.56 38.65 38.29 38.19 37.45 36.80 35.50 34.61 34.76 33.44
38.23 37.15 30.30 25.93 23.10 29.18 36.25 30.83 35.11 41.99 44.76 45.51 45.31 44.85 44.39 47.05 45.53 43.74 43.65 43.69 43.58 43.88 42.63 42.09 42.33 41.83 41.89 41.90 41.39 41.57 41.76 41.59 41.77 43.28 42.85 40.71 39.41 39.15 39.40 38.61 38.05 37.76 37.62 36.73 36.15 34.70 34.13 33.29 31.87
38.68 33.18 37.72 31.12 29.18 27.53 30.45 34.58 39.77 41.70 42.72 43.79 44.52 44.35 41.52 41.91 42.62 43.22 43.48 43.54 43.05 43.19 43.28 42.11 41.09 40.87 41.47 42.01 41.91 42.28 43.36 42.89 42.02 41.55 39.91 38.54 38.56 40.18 39.02 38.41 38.90 39.34 37.88 36.55 35.70 34.58 32.68 32.83 32.05
40.14 41.48 32.80 29.90 23.58 21.63 28.27 30.32 31.77 37.51 39.96 41.19 40.20 40.45 41.00 41.42 42.15 42.49 42.18 41.66 41.88 42.17 42.09 42.18 41.92 40.85 40.91 40.68 41.18 42.16 41.11 40.86 40.28 39.66 39.13 38.46 38.25 40.87 40.08 40.02 39.08 37.15 36.96 36.50 34.59 33.15 32.89 32.76 31.80
38.60 36.37 35.23 34.49 28.54 23.11 20.64 28.52 37.09 39.09 40.11 39.37 39.74 41.06 40.79 40.59 41.17 41.62 41.36 41.52 40.72 39.96 39.68 39.04 39.44 38.34 37.15 37.88 39.18 39.32 39.47 39.66 39.23 38.53 38.37 37.71 38.31 38.04 37.89 38.51 36.94 36.65 35.17 33.85 32.30 31.34 32.88 32.74 30.29
38.90 37.00 34.96 25.55 28.68 25.93 22.88 27.49 39.01 40.05 40.72 41.03 40.85 41.01 40.84 40.93 40.81 41.23 40.74 40.69 40.03 37.27 36.06 36.19 35.39 35.06 35.33 36.36 36.99 37.12 37.43 37.30 37.12 37.39 36.43 37.40 37.44 35.33 35.15 35.79 36.90 34.50 33.03 32.11 31.95 31.47 30.65 28.33 27.21

GFSSGP_sfc_wetblb_006.txt.gz
Wetbulb
55.27 53.74 49.14 46.75 39.10 39.22 36.91 39.50 46.90 48.25 52.48 57.06 59.00 57.67 57.00 58.85 55.41 51.13 65.98 68.03 69.25 69.44 70.68 70.68 71.18 71.83 71.89 71.64 71.45 71.52 71.31 70.55 70.28 69.93 69.54 68.94 68.50 68.23 67.84 67.43 67.53 66.98 66.64 66.41 66.14 66.12 66.32 66.25 66.26
49.15 50.66 47.43 42.73 36.31 33.01 35.05 42.82 50.19 53.79 55.86 57.31 57.49 57.20 57.88 56.62 63.00 63.15 64.96 69.20 69.50 70.02 70.17 70.56 71.09 71.20 71.77 71.46 71.50 71.38 70.95 70.35 70.20 69.87 69.10 68.40 67.94 67.19 66.52 66.59 67.09 65.99 65.78 65.57 65.11 64.86 64.42 64.17 64.40
50.55 50.85 42.71 38.96 33.78 33.59 35.21 48.53 53.47 54.51 56.42 55.94 54.49 56.69 56.50 58.46 63.51 63.84 67.57 69.39 69.57 69.19 69.85 70.39 70.87 71.03 71.46 71.49 71.43 70.96 71.17 70.67 70.37 69.66 68.52 67.96 67.27 66.30 65.56 65.63 65.36 64.93 64.84 64.41 64.09 63.63 63.00 62.81 63.27
48.25 45.79 41.77 36.91 34.09 39.19 41.38 50.23 54.68 54.36 55.81 57.23 56.64 54.39 57.99 62.38 63.51 66.11 69.31 69.42 68.65 68.20 68.72 68.70 69.93 70.73 71.25 71.24 71.36 71.21 70.83 70.15 69.80 69.32 68.17 67.50 66.64 65.82 64.93 64.57 64.04 63.81 63.48 63.17 62.98 62.62 62.39 62.33 62.45
45.26 40.82 35.85 33.38 35.54 39.28 43.15 51.82 53.30 53.31 53.71 54.99 55.58 53.33 55.54 64.53 66.65 68.27 68.60 68.80 68.20 68.45 68.81 69.49 69.31 70.33 71.15 71.52 71.10 70.75 69.96 69.18 69.24 68.81 68.06 66.95 66.15 65.43 64.57 63.72 63.29 62.91 62.81 62.97 63.08 62.70 62.48 62.35 62.27
41.67 39.71 34.79 33.34 36.65 43.19 46.71 53.06 55.16 53.98 54.40 55.23 55.56 54.09 55.68 66.25 66.11 67.48 68.61 68.08 68.90 68.69 69.86 69.44 70.38 70.11 70.22 70.42 70.29 69.52 68.93 68.69 68.88 68.28 67.41 66.46 65.80 65.08 63.93 63.13 62.84 62.72 62.63 62.77 63.23 63.08 62.77 62.82 62.55
38.96 36.67 33.27 35.20 41.69 42.43 45.54 54.51 53.44 53.29 53.82 53.61 55.71 51.16 58.79 63.52 66.94 68.08 67.81 68.30 68.46 69.01 69.57 69.28 68.88 69.28 69.01 68.36 68.27 68.13 68.33 68.35 68.08 67.65 67.10 66.75 65.94 65.58 64.34 63.66 63.57 63.21 63.00 63.51 63.88 64.21 63.79 63.48 63.19
41.16 38.55 35.97 40.81 41.24 42.42 43.62 50.36 52.87 53.79 52.38 56.06 56.23 53.99 56.99 61.63 67.09 67.62 67.14 66.81 67.21 67.64 67.88 67.67 68.37 69.07 67.16 66.40 67.03 67.06 67.08 67.24 67.30 67.14 66.54 65.66 65.53 65.59 65.24 64.58 63.55 64.20 63.99 64.06 64.52 64.21 64.14 63.86 63.51
41.08 36.67 34.95 40.78 43.27 45.49 46.58 47.96 48.18 54.14 53.94 53.96 53.65 56.05 60.64 65.11 66.08 65.07 64.94 65.48 66.23 66.91 66.95 67.21 67.01 66.90 64.81 64.21 65.80 66.90 67.19 66.77 66.45 66.25 65.87 63.95 61.52 60.89 60.88 63.69 64.56 64.51 64.19 64.29 64.53 64.50 64.20 63.64 62.63
40.29 35.81 38.00 41.65 43.61 48.60 51.60 49.78 51.38 52.67 51.60 50.76 51.37 58.85 63.12 64.33 63.55 62.36 62.10 62.32 63.18 64.19 64.58 64.82 63.59 63.02 62.83 65.34 63.79 62.93 63.66 63.04 63.15 63.34 62.79 61.96 61.20 60.91 62.38 62.89 63.93 64.50 64.48 64.85 64.72 64.63 64.50 63.03 58.87
38.52 38.02 40.44 43.67 44.60 45.31 47.03 46.28 49.51 51.46 48.05 50.73 52.80 57.18 59.92 62.15 61.83 61.36 61.41 61.74 62.22 63.50 62.69 62.04 61.58 61.72 61.56 62.44 61.43 60.95 61.61 61.10 61.47 61.56 60.98 61.02 61.89 60.68 60.25 59.78 58.79 58.28 60.97 59.11 59.20 59.25 58.73 58.10 57.63
38.55 41.70 41.83 42.55 45.29 43.34 46.29 43.97 50.36 46.32 50.43 54.88 57.09 59.07 58.25 59.26 58.96 59.45 58.76 59.37 58.77 60.00 61.15 61.29 60.85 60.58 60.52 60.25 60.42 60.03 60.40 60.50 60.56 61.45 61.69 60.02 59.39 58.18 56.88 56.67 54.80 53.93 53.76 53.60 54.68 55.40 55.83 55.80 54.91
40.05 40.55 42.43 42.58 42.41 41.62 43.00 43.63 47.74 42.05 51.61 53.77 55.89 57.60 56.90 57.66 56.94 56.71 57.23 57.69 57.45 58.60 59.38 59.80 60.10 59.64 59.88 59.22 59.44 59.00 59.91 60.93 61.06 61.06 60.53 58.74 57.40 54.56 54.41 53.54 53.58 53.58 53.47 52.87 52.37 52.37 52.29 52.00 52.44
43.19 39.88 39.40 42.24 40.76 39.88 41.22 40.02 40.84 41.95 52.02 51.92 53.80 54.78 54.79 56.43 55.02 53.16 53.66 54.44 56.44 58.98 59.28 60.07 60.21 59.27 57.89 58.07 58.77 58.91 59.49 60.32 60.78 59.87 58.32 57.48 55.65 54.51 54.12 52.73 51.78 51.14 51.67 51.14 51.04 51.23 50.85 50.28 50.17
41.75 38.98 40.00 40.64 40.09 39.88 43.05 38.52 37.37 44.24 52.00 51.04 51.41 51.41 51.15 52.49 52.19 51.37 52.18 53.33 55.56 58.31 58.69 58.87 59.35 59.13 58.76 58.77 58.79 59.26 58.72 59.47 58.79 57.02 54.85 55.91 54.98 53.17 51.12 49.54 48.70 49.00 49.94 49.45 48.84 48.67 47.56 47.06 47.47
39.14 38.06 34.82 38.77 40.79 40.54 39.76 33.86 39.65 47.40 51.05 49.33 50.25 51.62 51.07 50.61 51.01 51.27 52.34 51.77 52.16 57.07 58.53 60.88 61.92 61.59 60.05 58.80 58.51 57.83 56.39 56.05 55.36 55.04 54.53 52.54 51.11 50.11 48.42 48.11 48.03 48.37 48.24 46.73 46.80 46.82 44.76 45.39 44.81
36.24 32.12 34.15 37.08 40.85 40.47 39.23 34.96 41.09 43.16 49.46 46.52 46.76 47.70 49.30 49.41 50.46 51.60 54.07 54.44 56.34 59.05 60.37 60.62 61.29 60.60 59.19 57.67 56.37 55.36 53.35 51.43 50.47 50.70 49.65 49.21 49.75 49.04 47.94 47.46 47.20 46.78 45.29 44.58 44.83 44.44 44.43 44.21 43.68
32.61 33.07 32.07 34.90 37.99 40.10 38.02 38.58 42.39 44.30 45.40 44.72 44.14 45.71 46.79 46.90 47.95 50.80 52.25 53.00 55.09 57.11 58.58 58.24 57.74 56.78 56.01 55.34 54.84 54.17 51.12 51.04 51.35 50.90 50.05 48.92 49.13 49.73 49.00 46.91 45.33 44.83 43.68 43.04 43.12 42.94 43.09 43.24 43.28
37.71 35.75 34.09 34.73 39.65 39.69 38.42 38.61 40.60 44.00 44.00 43.24 43.72 44.44 45.02 46.05 48.71 49.81 50.72 52.13 52.41 53.06 53.28 54.43 54.41 54.94 53.53 51.21 50.53 49.68 49.48 50.86 52.15 48.12 47.48 47.01 47.58 45.47 44.49 44.00 43.77 43.48 42.35 41.61 42.58 42.02 41.75 41.77 42.69
39.16 36.54 34.79 37.61 41.25 40.44 39.10 37.10 39.68 41.91 42.35 43.50 43.80 44.00 45.12 45.90 46.95 48.59 48.12 48.52 49.98 51.51 52.78 52.96 51.91 50.69 51.16 50.28 49.30 51.58 51.34 49.49 46.69 45.91 44.32 44.58 44.50 44.07 44.62 43.29 42.67 42.15 41.63 41.30 41.26 40.99 40.65 40.71 41.83
38.72 36.58 35.87 36.46 40.96 40.42 38.97 36.96 38.17 42.34 44.30 45.42 45.35 44.68 45.62 45.78 46.15 46.61 45.83 44.80 45.92 47.37 47.45 47.61 47.83 48.12 48.77 50.18 49.60 46.65 46.43 46.20 43.88 43.39 41.33 42.48 43.29 43.03 42.68 42.78 42.11 41.19 40.81 40.61 40.10 40.07 39.70 38.82 39.70
36.25 40.42 39.57 38.60 36.56 33.00 36.98 30.00 35.16 38.79 40.81 42.89 43.65 43.66 44.44 45.56 45.39 45.06 44.39 44.27 44.00 43.26 44.32 45.52 46.54 46.34 46.72 46.33 45.82 45.12 43.95 42.84 42.38 40.68 39.71 40.79 42.19 42.33 42.55 41.89 41.07 40.35 39.90 40.08 40.05 39.60 38.35 38.68 35.26
39.23 41.96 39.60 37.38 34.49 33.61 34.23 31.94 32.86 39.30 38.83 41.22 42.67 44.23 44.17 44.15 44.41 45.81 45.13 45.26 44.48 45.20 44.36 44.08 45.59 45.70 45.49 45.12 45.23 43.93 41.20 41.42 40.72 39.31 39.63 39.77 41.08 41.65 41.28 40.76 40.22 39.62 38.87 37.94 37.58 36.33 35.48 36.08 34.99
43.30 41.27 39.59 37.24 34.83 27.94 33.14 32.16 31.08 35.31 39.06 41.02 42.50 44.55 44.88 44.43 43.53 44.93 45.78 46.44 45.43 43.79 43.44 43.71 44.54 43.32 43.78 42.99 42.74 41.99 40.83 39.62 38.72 39.40 39.65 40.16 39.94 40.25 40.32 40.38 38.91 38.40 37.65 36.91 36.21 35.37 34.87 34.45 34.27
40.74 36.89 29.58 28.70 25.53 26.32 35.35 32.62 33.93 39.79 41.06 43.38 43.12 43.64 44.01 43.82 43.64 44.59 45.12 44.26 41.95 41.50 41.81 43.01 41.82 41.06 41.74 41.50 41.38 41.15 40.68 39.23 39.82 39.68 39.09 39.30 40.10 39.71 38.94 38.46 37.90 37.38 37.42 37.60 35.91 34.55 33.82 32.93 31.73
36.19 36.48 29.45 24.97 22.48 27.95 34.63 30.17 34.91 40.74 42.85 44.58 44.38 43.82 43.46 43.88 43.74 42.83 41.81 41.73 42.11 41.99 40.49 40.08 40.14 39.87 40.55 40.71 40.29 40.39 40.31 39.85 40.55 40.60 39.88 40.23 38.33 37.88 38.23 38.08 36.94 36.88 39.33 37.31 38.32 36.31 33.43 33.16 31.37
36.75 32.29 36.55 30.41 28.57 26.86 29.39 34.07 38.23 40.51 40.92 42.34 42.82 42.72 42.20 40.83 40.84 41.32 41.46 41.30 41.23 41.29 40.62 39.68 39.82 39.65 39.77 39.72 39.93 39.80 39.69 39.28 38.87 39.18 38.80 38.25 38.25 39.16 38.11 36.90 39.00 38.89 38.10 37.03 36.07 33.85 34.23 33.05 32.27
38.36 39.76 31.24 28.83 22.87 21.33 26.77 29.44 31.28 36.61 39.37 41.14 40.20 39.98 40.09 40.34 40.72 40.58 39.82 39.64 39.64 39.37 40.13 40.18 38.61 36.38 36.50 36.24 37.12 36.97 36.48 36.77 36.76 36.62 36.49 37.18 37.38 38.31 39.34 38.06 38.89 37.69 37.05 36.38 35.72 32.91 32.64 32.40 31.87
37.25 34.89 33.58 32.67 27.57 21.84 19.18 27.05 35.86 38.24 40.85 39.07 39.13 39.83 39.67 39.52 39.08 38.95 38.67 38.28 37.62 38.89 38.57 37.80 35.40 35.35 35.21 35.15 35.40 35.33 35.48 35.66 35.50 35.16 35.79 36.03 36.19 37.59 37.15 37.16 37.34 34.98 34.87 34.20 31.50 30.57 30.51 31.43 30.94
37.49 35.18 33.13 24.60 26.35 24.93 21.80 26.22 37.02 37.59 39.82 39.76 39.35 39.55 39.03 39.39 38.82 38.73 38.47 38.69 37.65 36.16 36.52 34.64 34.62 34.97 34.48 34.22 34.58 34.32 34.70 34.81 34.16 34.14 34.19 34.77 34.98 34.78 35.85 35.60 35.25 34.94 33.43 31.26 29.82 29.70 30.22 28.82 27.61

GFSSGP_sfc_wetblb_009.txt.gz
Wetbulb
61.03 57.21 54.61 53.22 45.75 45.88 42.37 43.78 50.92 52.86 54.86 59.28 60.76 59.42 58.13 59.15 56.02 52.95 67.18 68.74 69.69 70.61 71.69 71.44 70.45 71.31 71.38 71.27 71.51 71.61 71.51 70.82 70.45 70.06 69.40 68.89 68.57 67.94 67.43 67.24 68.21 67.41 66.39 66.03 65.76 65.39 64.78 64.65 64.76
52.60 52.97 52.85 49.34 43.21 40.37 42.21 45.78 52.65 55.57 58.01 58.43 57.60 57.82 57.30 55.00 61.59 63.78 65.74 69.46 70.33 70.84 71.60 70.88 70.25 70.89 71.29 71.24 71.38 71.26 71.20 70.57 70.32 69.78 68.96 68.45 67.65 66.97 66.71 66.42 67.19 66.14 65.41 64.83 64.19 63.69 63.42 63.45 63.41
53.67 52.73 50.17 46.95 42.97 40.60 42.40 52.21 54.59 56.70 58.14 56.81 54.61 57.89 58.10 56.49 62.32 64.59 68.46 70.08 70.79 70.92 71.20 70.81 70.22 70.57 71.18 71.48 71.22 71.02 70.89 70.71 70.41 69.62 68.45 67.87 67.09 66.19 65.98 65.55 66.20 64.73 64.06 63.54 63.41 62.81 62.51 62.74 62.87
52.86 52.07 47.94 44.33 41.45 43.66 45.45 54.77 56.52 55.66 57.03 58.29 57.08 53.48 60.05 64.60 64.49 66.42 69.87 70.50 70.03 70.40 70.63 69.70 69.23 70.51 71.20 71.35 71.23 71.04 70.73 70.31 69.93 69.27 68.37 67.34 66.54 65.69 64.98 64.66 64.13 63.55 63.68 63.84 63.56 63.27 62.46 62.50 63.26
50.68 47.93 44.18 41.67 41.25 44.36 47.24 56.82 57.08 54.94 55.04 56.08 56.56 54.13 57.44 65.01 67.90 69.09 69.24 69.74 69.26 69.77 70.63 70.66 68.59 69.57 70.75 71.29 71.34 70.70 70.14 69.55 69.47 68.89 68.33 66.99 66.15 65.10 64.00 63.76 63.39 63.26 63.67 63.91 63.62 63.15 62.90 62.85 63.26
49.15 46.88 42.45 40.65 42.21 46.12 50.74 56.32 56.27 55.74 56.25 55.92 56.68 56.75 59.14 66.91 67.34 68.24 69.11 69.08 69.56 69.35 70.45 70.81 69.76 69.54 70.13 70.67 70.29 69.41 68.95 68.86 68.78 68.45 67.62 66.53 65.83 64.91 63.93 63.72 63.43 63.26 63.57 64.00 63.96 63.60 63.44 63.20 63.28
46.70 44.60 42.16 41.79 45.14 46.69 52.23 57.79 54.62 55.53 55.20 55.57 57.95 55.50 61.20 64.50 67.31 68.40 68.57 69.39 69.76 69.82 69.65 70.42 70.96 70.65 68.93 68.59 68.52 68.07 68.15 68.26 68.03 67.62 67.16 66.32 65.46 65.06 64.44 64.13 64.21 64.00 64.09 64.95 64.85 64.51 64.43 63.88 64.14
46.88 45.78 42.12 45.63 46.72 46.36 50.55 54.83 56.62 55.20 53.75 58.73 60.70 56.18 58.09 63.03 68.07 68.35 68.45 68.76 68.60 69.51 69.61 70.26 70.62 70.21 70.18 70.08 67.56 67.56 67.42 67.46 67.19 67.00 66.30 65.06 65.02 64.86 64.86 63.89 63.83 64.69 64.61 64.79 64.83 65.14 65.06 64.74 63.97
46.58 44.03 43.86 45.30 47.65 47.93 52.92 53.54 52.91 57.26 56.34 56.55 56.00 60.91 63.29 66.26 67.56 66.31 65.68 66.06 66.99 67.51 68.35 68.63 68.08 68.27 69.47 69.73 68.67 67.57 67.21 66.99 66.50 66.39 65.58 64.73 65.74 65.36 64.81 64.51 64.57 65.02 64.63 64.86 65.21 65.15 64.86 64.51 63.44
46.68 43.65 43.69 46.88 50.99 51.04 52.64 51.72 54.82 54.77 54.84 53.26 58.39 63.30 65.59 65.31 65.03 63.86 63.71 63.64 65.27 65.96 66.36 67.40 67.38 67.21 67.97 67.69 68.19 67.40 66.84 66.82 66.55 66.30 66.20 66.56 66.06 66.19 65.40 65.03 63.74 63.82 63.82 64.59 63.87 63.76 63.76 63.71 64.26
45.23 44.69 44.63 45.55 49.07 54.62 52.21 49.97 54.34 54.66 52.87 54.60 58.07 59.94 62.05 63.30 62.99 62.72 62.85 64.16 64.72 65.76 65.69 65.94 66.42 66.90 67.77 67.21 66.97 66.41 66.14 65.79 65.86 65.97 65.82 66.39 66.13 66.97 67.05 66.37 65.61 65.13 62.51 62.75 61.90 62.77 63.46 63.14 62.69
44.23 45.34 44.62 48.14 47.60 48.37 50.59 52.18 53.91 54.43 53.48 57.34 61.63 63.24 62.62 61.72 61.60 62.39 62.80 63.39 63.98 64.88 65.81 66.74 67.17 66.39 65.71 65.41 65.24 64.57 64.49 64.43 64.66 65.65 65.97 66.02 65.91 65.94 64.32 63.72 62.07 61.60 61.35 60.86 60.50 60.77 60.87 60.48 59.42
44.21 44.59 44.34 44.73 45.59 49.83 47.33 51.57 53.59 48.03 55.32 59.74 62.30 62.75 62.98 63.34 63.16 62.97 62.67 62.62 63.31 63.23 64.59 65.21 64.67 64.32 64.11 63.69 63.42 63.24 63.27 63.74 64.58 65.34 65.36 65.58 64.41 63.83 62.41 61.46 60.56 59.86 59.74 59.07 58.94 59.07 59.12 58.43 57.64
46.64 44.09 44.02 44.25 43.98 44.43 46.07 44.85 48.19 49.16 55.20 58.66 60.50 61.18 61.46 61.10 60.81 60.03 60.03 60.13 61.49 62.62 63.75 63.89 63.18 62.90 62.76 62.47 63.01 63.23 62.94 62.22 62.14 62.53 60.71 61.18 61.64 61.54 60.53 58.06 56.81 56.98 57.51 57.62 57.54 57.51 56.60 55.79 55.24
44.12 43.12 43.93 44.24 44.82 44.64 46.47 43.63 42.19 49.03 53.95 55.71 58.40 57.39 57.64 57.70 58.40 59.10 59.14 59.35 60.59 62.28 63.21 62.81 62.07 62.51 62.52 62.01 62.51 61.29 60.47 59.54 58.23 58.98 59.15 57.61 57.85 57.94 56.53 56.57 56.47 55.73 56.70 55.87 56.18 55.35 55.15 54.53 52.95
42.88 42.74 40.68 43.70 45.66 44.64 44.61 40.09 45.98 48.78 53.34 52.20 53.56 54.54 54.97 54.29 55.04 56.30 57.29 57.62 59.38 61.89 62.58 63.20 62.77 62.81 62.57 62.61 60.80 59.71 56.93 57.49 56.27 56.71 56.78 55.60 55.70 56.03 56.18 55.53 54.91 54.65 54.32 54.05 54.00 53.29 52.77 52.50 51.62
41.62 38.51 39.50 41.87 45.32 44.92 45.33 41.52 46.86 49.23 52.15 50.44 51.80 53.15 53.64 54.20 54.51 55.66 57.72 58.65 60.12 62.89 62.83 62.92 63.65 62.54 61.48 58.86 55.95 54.42 55.13 54.23 53.80 55.28 54.41 54.17 53.15 53.76 54.45 53.60 52.66 52.64 51.93 52.21 51.55 51.25 50.92 49.92 49.19
39.00 38.86 39.88 40.72 43.11 45.53 44.55 43.09 46.48 48.42 51.04 49.64 50.52 51.66 52.15 52.25 52.56 54.59 56.74 58.79 61.06 61.68 61.83 61.23 61.48 60.76 59.41 57.35 56.21 55.59 55.32 54.89 55.21 53.62 51.13 52.36 52.61 52.64 52.87 52.05 51.88 51.91 51.04 50.46 50.57 49.69 49.55 49.11 47.92
40.86 40.12 39.60 40.57 43.93 44.33 41.98 42.88 44.78 47.40 48.37 48.51 49.64 50.59 51.38 51.89 52.47 54.59 56.30 58.44 58.82 60.15 59.85 59.46 59.03 58.72 58.43 55.94 55.43 55.51 55.26 54.53 51.75 51.97 51.76 51.56 51.63 51.47 51.77 50.98 50.86 50.84 50.03 49.81 49.86 49.25 46.82 46.58 48.07
42.42 40.36 39.65 42.19 44.09 44.34 43.27 42.75 45.40 46.49 46.49 47.70 49.02 49.84 50.84 50.88 51.64 52.48 55.03 57.59 58.66 58.56 58.48 58.33 57.62 56.72 56.64 56.81 56.73 57.45 56.53 53.54 51.04 50.42 50.10 50.16 50.31 50.10 50.12 50.66 50.43 50.49 49.89 49.34 48.63 47.55 45.90 46.64 47.40
42.03 40.85 39.10 40.91 43.54 44.65 44.32 41.91 43.62 46.46 47.83 48.40 49.06 49.72 50.57 50.86 50.65 51.34 52.80 54.79 56.17 55.13 55.41 55.59 55.44 55.62 55.25 55.61 55.21 53.66 53.46 52.61 50.99 49.34 49.18 49.41 49.82 49.92 50.24 50.32 50.57 49.98 49.52 48.37 47.66 46.87 45.64 43.61 45.25
41.02 42.91 42.65 41.81 41.32 38.50 41.96 36.80 41.39 44.62 45.61 47.16 48.26 49.12 49.76 49.65 49.89 49.41 49.11 49.57 50.52 50.46 52.10 52.68 52.66 52.61 52.00 52.38 52.61 52.33 51.93 50.95 49.52 48.45 49.28 49.96 49.67 49.58 48.81 48.85 48.89 48.68 48.27 47.02 46.31 45.32 44.55 43.77 40.57
42.36 44.39 43.48 41.32 39.74 39.72 39.59 39.78 39.34 44.12 43.81 46.05 47.72 48.51 48.88 48.76 49.11 48.68 49.27 50.07 50.06 50.58 50.85 50.91 50.85 50.34 50.50 51.34 51.52 50.62 49.45 49.04 48.42 49.06 47.90 48.18 48.74 48.41 47.65 47.18 47.22 46.82 46.35 45.39 44.69 43.47 42.46 42.36 40.41
45.34 44.18 43.24 41.61 40.16 35.63 37.88 38.28 38.44 40.98 44.59 46.24 47.61 48.22 48.58 49.04 49.19 49.41 49.76 50.20 49.32 49.84 50.33 49.69 48.72 48.09 49.09 49.60 49.69 49.90 49.02 47.55 47.53 47.42 47.20 47.65 48.20 48.60 47.89 46.30 46.40 45.70 45.11 44.02 43.48 42.96 41.25 41.15 40.65
44.64 42.36 36.57 35.30 35.06 33.45 38.28 37.01 41.00 43.83 45.60 47.97 47.32 48.45 48.93 49.60 48.90 48.74 48.91 48.17 48.11 48.25 48.12 47.48 47.43 46.40 47.66 47.65 47.30 47.07 46.62 46.93 46.77 46.37 45.97 45.76 45.95 46.24 47.04 45.97 45.16 44.35 43.34 42.79 43.42 42.18 41.19 40.47 39.38
41.36 42.16 37.01 29.26 30.51 34.61 38.04 35.80 41.33 43.97 46.82 48.99 49.45 49.63 48.96 48.65 49.00 48.50 47.26 46.95 46.48 46.05 46.32 46.77 46.62 45.82 46.32 46.59 46.07 45.99 44.83 43.75 43.17 42.89 42.84 42.58 42.85 43.56 45.74 45.38 43.96 43.59 43.76 43.21 42.17 41.85 41.00 40.90 39.83
40.50 38.57 41.23 34.62 31.98 32.93 36.10 38.84 43.60 43.35 44.21 46.39 46.55 47.40 47.67 48.18 47.72 47.14 46.54 46.19 46.07 45.85 45.92 45.53 43.73 43.02 43.14 43.34 43.12 42.60 42.54 42.16 41.66 41.93 42.29 41.79 42.96 43.63 44.82 43.95 43.57 44.04 43.02 42.42 41.85 41.04 40.59 40.11 39.93
43.46 42.44 37.07 36.00 29.10 26.89 32.50 34.14 38.06 40.50 42.52 44.94 45.08 46.54 47.00 46.49 45.96 45.52 44.76 45.06 45.76 45.73 43.95 43.22 42.98 41.93 41.39 42.06 42.16 41.52 41.44 41.80 42.06 41.91 41.12 41.40 42.50 43.62 44.33 43.47 43.24 42.24 43.31 41.88 41.19 40.33 40.16 38.73 39.04
41.02 38.90 36.81 37.04 33.59 29.67 27.75 34.16 41.77 42.90 44.83 44.53 46.43 45.98 46.02 45.38 44.97 43.51 43.51 43.60 44.56 43.24 42.36 41.52 41.01 41.71 41.04 41.23 41.19 41.35 41.36 41.57 41.57 41.03 40.89 41.03 41.88 42.87 43.33 43.24 41.96 42.21 41.13 40.81 39.76 39.20 38.10 37.21 38.01
42.60 39.81 38.52 33.93 30.55 30.27 30.99 34.71 41.36 42.44 43.99 45.86 44.72 44.31 45.33 45.25 43.61 43.22 42.48 41.68 41.40 41.28 40.87 39.83 41.46 41.18 40.48 40.54 40.78 40.57 40.80 40.95 40.50 40.22 40.33 40.84 40.46 41.40 41.19 40.29 40.39 40.00 40.19 40.44 38.60 37.34 37.35 36.79 36.01

GFSSGP_sfc_wetblb_012.txt.gz
Wetbulb
63.10 61.07 58.11 56.60 49.59 49.81 47.69 48.46 55.75 57.48 57.97 62.16 62.98 60.68 58.92 60.28 58.67 54.84 68.59 70.49 71.78 71.65 71.36 71.11 70.69 71.25 71.29 71.48 71.59 71.62 71.78 71.04 70.60 69.86 69.23 68.74 68.13 67.72 67.70 67.60 67.94 66.73 66.02 65.42 64.57 64.25 63.87 63.56 63.59
57.41 54.81 57.13 55.30 46.42 45.26 47.12 49.45 52.42 58.88 59.68 60.29 58.65 59.47 58.44 56.25 63.59 65.75 67.20 70.66 71.49 71.54 71.35 71.53 70.30 70.99 71.23 71.42 71.47 71.47 71.31 70.65 70.30 69.23 68.67 68.01 67.35 66.99 66.80 66.41 67.26 65.80 64.68 64.01 63.48 63.12 62.91 62.84 63.36
55.32 56.49 53.52 50.18 46.91 45.02 46.12 51.45 57.67 59.21 59.89 58.53 55.45 58.61 57.50 55.79 62.60 65.31 68.82 70.66 71.63 71.57 71.41 71.69 70.07 70.17 70.70 71.07 70.91 71.23 71.08 71.01 70.08 69.30 68.13 67.42 66.69 66.31 65.80 65.54 65.54 64.07 63.91 63.86 63.33 63.09 62.64 62.86 63.40
53.81 54.72 53.70 47.11 46.43 47.16 49.21 56.70 58.87 58.44 59.32 59.54 56.24 53.57 59.07 61.44 63.10 66.72 70.00 70.51 70.02 70.51 71.57 69.56 69.28 69.83 70.34 70.68 70.81 71.23 70.94 70.52 69.91 69.35 67.92 66.99 66.08 65.33 64.86 64.42 63.88 64.28 64.34 64.17 63.69 63.17 63.12 63.29 63.72
55.30 54.12 47.97 46.45 46.41 47.32 50.27 59.17 59.45 56.96 57.46 57.93 58.64 55.25 56.68 64.20 67.77 69.11 69.38 69.51 68.79 70.60 71.42 70.39 68.37 68.98 69.92 70.71 71.44 70.84 70.33 69.96 69.48 68.91 67.64 66.63 65.30 64.23 63.72 63.72 63.86 64.17 64.48 64.10 63.99 63.55 63.45 63.50 63.92
50.90 52.66 46.03 45.34 46.84 49.97 51.85 59.56 59.46 56.48 56.50 57.56 57.92 58.57 59.83 67.66 67.89 68.74 69.58 70.12 69.87 70.02 70.85 70.85 69.03 69.31 69.43 70.36 70.43 69.69 69.41 69.23 68.97 68.13 67.07 66.03 65.00 64.38 63.95 63.90 64.02 63.97 64.19 64.14 63.93 63.83 63.97 64.08 64.02
50.55 48.56 46.40 46.53 48.33 51.32 53.77 60.33 57.11 53.81 56.46 56.25 60.80 57.32 62.09 65.22 68.23 68.93 69.69 70.30 70.44 70.97 71.12 70.93 70.71 70.09 68.61 68.90 68.54 68.30 68.43 68.38 67.97 67.43 66.87 65.67 65.12 64.80 64.45 64.52 64.50 64.21 64.17 64.40 64.42 64.44 64.47 64.57 64.28
53.11 49.95 46.03 49.57 49.80 51.83 57.62 56.54 56.40 54.30 55.71 62.18 62.91 57.35 59.14 65.43 69.10 69.24 69.43 69.71 70.15 70.28 70.61 70.44 70.63 70.90 70.73 70.70 67.93 67.75 67.61 67.53 67.32 66.67 65.95 65.40 65.34 64.40 64.30 63.64 64.47 64.64 64.63 64.58 64.60 64.77 64.92 64.86 64.68
53.04 46.93 46.22 50.06 51.90 52.34 56.57 53.69 57.22 59.05 58.32 60.33 60.35 62.43 65.10 67.33 68.52 68.31 67.19 68.06 68.52 68.93 69.33 70.08 70.28 70.26 70.34 70.28 69.60 67.81 67.43 66.99 66.76 66.46 65.39 64.75 67.69 66.90 65.50 63.97 64.35 64.86 64.80 64.92 65.14 65.22 65.04 64.69 64.59
50.52 47.55 47.59 54.13 55.59 53.14 53.87 54.06 55.46 55.95 57.72 56.71 61.33 65.08 67.04 67.69 67.30 66.01 66.12 65.26 65.87 66.75 67.35 68.43 68.73 68.50 69.43 68.35 68.58 67.80 66.56 67.13 67.40 67.79 67.76 68.48 68.03 67.85 66.22 65.22 64.02 63.59 63.49 64.13 62.80 62.69 63.14 64.08 63.40
50.78 47.75 51.21 54.87 55.00 55.05 53.77 53.77 56.38 56.97 56.27 57.74 59.79 63.42 64.31 65.28 65.15 64.62 63.92 66.37 66.63 66.67 66.69 67.52 67.89 68.11 68.90 67.72 67.20 66.25 66.13 67.31 67.75 68.06 68.06 68.30 68.13 68.35 67.65 66.85 66.52 66.68 63.30 64.84 63.94 64.31 62.99 63.24 62.80
48.36 49.80 49.60 54.02 56.23 55.51 53.55 54.87 56.44 57.70 56.50 60.30 64.02 65.59 64.55 63.88 63.83 65.07 64.91 64.44 65.28 66.43 67.12 66.73 67.21 67.77 68.30 67.19 65.67 65.72 66.01 67.05 67.93 68.12 68.53 69.08 67.41 66.96 65.97 65.24 65.55 66.15 64.84 63.02 62.65 62.35 62.45 62.18 61.26
48.66 49.12 48.68 49.28 53.03 55.52 54.88 55.61 56.34 54.38 60.05 63.84 64.60 64.80 64.52 63.83 64.11 64.17 64.39 64.81 65.29 64.69 66.19 67.52 67.76 67.31 67.10 66.11 65.85 65.99 66.67 67.33 67.53 68.16 67.27 65.99 65.18 64.82 65.46 65.11 64.22 63.14 62.66 61.93 61.08 60.92 60.35 59.85 59.36
49.81 47.98 47.45 48.16 51.13 51.43 53.23 53.24 55.08 53.98 60.74 62.12 63.12 63.25 64.20 63.91 63.63 63.30 62.89 63.07 63.75 64.51 66.25 67.19 66.67 66.65 66.04 65.51 66.03 66.11 65.20 63.93 63.82 64.46 63.36 61.82 61.52 62.07 63.94 62.53 61.54 61.16 61.18 60.50 59.74 59.07 58.09 57.94 57.96
48.80 45.88 47.26 47.62 51.01 49.62 52.42 47.35 48.70 54.19 58.48 60.75 61.15 62.57 63.48 63.38 63.57 61.93 62.18 62.06 63.17 65.06 66.57 66.55 66.28 66.13 65.87 65.07 63.42 62.47 61.02 60.57 61.55 63.63 63.33 60.38 59.95 60.36 59.86 59.94 59.83 60.03 58.97 58.20 58.41 57.79 57.72 56.94 56.43
46.15 47.27 43.98 46.99 49.19 48.00 47.78 43.96 50.25 54.92 57.02 58.97 60.27 61.05 61.17 60.61 60.97 61.08 61.88 62.18 63.05 64.65 65.98 66.32 65.76 65.75 65.54 62.52 60.36 61.03 60.52 60.99 59.70 58.99 58.63 58.14 57.87 58.07 57.88 58.51 59.03 57.89 57.45 57.06 56.86 56.02 55.23 55.05 54.76
45.36 41.71 43.34 44.29 49.47 48.56 47.82 45.09 50.19 55.69 56.85 56.83 58.68 59.78 59.81 59.26 59.78 61.20 62.05 62.48 63.21 65.23 66.28 65.94 66.01 65.65 64.80 62.20 59.25 58.06 60.74 58.10 57.78 58.05 57.41 57.26 57.20 57.56 59.03 57.81 57.20 56.97 56.46 55.88 55.01 54.43 53.59 52.59 52.53
41.43 41.61 43.67 43.28 47.92 47.88 47.03 47.91 50.34 54.76 56.26 56.10 57.39 58.37 58.76 58.80 58.55 60.15 61.82 63.40 64.81 65.80 66.45 66.13 64.30 64.12 64.44 63.63 60.25 58.23 58.25 58.83 59.58 58.82 57.66 56.97 56.92 56.54 57.53 56.60 55.74 55.13 54.33 53.81 53.47 52.89 53.08 51.83 51.45
45.51 44.56 43.62 46.02 48.80 48.85 47.62 48.03 49.46 53.09 55.63 55.90 56.75 57.44 58.07 58.41 59.21 61.26 62.22 63.95 64.53 65.02 64.92 65.21 64.17 64.33 64.02 62.57 60.46 58.47 58.33 59.22 58.00 57.31 56.01 55.61 55.43 54.86 54.99 54.86 54.40 54.41 53.34 52.92 52.99 51.91 51.09 50.34 51.22
45.66 44.13 44.80 46.00 48.05 49.19 48.66 48.13 49.86 51.09 52.95 55.37 56.48 57.26 57.78 57.64 58.89 60.04 62.35 63.55 64.21 64.37 64.52 64.22 63.78 63.84 63.58 62.15 60.89 61.18 60.42 59.23 56.67 56.22 55.20 54.58 54.13 53.76 53.44 53.95 53.17 53.11 52.13 52.40 51.91 50.75 48.96 48.83 49.99
45.87 45.16 45.73 44.97 47.25 48.88 48.85 46.75 48.51 50.20 51.77 52.88 54.93 56.60 57.26 57.75 58.16 59.94 60.91 61.79 62.55 62.26 62.62 62.06 61.40 60.79 60.58 60.48 59.90 59.16 58.42 56.79 56.05 55.33 55.11 53.92 53.75 53.59 53.34 53.27 52.89 52.48 51.64 50.01 50.61 49.95 48.65 46.51 47.92
44.32 47.00 47.19 46.22 45.25 41.85 48.19 40.67 47.25 49.39 49.95 52.11 53.54 55.44 56.44 57.66 58.51 57.88 57.77 58.90 58.83 58.87 60.09 59.70 59.14 58.21 57.25 56.91 57.34 56.98 56.46 55.76 54.44 55.08 54.52 54.08 53.34 53.27 53.06 52.51 52.27 51.57 50.73 50.00 49.81 48.95 47.72 46.01 43.76
46.04 48.70 48.44 47.15 46.23 44.90 44.56 42.83 46.28 49.55 48.21 50.71 53.19 54.78 55.73 56.05 55.94 55.17 55.74 56.00 56.08 56.83 56.83 56.76 56.17 55.83 56.43 56.61 56.80 55.71 54.09 53.64 53.56 54.00 52.31 53.05 53.45 53.46 52.46 51.92 51.29 50.63 50.09 49.76 48.86 47.46 45.98 45.88 44.31
49.43 48.16 47.43 47.18 46.13 39.81 43.71 43.31 44.16 47.17 49.31 51.27 53.29 53.49 54.40 54.63 54.22 54.07 54.61 54.65 54.85 55.76 55.86 55.88 54.87 54.44 54.81 54.73 54.48 53.84 52.35 51.53 51.36 50.73 49.88 49.26 48.73 48.47 48.67 48.37 50.17 50.45 49.75 48.84 47.61 46.86 45.70 44.64 43.46
49.08 46.53 40.21 38.16 38.68 37.72 43.35 42.12 44.76 49.10 50.65 53.26 52.96 52.85 53.69 53.96 53.59 53.34 53.23 53.69 54.03 54.35 54.23 54.01 53.49 52.29 53.08 52.97 52.19 51.65 50.63 48.88 47.14 46.09 45.30 44.78 44.60 44.96 45.85 47.01 47.81 48.62 48.60 47.48 46.79 45.05 44.66 43.39 41.85
47.41 46.66 40.95 31.99 34.68 38.58 42.84 39.49 45.64 49.36 51.67 54.40 54.78 53.73 53.78 53.62 53.92 53.79 53.76 53.64 53.50 52.85 52.92 53.21 52.42 51.22 50.88 49.71 48.27 47.97 46.23 46.15 45.61 45.26 45.08 44.55 44.21 44.51 46.15 47.26 48.00 47.96 47.37 45.93 44.43 45.41 44.25 43.09 42.01
45.02 43.39 46.99 40.73 39.33 38.81 41.77 44.85 48.59 48.67 49.47 51.84 53.14 52.89 52.61 53.42 53.70 53.40 52.84 52.50 52.24 52.38 52.53 51.72 50.02 48.52 47.98 47.76 45.74 45.14 46.45 45.60 45.21 45.52 45.64 44.77 44.79 44.25 45.80 47.64 47.57 46.38 45.87 44.88 45.45 44.28 42.87 42.39 41.61
47.22 47.99 41.64 43.18 33.25 31.63 39.07 40.09 42.22 45.78 47.26 50.08 51.34 51.75 52.58 53.65 53.47 52.79 52.13 51.72 52.11 51.97 50.34 49.95 48.92 47.64 46.90 45.12 46.13 45.88 45.58 45.62 45.73 45.65 44.44 44.13 44.50 44.69 45.21 46.32 46.03 45.61 44.25 43.91 44.25 42.81 42.25 40.96 40.69
44.55 43.90 42.55 43.51 40.90 34.69 33.17 39.20 47.48 47.19 49.40 49.48 51.34 52.14 53.14 53.30 52.93 51.97 51.33 51.45 51.31 50.16 49.10 48.00 47.49 46.18 43.69 45.72 45.83 45.90 45.83 45.43 45.36 44.66 44.17 43.77 44.13 43.82 43.79 44.77 44.92 43.83 43.27 43.08 42.97 42.45 40.69 39.49 39.68
47.21 45.03 44.11 38.88 36.08 38.89 38.34 38.94 46.99 48.59 49.67 51.36 51.85 52.46 53.82 53.67 53.05 51.57 50.34 50.18 49.39 48.22 47.55 46.86 46.48 45.85 45.72 45.34 44.90 45.36 45.67 45.18 44.23 44.20 43.69 43.80 43.31 43.61 43.20 43.16 42.97 43.09 42.76 42.51 42.09 41.03 39.78 39.11 38.74

GFSSGP_sfc_wetblb_015.txt.gz
Wetbulb
62.94 63.00 60.00 54.98 49.48 50.18 47.97 50.14 53.84 56.75 57.98 62.38 63.33 61.48 60.24 61.31 60.09 55.86 68.46 70.61 70.99 71.11 71.05 70.49 71.04 71.39 71.46 71.35 71.67 71.91 71.61 70.87 70.26 69.52 68.91 68.18 67.76 67.83 67.47 67.54 67.71 66.40 65.34 64.75 64.35 63.67 63.47 64.28 64.29
63.86 58.53 55.46 53.92 47.51 45.80 47.87 52.13 50.70 59.13 58.84 62.08 61.69 61.14 59.68 59.11 65.68 66.54 67.29 70.22 71.47 71.24 69.81 69.43 70.67 70.88 71.32 71.27 71.35 71.20 71.21 70.43 69.60 68.74 68.13 67.37 67.17 66.73 66.54 66.37 66.76 65.41 64.68 63.93 63.39 63.03 63.78 63.71 63.39
58.67 56.13 52.05 49.75 48.84 46.23 47.64 51.67 58.52 59.51 61.44 60.39 57.85 60.07 57.80 58.63 65.01 67.21 70.24 70.67 71.41 71.02 70.55 69.86 70.16 70.11 70.56 70.62 70.61 70.98 70.78 70.64 69.80 69.01 67.73 67.05 66.43 65.91 65.66 65.39 65.16 65.14 64.86 64.55 63.92 63.74 63.75 63.95 64.14
55.38 53.57 53.70 48.79 47.77 50.63 49.65 56.24 57.60 58.46 59.29 61.09 60.45 55.61 58.19 62.52 63.09 68.35 71.30 70.48 71.02 70.32 71.14 68.82 69.37 69.76 70.07 70.24 70.46 70.38 70.78 70.01 69.72 69.05 67.40 66.39 65.41 64.76 64.50 64.67 65.07 65.13 64.68 64.35 63.91 63.77 63.83 64.09 64.57
55.44 53.08 47.66 47.46 48.75 51.54 51.53 57.84 58.49 56.12 56.66 58.85 59.68 55.44 55.93 61.61 65.67 68.55 70.31 70.62 69.35 68.73 69.57 69.20 68.27 68.86 69.23 69.52 70.21 70.52 70.00 69.80 69.18 67.95 66.97 65.80 64.33 63.83 64.08 64.49 64.87 64.87 64.48 64.30 64.17 64.16 64.21 64.35 64.41
50.25 52.30 46.60 45.80 48.99 50.61 52.43 58.57 59.39 57.02 57.16 57.47 58.04 57.85 59.79 66.39 66.73 67.88 68.31 64.94 67.95 69.20 69.84 69.13 68.42 68.81 68.07 69.57 69.74 69.53 69.30 69.03 68.51 67.68 66.53 65.07 64.54 64.35 64.13 64.21 64.25 64.38 64.35 64.47 64.36 64.48 64.69 64.73 64.57
49.43 49.05 46.51 48.53 48.57 51.25 53.37 60.26 57.16 56.46 53.26 56.10 59.69 57.72 62.67 65.31 68.68 69.28 65.67 63.05 65.45 67.87 69.45 70.04 69.59 68.88 68.34 68.35 68.20 68.15 68.32 68.08 67.83 67.07 66.09 64.78 64.69 64.98 64.59 64.55 64.69 64.54 64.47 64.74 64.79 64.64 65.01 64.95 64.62
51.73 50.87 47.20 48.91 49.03 48.83 57.02 57.27 59.07 57.13 56.66 57.97 61.67 57.06 59.08 65.87 69.35 69.61 68.42 67.72 68.32 68.40 69.91 70.21 69.81 70.03 70.13 69.76 67.73 67.65 67.62 67.46 67.12 66.24 65.19 64.90 65.04 64.45 64.00 64.28 64.83 64.81 64.85 65.20 65.62 65.63 65.49 65.09 65.33
54.41 47.90 45.81 48.30 51.83 54.79 56.87 54.81 58.17 59.30 57.26 59.45 61.87 62.39 64.85 67.91 68.80 68.28 67.93 67.89 68.23 68.74 69.31 69.57 69.53 69.33 69.39 69.04 68.17 67.41 67.48 66.99 66.39 66.06 64.95 64.29 66.04 66.02 65.39 64.37 64.52 64.85 64.62 64.57 64.74 64.19 64.28 64.56 64.72
49.87 46.64 48.07 54.06 53.08 55.09 56.06 55.25 55.98 55.11 56.02 58.34 60.83 65.27 67.50 67.76 67.08 65.71 66.38 66.30 66.60 66.99 67.50 69.17 69.00 68.92 68.80 66.95 67.78 67.01 65.52 65.85 66.48 67.03 66.61 66.61 67.03 67.00 64.10 64.40 64.45 64.39 64.12 64.68 64.16 63.57 63.79 63.65 62.99
50.25 48.31 51.73 54.74 55.90 56.62 54.94 54.21 57.11 54.34 51.63 58.49 59.94 62.92 65.57 65.90 65.32 65.74 65.63 66.21 66.41 67.72 67.24 68.23 69.46 69.58 67.38 66.56 66.11 65.39 65.41 66.38 67.39 67.78 67.36 67.49 67.12 67.71 66.50 65.57 66.04 66.17 63.41 64.72 63.97 63.95 63.22 63.21 62.69
48.94 51.07 52.77 54.96 55.04 53.74 52.95 55.55 56.02 52.38 50.52 55.71 63.48 64.80 63.99 64.72 64.57 64.79 64.10 64.08 65.11 66.43 67.48 67.20 67.53 68.88 67.43 66.11 65.17 65.18 65.69 66.66 66.57 67.35 67.79 67.68 66.53 66.81 66.02 64.84 65.22 65.52 64.65 63.93 63.65 62.89 63.17 62.44 61.52
49.76 51.62 51.67 53.91 55.51 55.04 55.96 54.33 54.86 56.20 59.23 62.68 65.11 64.09 63.45 64.09 64.01 63.69 63.76 64.27 64.82 64.53 66.17 66.70 67.65 67.18 66.66 65.74 65.83 66.81 66.90 66.82 66.91 66.89 65.88 66.05 65.90 65.36 64.53 64.45 64.48 64.01 63.40 62.98 62.47 61.87 60.73 59.65 59.83
51.43 51.49 50.41 52.69 53.35 54.25 53.85 53.79 53.95 56.61 60.35 61.51 62.41 61.03 61.62 62.06 62.10 62.25 62.46 62.92 63.59 64.51 65.84 66.74 66.47 66.72 66.04 65.99 67.12 65.67 64.77 64.36 63.70 64.13 64.56 65.34 65.23 64.54 62.19 62.10 62.49 61.58 62.04 60.86 60.11 59.05 58.24 58.01 58.69
50.38 47.29 49.75 51.57 52.44 52.44 55.08 48.76 51.65 57.82 59.57 59.28 59.58 60.44 61.17 61.34 61.68 61.26 61.91 62.48 63.88 65.31 66.73 66.42 66.79 66.45 66.12 66.82 64.44 62.96 61.13 61.85 61.58 62.73 64.31 63.76 63.72 62.26 61.13 60.63 59.80 58.56 60.39 59.71 59.14 58.88 57.87 56.81 56.61
47.66 48.49 45.43 49.91 52.20 52.52 52.11 45.28 52.60 57.20 58.42 57.93 59.42 60.41 60.89 61.33 61.48 61.97 62.55 62.45 64.12 65.96 67.12 67.21 66.05 66.38 66.75 65.32 63.37 61.72 62.15 62.34 60.49 59.49 59.80 59.24 59.59 59.69 59.07 58.25 59.08 58.90 58.08 57.62 57.12 56.32 55.35 54.73 54.39
47.00 41.97 44.32 46.53 51.41 51.45 49.59 46.56 53.38 56.72 57.58 57.49 58.91 60.22 60.49 60.72 61.45 62.78 63.58 63.51 63.53 65.56 67.28 66.78 66.81 66.38 65.52 64.61 63.57 64.42 63.66 62.93 61.64 60.59 60.07 59.46 58.66 59.05 59.42 58.65 57.87 58.05 57.07 56.62 55.76 55.08 54.64 53.40 53.04
42.49 43.46 45.13 45.32 48.75 49.12 46.64 48.24 52.41 55.42 55.61 57.19 58.27 59.65 59.90 60.13 60.98 62.98 63.58 64.04 64.60 65.93 67.56 67.38 66.69 65.64 64.55 63.52 64.28 64.44 63.36 61.97 61.33 61.08 59.81 59.07 58.37 57.86 58.25 58.00 56.99 56.55 55.71 55.27 55.09 54.23 54.12 52.97 52.15
46.79 45.02 43.98 46.48 48.59 46.99 46.43 48.51 49.91 54.69 55.21 55.48 56.76 58.35 59.33 60.18 62.07 63.12 64.12 65.25 65.34 66.52 66.80 64.62 64.06 64.19 64.32 64.23 63.22 61.08 59.99 60.53 60.29 59.32 58.18 57.74 57.20 56.54 56.47 56.35 56.16 55.95 54.64 54.11 54.13 53.09 51.40 49.43 50.68
45.93 44.45 45.06 47.34 48.76 49.19 47.52 47.93 51.05 53.47 54.46 56.12 56.43 57.10 58.32 59.90 60.77 62.28 63.85 65.12 65.38 65.60 65.83 63.94 64.62 64.40 64.97 63.92 62.19 61.49 61.32 60.76 58.82 57.96 57.35 56.68 56.38 56.01 55.47 55.35 54.73 54.59 53.23 53.00 52.17 51.12 49.24 48.78 49.28
46.22 44.66 45.80 45.40 48.73 50.07 48.59 47.71 49.87 52.46 54.64 56.43 57.73 58.57 59.00 59.65 60.21 61.53 63.02 64.12 64.52 64.23 64.63 64.65 64.48 64.34 63.17 62.21 61.91 61.63 60.41 58.27 57.06 56.67 56.23 55.86 55.70 55.15 54.84 54.59 54.07 53.61 52.46 50.14 50.89 50.22 49.26 46.22 47.54
44.32 48.94 47.93 46.41 46.40 42.39 49.04 40.11 48.00 51.11 51.62 53.25 55.50 57.52 58.53 59.47 60.87 61.95 62.40 62.73 63.22 63.41 63.86 62.89 62.07 61.16 61.14 60.79 59.28 58.49 58.41 56.19 56.09 55.98 55.79 55.55 55.35 54.78 54.08 53.04 52.68 52.04 51.07 49.94 49.53 49.45 48.38 47.16 44.37
47.33 50.14 48.88 48.18 46.68 46.14 45.82 43.09 42.68 51.12 49.53 51.68 54.21 56.05 57.88 59.68 60.77 59.87 59.99 60.12 60.53 60.82 60.64 60.48 59.30 58.11 58.49 58.89 58.84 57.77 56.06 55.52 55.05 55.52 53.27 53.62 52.67 51.00 49.66 49.06 48.97 49.40 50.06 50.09 49.74 49.01 47.90 47.09 45.31
51.01 49.08 48.83 48.80 46.79 40.72 44.06 43.84 44.15 48.55 50.39 52.53 54.78 56.60 57.84 58.74 58.53 58.07 58.35 58.11 57.85 58.69 58.48 58.14 57.42 57.09 57.54 57.30 56.80 55.65 53.96 52.63 51.51 49.52 48.03 47.48 47.26 47.45 47.78 47.40 48.04 48.23 48.94 49.31 49.07 48.51 47.45 46.15 44.87
49.98 47.14 40.14 38.83 39.66 38.14 45.80 43.81 45.51 49.29 52.45 53.90 54.68 56.06 57.26 57.76 56.55 55.77 55.45 55.71 56.36 56.74 57.12 56.87 56.28 55.12 55.66 54.82 53.53 52.44 50.36 48.89 47.20 46.67 45.97 45.71 45.51 45.70 46.31 46.82 47.46 47.68 48.15 48.68 48.02 46.66 45.51 45.20 43.29
47.97 46.98 40.48 33.24 35.69 39.13 45.90 40.64 45.10 52.08 52.95 54.31 56.63 56.58 56.94 56.13 55.51 55.10 55.54 56.01 56.01 56.10 56.11 55.75 55.23 54.08 53.10 51.37 50.00 49.02 47.63 46.04 46.90 46.62 46.39 45.79 45.23 45.47 46.19 46.50 47.69 48.25 48.10 47.29 46.48 45.91 45.65 44.64 43.36
47.21 44.25 48.89 43.47 43.56 39.79 42.05 45.11 49.76 51.45 51.38 53.22 55.48 55.68 55.34 55.28 55.11 55.25 55.78 56.33 56.15 55.60 55.24 55.44 54.35 52.11 50.54 49.67 48.73 47.62 47.61 46.82 47.00 46.59 46.72 45.53 45.64 44.88 45.51 46.17 46.56 47.24 47.04 45.92 46.25 44.66 44.27 44.06 43.12
48.86 50.14 42.52 43.31 34.28 33.29 39.83 41.27 42.41 47.85 49.06 51.72 54.01 54.47 54.94 55.41 55.14 55.38 55.70 55.48 55.66 55.41 55.35 54.56 52.77 50.52 50.21 48.19 47.58 46.99 46.84 47.43 47.59 47.31 45.51 45.00 45.20 45.15 44.95 44.76 45.09 46.01 46.00 46.39 45.08 44.36 43.95 42.24 42.19
46.93 45.04 45.37 45.57 43.85 36.44 34.46 40.31 48.06 46.72 49.97 51.12 53.48 55.10 55.34 55.31 55.18 55.46 55.14 55.00 54.95 55.15 53.54 52.16 50.93 50.32 48.17 47.79 47.11 47.37 46.93 47.07 47.21 46.38 45.60 45.07 44.90 44.61 44.09 44.18 43.91 44.15 44.52 44.61 43.93 42.80 42.54 41.49 40.83
49.89 47.58 47.02 40.48 38.70 40.99 40.29 39.85 48.93 49.90 50.96 52.41 53.15 54.76 55.87 56.17 55.98 56.05 55.13 54.53 54.02 53.01 51.87 50.61 50.82 49.11 48.43 47.71 47.06 47.19 47.32 46.67 45.99 45.53 45.21 45.20 44.20 44.25 43.81 43.72 43.50 43.22 42.93 42.93 42.08 41.43 41.65 40.74 39.49

GFSSGP_sfc_wetblb_018.txt.gz
Wetbulb
61.25 60.01 60.36 56.62 45.68 47.82 45.02 47.35 51.90 54.70 58.38 61.57 62.07 60.46 59.84 61.59 59.63 54.60 68.74 70.05 68.87 67.93 69.09 70.02 70.98 71.19 71.18 71.41 71.94 71.70 71.62 71.14 70.29 69.19 69.12 68.68 67.82 67.41 67.92 68.05 67.31 67.04 65.16 64.34 63.97 64.79 64.10 63.85 63.60
59.29 60.10 58.72 50.55 43.72 42.42 44.89 50.53 52.78 57.87 60.21 61.57 61.31 60.61 59.66 58.82 64.97 64.98 67.28 70.21 69.55 68.34 68.30 69.39 70.66 70.90 71.24 71.43 71.54 71.41 71.04 70.31 69.68 68.68 67.92 67.99 67.01 66.56 66.58 67.05 66.81 66.85 65.29 64.60 64.68 64.73 64.45 64.07 63.67
61.36 60.10 48.95 46.78 45.13 43.32 45.27 51.31 54.60 59.24 60.29 59.70 57.74 60.50 58.25 59.87 65.30 65.85 69.45 70.33 70.27 68.23 68.79 69.81 69.93 69.79 70.53 70.69 70.51 70.61 70.44 69.80 69.08 68.51 67.18 66.35 65.86 65.54 65.49 67.00 66.95 66.42 65.23 65.08 64.88 64.84 64.71 64.74 65.54
55.70 52.53 50.02 45.36 44.31 48.04 49.10 53.86 58.22 58.21 56.90 60.45 59.27 55.48 59.13 63.32 65.22 67.87 69.54 69.85 69.90 69.38 68.96 68.94 68.62 68.71 69.64 69.91 70.70 70.41 69.91 69.15 68.72 68.18 67.66 65.74 64.90 64.78 65.67 66.93 66.74 65.55 65.32 65.21 65.13 65.07 64.94 65.72 65.56
55.94 50.74 44.19 43.96 45.59 48.94 52.62 57.46 58.81 54.72 54.06 56.63 57.43 53.84 55.74 62.88 66.89 69.31 68.67 69.89 68.82 67.27 67.74 68.08 67.41 68.59 69.38 70.35 70.48 69.82 69.31 68.75 68.25 67.82 66.64 65.94 64.59 64.87 65.56 66.46 66.30 65.34 65.07 65.02 64.91 65.01 65.53 65.71 65.53
49.10 49.58 43.10 42.42 45.40 50.31 53.77 58.18 57.60 54.91 54.77 56.55 54.72 55.62 58.56 64.56 65.92 67.28 68.30 68.44 68.48 67.49 68.30 67.34 67.69 68.72 69.18 69.47 69.38 68.91 68.47 68.23 67.83 67.07 66.27 65.92 65.84 65.98 66.20 66.12 66.15 66.10 66.07 66.10 65.74 65.93 65.85 65.77 65.46
48.85 46.42 43.71 45.49 46.40 49.89 55.81 59.30 56.10 55.03 55.91 55.31 58.46 53.88 59.30 63.44 67.27 65.15 64.65 66.12 65.91 67.54 67.34 67.01 67.78 68.45 68.23 67.72 67.72 67.51 67.61 67.47 67.34 66.78 65.99 65.89 65.87 65.84 66.27 66.38 66.20 66.15 66.07 66.13 66.32 66.25 66.02 66.11 65.84
50.27 48.47 44.94 46.39 45.83 49.35 55.59 55.63 57.35 55.25 54.31 59.90 57.81 51.80 57.12 63.61 65.04 62.69 63.02 63.09 64.44 65.60 66.92 66.47 66.99 68.61 67.69 66.88 66.80 66.50 66.65 66.51 66.36 65.72 65.13 64.74 65.12 65.28 65.38 65.80 65.91 66.04 65.65 65.70 65.91 65.84 65.39 65.55 65.45
52.16 45.06 43.73 46.03 49.00 48.18 53.90 54.06 57.49 60.15 57.28 56.35 58.03 59.55 64.39 66.91 65.88 62.23 61.41 62.21 63.02 62.09 66.00 67.20 67.76 67.73 67.97 66.92 66.65 66.62 66.81 66.15 65.66 64.72 64.44 63.17 63.68 63.79 64.25 64.80 65.18 65.21 64.78 64.79 65.17 64.33 64.01 64.12 63.88
48.61 45.31 46.14 53.96 53.51 49.33 51.48 53.10 55.43 55.28 57.02 57.57 56.44 57.23 65.60 66.16 65.26 63.93 63.48 61.42 61.31 61.69 65.60 66.71 67.33 67.45 67.50 66.38 65.58 64.34 64.10 63.48 64.66 64.40 63.29 64.85 65.11 63.61 62.96 64.69 64.64 65.41 64.65 64.33 64.85 64.36 63.92 63.63 59.92
48.98 45.34 49.24 52.43 53.45 54.16 52.91 54.20 55.22 53.25 52.58 56.21 56.88 61.62 63.77 63.81 64.38 63.49 63.56 63.77 63.98 65.37 65.99 66.74 67.30 67.02 65.54 64.51 65.03 63.38 64.65 65.35 65.82 65.87 65.98 65.89 65.68 65.58 64.22 64.53 63.49 63.59 63.97 63.33 62.61 62.15 61.77 60.29 59.50
46.88 49.20 50.78 52.91 55.50 54.52 54.09 55.57 53.62 52.14 52.70 55.33 58.82 62.41 63.63 63.15 63.47 63.90 63.31 64.48 64.80 65.39 65.77 66.74 66.86 67.69 64.90 64.75 64.14 64.49 65.06 65.89 65.94 66.42 65.42 66.14 65.56 65.18 64.27 63.58 62.67 62.25 61.17 61.47 60.80 59.79 59.88 57.83 57.83
47.96 50.32 51.78 55.09 54.09 54.93 55.20 53.37 53.22 52.58 55.68 57.40 58.33 59.98 62.32 62.70 61.99 62.36 62.62 63.58 64.65 64.46 65.44 65.79 67.10 65.93 65.34 64.59 65.75 65.46 64.60 63.96 64.50 64.20 64.85 64.47 63.84 62.99 62.12 61.28 60.94 61.46 59.68 58.68 57.53 57.08 56.32 55.59 56.05
50.37 51.12 51.12 53.36 53.36 54.75 52.63 52.71 54.23 54.45 56.28 55.48 59.15 60.32 61.20 61.11 60.36 61.39 61.57 62.36 62.59 64.31 64.34 65.16 65.03 65.13 65.54 65.82 64.82 63.17 62.67 62.02 62.07 62.75 63.62 63.99 63.67 62.43 60.60 60.33 59.06 58.03 58.14 56.73 56.03 55.72 55.13 54.61 54.34
51.05 47.68 49.42 51.26 52.28 53.21 53.76 51.14 50.84 55.79 57.03 58.53 57.85 59.04 59.43 59.99 60.28 60.17 61.97 61.98 62.66 64.12 64.74 64.83 64.90 65.04 65.00 64.99 63.65 61.76 61.58 61.88 61.02 61.67 62.04 61.77 61.88 60.46 59.42 57.83 56.91 55.66 56.91 56.19 55.33 54.21 53.60 52.60 52.65
47.48 48.21 43.94 49.05 51.10 52.72 52.66 44.91 51.64 57.34 56.55 55.93 56.84 57.67 58.20 58.91 59.34 60.82 62.05 62.40 63.38 64.39 64.22 64.99 64.91 64.89 65.51 63.87 62.46 62.41 61.88 61.40 60.68 59.44 59.32 58.91 58.89 58.26 56.99 55.91 56.92 55.83 55.50 54.69 53.46 52.60 51.53 50.67 50.47
46.26 41.18 43.65 46.57 51.22 50.85 49.84 45.96 51.58 56.61 56.25 55.41 57.03 56.90 58.41 58.88 59.45 61.01 61.69 62.07 63.69 64.99 65.16 64.47 65.43 65.16 64.29 63.05 62.85 62.97 62.52 61.61 60.29 59.83 58.79 58.27 57.53 57.66 56.49 55.43 55.45 54.60 54.05 53.59 53.12 51.58 50.81 49.57 48.52
41.09 41.95 44.13 44.45 47.80 49.57 47.08 47.22 51.07 53.90 55.33 56.14 56.69 57.72 58.33 58.77 59.59 61.57 62.19 62.81 62.65 65.77 65.92 65.09 65.27 64.80 63.76 63.04 63.22 63.48 62.60 61.24 60.30 59.43 57.70 57.74 56.34 56.59 55.53 55.61 53.71 53.47 52.74 51.79 51.49 50.53 50.29 48.93 46.31
46.34 44.61 43.65 46.06 49.00 47.29 46.06 47.03 49.73 52.67 54.05 55.00 56.17 57.24 57.77 58.62 60.96 62.57 63.87 64.50 65.50 65.83 65.45 64.71 63.04 63.19 63.26 62.36 61.77 61.37 59.14 58.99 58.73 56.90 56.91 56.32 55.34 55.13 54.03 53.59 53.55 52.93 51.06 50.88 50.11 48.31 46.45 45.98 46.26
46.07 44.39 43.68 46.25 47.37 46.61 45.66 46.18 48.58 51.82 52.81 54.74 55.51 56.83 57.82 58.88 60.24 61.55 63.04 64.28 65.15 65.16 65.08 64.16 63.14 62.63 63.60 63.67 61.71 60.02 59.22 58.96 56.88 56.14 55.37 55.24 54.95 54.08 53.73 52.88 51.71 51.54 50.19 49.22 48.33 46.54 45.37 44.93 45.06
45.42 44.64 44.84 44.28 46.26 46.25 47.17 44.54 46.86 50.34 53.25 54.34 55.61 56.67 57.73 58.69 59.19 60.87 62.13 63.39 64.61 62.74 63.83 62.97 63.23 63.49 64.12 61.62 60.70 60.02 57.84 56.30 54.68 54.61 53.84 53.71 54.01 53.39 52.69 52.19 50.98 49.99 48.73 46.90 46.56 45.67 45.18 42.49 42.85
43.36 48.68 47.33 45.92 44.91 40.27 47.47 38.55 45.95 48.56 49.78 52.25 54.41 55.68 56.79 58.37 59.89 61.02 61.95 62.07 62.23 62.08 63.94 63.93 63.74 62.89 60.82 60.73 59.23 57.81 55.26 53.28 54.15 53.94 53.52 53.07 53.64 52.27 49.44 48.52 47.74 47.01 48.03 46.74 46.40 46.43 44.46 43.34 40.31
45.71 48.97 47.88 47.07 44.49 44.13 42.45 40.86 43.83 47.95 46.79 50.52 53.77 55.93 57.39 59.18 59.78 60.40 61.82 62.31 62.94 63.21 62.68 61.24 60.06 59.39 59.07 58.41 58.22 56.40 54.23 53.75 53.20 51.85 50.42 49.30 47.75 47.88 46.98 46.24 45.94 45.30 45.12 45.72 46.08 45.69 43.74 42.56 41.42
51.02 48.56 48.46 46.68 45.09 37.07 41.51 40.09 42.29 43.81 46.18 50.76 53.16 55.22 57.00 58.24 59.70 60.67 61.13 60.82 59.85 60.08 59.30 58.41 56.71 56.61 57.47 56.56 55.09 53.60 51.01 49.50 47.16 46.13 44.95 45.71 45.71 45.13 45.78 45.87 44.78 45.46 45.18 44.91 45.54 44.84 43.69 42.29 41.71
48.09 45.02 38.55 35.68 36.57 36.76 45.24 41.62 43.40 48.32 50.60 51.07 52.17 54.66 57.01 58.85 58.71 58.13 57.11 56.73 57.44 56.89 56.63 56.55 55.82 54.90 55.18 53.94 52.29 50.18 48.27 47.42 45.43 44.47 45.13 44.64 44.08 43.15 43.74 43.82 43.92 44.33 45.18 45.66 44.97 43.45 42.24 42.12 40.81
47.01 44.38 39.81 29.18 30.44 37.76 44.11 39.29 44.05 51.91 53.41 52.50 55.66 56.40 57.38 57.49 57.28 56.25 55.71 55.55 55.48 55.60 55.67 55.50 54.56 53.68 53.11 50.80 48.77 48.35 47.69 45.76 45.77 45.67 44.46 43.84 43.27 42.62 43.28 43.29 43.62 44.39 45.42 44.62 43.42 42.65 42.19 41.92 40.40
44.89 43.59 47.86 41.84 39.02 39.21 40.81 43.50 49.07 51.04 50.97 51.40 54.88 55.81 55.88 56.26 55.55 54.88 54.88 55.44 55.28 55.29 55.15 54.77 54.04 52.75 50.59 49.24 48.30 47.13 46.55 46.28 46.00 45.84 44.61 43.36 43.23 43.17 42.74 42.96 42.71 43.20 43.80 43.94 43.27 41.91 41.49 41.38 40.53
47.69 48.99 42.55 43.48 33.91 32.01 38.24 40.25 42.14 47.31 48.64 50.54 53.15 54.47 55.36 56.15 55.06 54.60 54.67 55.31 55.54 55.43 55.03 55.24 54.26 50.80 49.11 48.35 47.34 46.93 46.68 47.13 46.61 45.10 43.80 42.76 42.86 42.93 42.79 42.46 42.28 41.93 42.32 43.81 43.10 41.71 41.46 40.21 38.69
45.98 43.73 44.86 43.94 44.05 36.94 34.40 38.40 47.28 47.09 49.34 50.55 52.29 55.24 55.20 55.17 54.76 54.59 54.78 55.54 55.58 55.18 54.46 54.36 52.24 49.42 48.48 47.39 46.97 46.38 46.69 46.93 46.17 44.65 43.95 42.88 42.81 42.60 42.23 42.16 41.88 41.50 41.13 41.27 40.26 39.76 39.45 38.68 38.28
48.58 46.87 45.30 41.52 38.42 42.29 40.15 38.84 49.33 49.42 49.77 52.00 52.35 54.47 55.92 55.76 55.49 55.00 55.17 54.88 54.17 53.99 53.89 52.21 50.49 49.25 48.16 47.47 46.90 46.44 47.19 46.72 44.94 44.33 43.66 43.28 42.35 42.69 41.99 41.71 41.67 41.79 41.00 41.12 39.69 39.02 39.22 38.43 37.07

GFSSGP_sfc_wetblb_021.txt.gz
Wetbulb
58.20 57.02 54.18 51.90 39.79 37.35 35.29 40.58 47.39 53.17 53.76 57.23 59.34 59.82 58.62 59.66 58.14 52.36 66.78 66.96 67.85 68.64 70.02 70.47 70.51 70.98 71.48 71.98 71.80 71.39 71.04 70.27 69.54 69.15 69.08 68.59 67.67 66.85 67.40 67.62 67.05 66.92 65.73 65.52 65.28 65.09 64.71 64.65 64.43
54.80 54.80 52.03 47.66 34.97 30.32 35.47 45.00 51.90 54.80 57.46 58.04 57.54 58.44 58.19 58.32 63.51 64.32 65.23 66.86 67.11 68.46 69.04 69.52 70.58 70.76 71.44 71.39 71.14 70.55 70.10 69.47 69.15 68.71 68.13 67.91 66.73 66.16 66.74 67.57 67.16 66.88 65.83 65.70 65.78 65.54 65.31 64.75 64.83
57.88 59.12 46.79 38.60 34.33 33.42 36.29 47.92 53.53 55.70 57.02 56.85 54.87 55.88 57.36 59.81 64.42 65.30 66.81 67.16 67.05 67.44 68.68 69.80 69.93 70.07 70.84 70.95 70.54 69.84 69.52 68.91 68.47 68.06 67.56 66.57 65.97 66.51 66.62 67.33 66.94 66.83 65.69 65.76 65.67 65.44 65.06 64.83 65.70
54.03 47.71 43.91 36.69 36.05 41.48 42.91 49.21 55.20 55.00 55.72 57.43 55.43 51.92 56.15 62.97 65.35 67.57 67.94 67.02 66.68 67.56 68.56 68.20 68.33 68.76 70.21 70.65 70.18 69.49 68.94 68.21 67.63 67.11 67.03 65.97 66.08 66.36 66.51 67.06 66.70 65.81 65.66 65.63 65.34 65.11 65.02 65.65 65.59
51.35 45.92 35.66 35.17 39.37 44.76 49.47 54.82 54.45 52.39 53.26 55.38 55.49 51.38 53.79 61.99 67.08 67.39 67.44 67.63 67.16 67.12 67.36 67.20 67.54 68.25 69.28 70.23 69.79 69.00 68.55 67.97 67.11 66.69 66.41 66.56 66.07 65.74 66.33 66.91 66.50 65.40 65.33 65.33 65.28 65.19 65.80 65.75 65.62
45.54 42.90 34.93 34.46 39.45 47.81 53.77 54.02 54.38 52.94 54.16 55.85 55.07 54.56 56.27 64.69 64.92 66.09 66.94 66.47 66.95 65.96 66.45 67.19 68.42 68.13 68.88 69.04 68.63 67.96 67.61 67.30 66.58 66.52 66.42 66.62 66.68 66.69 66.86 66.79 66.72 66.25 66.08 66.09 65.83 65.74 65.58 65.73 65.77
43.49 40.46 36.91 38.30 40.92 48.13 52.41 56.22 54.18 53.01 53.57 53.81 57.11 52.14 57.63 60.43 63.18 64.92 65.80 66.27 63.92 63.25 63.88 66.58 67.28 67.88 67.85 67.09 67.00 66.80 67.01 66.79 66.07 66.04 66.09 65.95 65.94 66.13 66.68 66.71 66.64 66.23 66.04 65.90 66.13 65.91 65.28 65.19 65.08
44.91 41.36 37.68 40.13 41.13 46.21 52.45 54.53 55.98 54.18 50.59 57.34 54.69 49.63 54.06 60.93 62.34 62.89 63.31 63.96 64.39 62.93 62.53 63.83 67.01 66.27 66.29 65.49 66.02 65.86 65.76 65.36 65.09 65.22 65.02 64.76 65.32 65.93 66.12 65.90 65.97 65.69 65.11 65.16 65.55 64.59 64.51 64.73 64.20
45.06 36.77 36.45 40.16 47.55 47.53 52.46 52.03 57.02 57.42 53.20 53.91 55.04 58.78 59.93 61.25 62.02 60.82 60.52 61.82 63.03 62.08 61.83 62.46 66.11 65.56 65.21 64.50 65.44 65.63 66.10 65.12 64.52 64.49 64.08 63.25 61.76 62.23 63.84 64.32 64.95 64.82 63.98 64.19 64.62 64.16 63.82 63.60 62.82
42.72 36.55 39.47 50.27 51.58 49.71 51.23 52.79 53.43 53.17 52.86 51.34 52.11 58.39 61.21 61.07 60.60 58.53 59.11 59.15 60.56 59.14 61.36 64.06 65.14 65.79 64.92 64.50 63.29 63.03 64.02 62.94 61.68 61.04 61.42 60.72 61.43 61.26 63.09 63.69 64.38 64.20 64.04 63.78 63.73 63.73 63.89 63.02 57.46
43.26 41.30 48.78 50.36 52.45 51.63 50.09 52.08 54.37 51.34 50.50 51.50 53.19 57.11 60.13 60.19 58.81 58.16 58.94 59.60 59.71 61.83 63.45 64.45 65.01 65.80 63.97 62.90 62.34 61.67 60.92 61.95 62.87 62.55 62.53 62.42 63.15 62.32 62.49 62.21 62.17 61.96 62.64 59.98 61.20 59.37 57.82 55.28 54.87
41.71 46.54 50.47 51.71 53.96 52.84 51.94 53.39 52.02 50.75 54.06 55.00 56.49 59.40 60.63 60.51 59.34 57.47 57.92 59.72 60.59 62.81 64.12 65.13 65.82 65.03 62.69 63.63 61.21 61.25 62.98 63.42 64.41 63.22 62.98 63.03 62.10 60.62 59.80 59.15 58.61 58.47 57.87 56.15 55.74 55.19 54.49 53.77 54.37
44.93 46.32 52.28 52.44 52.83 52.68 54.54 51.42 51.88 50.31 52.95 56.91 58.83 58.87 60.55 60.74 61.13 60.46 61.28 62.07 63.52 63.41 63.85 64.01 64.65 61.91 61.54 62.38 63.51 63.07 62.00 61.85 61.46 61.78 62.11 61.71 60.41 59.53 58.81 58.36 57.67 55.85 55.79 53.69 53.00 53.58 52.92 52.42 52.09
47.94 47.19 52.61 52.79 52.31 52.48 50.10 51.30 51.64 52.18 54.55 56.10 57.16 58.08 59.87 58.21 58.81 62.31 61.96 62.16 62.77 63.23 62.65 63.21 62.97 60.91 63.43 62.08 61.03 60.22 59.32 59.50 60.19 60.75 61.00 61.31 60.30 58.38 57.14 55.62 54.38 53.88 53.82 53.35 52.39 50.97 50.56 49.55 49.77
48.71 45.71 46.69 49.97 52.16 51.70 50.31 47.15 48.99 52.97 54.62 55.56 56.78 58.79 59.25 57.37 57.74 59.39 61.76 61.91 62.59 62.90 63.15 62.04 60.85 62.18 62.63 60.33 59.68 59.22 59.27 58.82 58.35 58.37 59.47 59.18 58.25 56.48 55.71 53.65 53.35 52.60 51.94 51.16 50.37 50.17 49.82 49.19 50.14
44.30 43.72 40.39 46.91 51.12 51.66 48.80 42.90 49.61 53.21 53.11 53.97 54.26 55.65 56.84 56.42 56.65 59.10 59.59 61.81 61.70 61.90 61.40 61.94 62.87 62.33 60.96 59.78 59.23 59.21 59.69 57.82 56.21 55.75 55.41 56.00 56.25 55.57 53.46 53.08 51.16 50.77 51.32 50.81 49.78 49.17 48.52 48.00 46.98
43.22 36.75 41.49 44.53 49.29 49.55 47.13 41.75 51.21 53.62 54.18 53.56 50.99 52.16 53.66 53.85 55.60 57.25 58.55 60.81 61.76 61.94 61.89 60.93 60.93 61.43 60.27 60.11 59.57 60.04 59.35 56.91 55.73 55.84 54.62 53.94 54.37 54.23 52.80 51.70 50.51 50.61 50.20 49.66 49.12 48.04 47.63 45.94 44.52
38.13 39.51 40.56 42.06 45.37 46.84 42.13 41.88 49.93 52.70 52.79 53.41 53.08 52.16 52.44 53.30 54.80 56.79 57.13 59.38 62.02 61.89 61.66 61.74 62.20 60.85 60.65 59.81 59.46 59.82 58.25 56.74 56.58 54.90 53.22 52.99 52.61 52.49 51.85 51.10 50.36 49.74 48.72 48.01 46.88 45.96 45.20 44.91 43.18
44.28 41.41 40.43 42.23 45.98 44.64 43.53 43.48 46.61 49.93 50.01 50.45 52.03 52.35 52.95 54.69 56.63 57.55 58.07 57.80 61.80 61.82 61.84 62.30 60.92 60.63 60.34 58.62 58.33 57.95 55.46 55.01 52.23 51.82 52.07 51.65 51.55 51.67 50.06 49.35 49.02 48.54 47.44 46.15 46.23 44.22 43.05 42.64 42.73
44.02 42.90 41.00 43.97 45.26 42.50 41.84 42.15 45.72 49.56 49.10 50.89 52.12 51.82 53.77 54.38 56.27 58.07 58.81 59.18 62.38 61.81 61.39 61.36 61.45 60.80 60.29 60.01 60.27 57.32 54.81 53.35 51.50 51.48 50.88 51.07 50.65 50.21 50.65 48.75 48.00 47.36 46.35 45.19 43.92 42.85 41.51 42.01 41.19
44.79 42.19 41.78 41.45 42.20 40.36 41.76 39.23 42.17 47.34 49.48 52.74 52.61 51.32 52.94 54.91 56.17 57.56 58.95 58.66 61.17 61.02 60.91 60.78 60.58 60.79 60.72 60.59 56.06 54.15 52.16 50.82 49.82 49.04 48.79 49.94 50.87 50.12 47.88 46.17 44.41 44.16 44.81 43.59 42.68 42.31 41.42 39.31 39.87
40.71 46.64 45.44 44.50 40.84 34.90 42.67 32.74 42.24 44.67 46.21 48.86 51.59 52.97 54.70 56.27 57.30 58.36 58.72 58.77 60.13 60.16 59.87 61.00 61.11 61.05 61.54 58.06 54.86 52.68 50.34 48.52 49.00 49.54 49.04 46.73 45.57 44.63 44.46 44.00 43.16 41.99 41.85 41.05 42.65 44.49 41.56 40.00 37.67
43.54 46.52 45.19 45.29 41.10 41.16 41.02 37.59 38.73 45.05 43.81 46.59 47.26 49.79 50.86 55.97 56.68 57.36 58.17 59.43 60.10 60.79 60.74 60.30 60.08 57.74 55.51 54.85 54.13 51.53 49.48 48.26 46.15 44.50 42.63 42.33 43.14 43.46 43.14 43.24 41.70 41.10 41.98 41.43 41.65 41.98 40.95 40.35 38.91
49.01 46.12 45.00 43.46 39.61 30.94 39.58 38.48 37.01 41.47 45.59 47.68 49.52 51.83 53.11 54.14 55.51 56.90 59.28 60.10 59.98 58.50 57.33 55.86 53.24 52.35 51.49 50.74 49.38 48.09 46.47 42.43 41.63 40.69 40.31 40.64 41.34 41.58 41.53 41.76 41.13 41.28 41.71 41.51 41.89 40.66 40.18 39.69 39.28
46.35 40.27 32.89 30.47 30.11 28.69 42.34 39.49 39.51 45.89 47.97 49.10 50.35 50.67 51.04 54.91 55.43 56.03 55.26 54.05 53.36 52.88 52.98 51.20 51.43 50.48 49.62 47.11 44.63 43.47 42.93 41.72 40.37 39.62 40.03 39.93 39.50 39.27 38.94 40.32 39.72 39.89 41.53 42.57 41.70 40.34 40.06 39.41 38.19
43.27 41.22 32.88 27.51 28.05 33.43 41.46 37.31 41.31 48.44 50.74 51.03 52.06 50.97 52.37 53.55 54.47 53.62 53.01 52.43 51.70 51.15 50.69 50.25 50.38 49.12 48.27 45.59 44.00 42.79 42.13 41.15 41.20 40.89 40.49 40.10 39.30 38.73 39.25 39.53 39.68 40.08 40.88 41.92 41.10 40.43 39.82 39.76 38.29
42.94 39.16 44.45 37.35 38.20 33.40 37.93 41.61 46.51 47.72 47.62 49.84 48.89 49.30 51.39 51.82 51.17 51.72 51.32 51.67 50.90 50.59 50.74 49.37 49.21 47.84 45.32 43.51 42.47 42.35 42.28 42.00 41.64 41.51 41.07 39.58 39.36 40.74 39.47 39.08 39.17 39.43 39.11 40.69 40.88 39.68 39.36 38.94 38.47
44.74 45.52 37.00 36.36 28.11 26.38 32.96 35.01 37.65 44.01 45.73 47.73 47.57 49.11 51.03 51.59 50.62 51.21 51.12 51.26 51.80 51.56 50.99 49.48 48.53 46.52 44.67 43.28 42.83 42.60 41.90 42.46 42.07 41.54 40.82 40.05 39.47 39.41 39.09 38.66 38.86 38.68 38.68 38.60 40.38 39.60 39.63 37.65 36.28
41.92 39.60 40.54 39.88 35.07 28.43 25.68 31.59 41.39 43.37 45.32 45.77 48.87 51.49 52.00 51.75 50.60 50.52 50.34 51.82 52.06 51.56 50.22 49.56 46.86 44.48 43.03 42.79 42.65 42.15 41.96 43.64 42.91 43.36 40.00 40.98 39.30 39.83 38.88 39.27 38.67 38.60 38.66 38.02 36.85 36.36 37.18 36.28 36.19
44.48 43.22 42.60 30.14 31.92 31.45 28.86 31.73 43.73 43.80 45.23 46.71 47.03 51.84 52.22 52.44 51.21 50.49 50.57 51.18 51.14 50.69 50.19 49.34 45.00 44.43 43.66 43.05 43.17 42.33 43.14 44.42 43.12 41.64 41.61 39.45 39.11 39.53 39.07 39.05 38.99 39.12 38.33 36.79 36.16 36.48 37.09 36.93 35.95

GFSSGP_sfc_wetblb_024.txt.gz
Wetbulb
57.21 55.75 52.59 50.40 39.18 35.25 32.27 38.21 42.78 47.72 51.97 56.71 60.36 59.21 57.73 59.30 57.49 49.96 65.79 67.21 68.83 69.31 70.66 70.52 70.62 71.03 71.60 71.60 71.39 70.60 70.26 69.78 68.80 68.39 68.44 68.02 67.21 67.12 67.59 67.14 67.21 67.35 66.42 66.14 65.85 65.58 65.42 65.44 65.47
54.36 53.67 50.34 44.67 33.63 29.19 32.93 40.09 47.96 52.20 55.32 55.45 55.62 58.44 58.40 58.15 63.46 63.44 64.25 67.73 68.90 69.62 69.65 69.56 70.42 71.02 71.41 71.08 70.66 69.74 69.24 68.68 68.66 68.07 67.04 67.24 66.87 66.82 67.51 67.42 67.17 67.49 66.28 66.00 65.85 65.56 65.27 65.18 65.80
55.63 56.53 47.43 40.35 30.99 30.96 33.27 44.39 51.38 53.22 55.71 54.66 53.22 54.58 58.34 59.93 64.08 64.92 66.04 67.67 68.03 68.20 68.80 69.30 70.17 70.51 70.93 70.52 69.79 69.14 69.02 68.62 68.19 67.64 66.84 66.89 66.79 66.52 66.80 67.37 67.13 67.15 66.09 65.79 65.57 65.33 65.26 65.51 66.15
52.42 46.36 43.25 35.06 33.03 36.83 40.20 44.58 52.59 53.41 55.46 56.52 53.45 51.03 56.59 63.31 64.87 65.23 66.67 67.38 67.25 67.07 68.12 68.86 69.51 70.06 70.15 70.03 69.40 69.03 68.33 67.66 67.24 67.03 67.64 66.92 66.73 66.56 66.96 67.20 67.30 66.04 65.80 65.59 65.38 65.27 65.25 65.79 65.86
48.99 42.56 34.48 32.57 36.35 45.31 51.15 52.25 53.70 52.06 52.99 54.83 54.21 51.15 55.39 63.35 65.46 65.69 66.24 66.80 66.47 66.98 67.41 67.80 68.18 68.82 69.38 69.45 69.03 68.49 67.75 67.12 66.85 66.93 67.24 67.29 66.94 66.45 66.80 66.84 66.84 66.31 65.54 65.14 64.98 65.30 66.05 65.68 66.04
44.51 39.89 34.12 31.75 38.40 50.49 52.95 53.58 53.62 53.20 54.15 54.90 53.46 54.59 58.26 63.92 64.89 65.78 66.23 66.00 66.79 66.16 66.75 67.09 68.19 67.64 68.01 68.53 68.15 67.49 66.88 66.45 66.39 66.83 67.05 67.21 67.03 66.87 66.99 66.86 66.87 66.57 66.16 65.97 65.60 65.33 65.33 65.19 65.49
40.86 38.52 34.48 36.86 38.82 41.33 52.36 55.16 52.90 52.32 53.36 53.61 55.14 51.16 58.52 61.22 64.65 64.59 62.38 63.26 64.16 65.22 65.61 65.17 65.71 66.56 66.60 66.73 66.75 66.41 66.06 65.99 66.02 66.29 66.23 66.30 66.13 66.26 66.65 66.77 66.65 66.28 65.80 65.22 64.63 64.60 64.64 64.70 64.55
43.99 40.71 35.97 37.64 38.50 42.20 50.86 53.81 53.61 52.92 51.66 56.40 55.31 50.04 53.80 60.28 63.24 62.81 62.49 62.11 61.33 62.36 62.98 63.24 64.85 65.47 65.71 65.06 65.82 65.83 65.17 65.14 65.57 65.67 65.46 65.14 65.61 66.23 66.02 65.72 65.82 65.55 64.80 64.77 64.20 64.27 63.86 63.74 63.89
43.98 37.73 34.95 37.12 45.09 46.79 51.55 51.00 54.70 55.61 52.35 52.83 54.77 58.31 59.30 61.54 61.61 61.14 61.35 61.12 59.86 60.38 61.08 64.30 65.00 65.11 64.49 63.88 64.49 65.20 65.18 64.70 64.60 64.70 64.63 63.08 61.69 62.26 63.22 63.56 64.57 64.24 63.74 64.01 63.68 63.79 63.77 63.32 61.65
42.01 36.48 38.33 44.94 49.65 47.23 49.70 48.84 51.90 52.06 52.12 51.32 55.06 58.91 60.24 59.71 59.07 58.87 59.19 59.01 59.50 58.89 59.92 62.12 64.63 64.63 63.50 63.46 62.80 61.76 62.18 61.32 61.01 60.68 60.94 59.81 59.53 60.15 62.50 63.59 63.89 64.01 63.09 63.48 63.51 63.68 61.30 58.42 54.81
42.02 39.30 46.53 49.00 51.45 50.66 48.36 49.92 52.96 51.98 49.99 51.89 54.43 55.71 58.44 58.52 58.48 58.27 59.38 58.82 58.25 59.69 59.89 61.39 64.19 64.01 62.43 61.58 61.01 60.82 60.57 60.28 60.28 59.80 59.89 61.06 61.30 61.25 60.91 60.77 59.97 59.78 60.01 57.05 57.24 55.06 53.71 53.15 53.16
41.00 44.40 49.58 50.41 52.70 51.45 50.76 52.10 49.91 48.64 53.02 54.20 58.83 58.75 58.38 57.38 57.26 57.32 58.39 59.31 58.28 59.78 60.42 62.32 64.42 63.92 61.75 60.85 59.77 59.21 60.41 62.76 62.33 62.41 62.52 61.73 60.41 58.34 57.74 57.58 56.96 55.69 54.20 53.12 53.41 52.32 52.43 51.28 51.41
42.25 46.99 50.30 51.70 52.83 52.26 53.84 49.72 49.04 50.67 52.73 55.41 59.64 58.89 56.95 57.13 57.54 57.91 58.85 59.72 60.23 61.14 62.52 63.44 64.31 63.97 61.32 61.04 60.57 61.37 62.58 61.42 60.81 60.90 60.94 60.27 58.94 57.35 57.13 55.37 54.29 53.64 52.56 51.85 51.30 51.00 49.93 49.41 49.34
46.15 49.81 49.78 51.60 51.97 51.47 48.97 49.70 49.70 50.75 54.85 55.76 57.95 57.99 56.83 57.12 57.39 57.17 58.39 59.40 60.67 62.52 62.87 63.77 63.97 60.55 61.20 61.45 59.77 59.08 59.02 59.64 59.86 60.01 60.18 60.01 57.90 56.01 54.48 53.10 52.56 52.02 52.15 50.87 49.66 48.75 48.34 47.82 47.75
47.00 46.08 48.89 50.24 50.03 49.80 49.58 46.64 48.08 52.06 54.25 53.93 55.59 58.05 59.00 58.03 58.04 57.66 59.53 60.47 62.56 62.81 63.40 62.82 59.70 61.58 61.17 58.90 58.44 58.06 58.44 58.10 57.65 58.41 58.85 58.02 56.56 55.23 52.98 52.46 51.04 50.18 50.27 49.22 48.91 48.26 48.06 47.41 47.50
42.85 44.33 40.26 48.05 49.90 50.62 47.22 40.62 47.39 52.30 53.68 53.22 55.01 56.27 56.24 59.28 59.11 60.11 60.99 62.34 62.50 62.32 61.74 61.56 62.82 60.56 59.12 58.38 57.61 58.16 57.24 56.11 55.29 55.27 55.78 55.73 55.64 53.85 52.45 50.29 49.39 49.34 49.62 48.63 47.74 47.40 46.70 45.93 44.29
40.18 34.55 38.59 43.89 50.18 49.06 44.62 42.08 48.53 52.16 52.98 52.48 51.63 53.00 54.61 57.91 59.40 61.18 61.69 61.83 61.76 61.84 61.76 59.38 61.34 59.41 58.47 58.35 58.28 57.95 56.76 55.15 54.78 54.59 53.36 53.18 53.04 53.60 51.15 49.30 48.67 48.75 48.17 47.29 47.08 45.75 44.81 43.79 42.61
36.25 37.03 36.59 39.91 43.97 46.69 42.26 41.37 48.72 51.28 52.35 51.97 51.34 51.94 52.01 54.90 56.35 60.24 61.37 61.85 61.42 61.12 61.55 59.94 60.93 59.09 58.68 58.56 58.33 57.58 56.20 54.88 54.90 53.24 52.05 51.32 50.67 51.86 50.05 48.72 47.91 47.96 46.74 45.49 44.83 42.87 42.87 42.69 41.47
43.89 41.34 38.04 39.37 44.73 43.02 42.43 44.38 47.90 50.09 50.88 51.04 50.82 52.22 51.73 53.97 56.36 58.20 60.85 60.80 60.05 60.04 60.07 60.72 59.48 59.27 58.60 58.04 57.65 55.81 54.35 54.06 52.62 50.34 50.68 50.23 50.05 49.64 48.54 48.02 47.44 46.65 45.60 44.35 44.02 42.09 41.05 40.59 40.43
43.17 41.00 39.86 42.27 43.86 41.74 40.49 42.00 47.55 48.60 49.98 50.86 50.16 51.57 52.56 52.82 54.23 55.31 57.13 59.45 59.62 59.64 59.81 60.32 59.97 59.39 58.71 58.14 58.03 56.76 54.23 51.47 49.90 49.39 49.13 49.34 49.28 49.09 48.97 47.23 46.14 45.40 44.39 43.26 42.71 41.46 40.27 40.42 39.28
42.31 40.67 40.49 39.97 40.14 41.11 40.39 37.05 43.54 47.76 49.11 49.79 51.59 52.92 54.30 54.18 54.08 55.81 56.88 58.66 59.23 59.08 59.97 60.05 59.65 59.65 58.84 58.25 57.18 52.89 50.99 49.28 47.94 47.05 47.37 48.24 49.04 46.84 45.04 43.47 42.16 41.76 41.77 40.90 40.53 40.63 40.03 38.22 38.45
38.32 44.61 43.83 42.51 38.70 33.42 38.54 30.75 40.16 43.91 46.57 48.79 50.89 51.01 51.78 52.92 55.28 56.56 57.48 58.87 59.13 59.38 59.41 60.05 60.26 59.77 59.32 57.83 55.14 53.81 51.91 49.15 47.38 47.11 47.07 45.12 43.83 43.31 43.24 42.35 41.32 40.70 40.40 39.60 39.73 42.81 39.84 38.65 36.85
41.85 44.83 43.27 43.05 38.75 36.87 38.02 34.81 37.39 42.44 41.98 46.60 49.98 51.83 49.93 52.34 55.35 56.31 58.46 59.64 60.00 59.67 59.76 59.96 59.44 59.25 59.48 55.04 53.95 51.94 48.27 47.27 47.20 45.21 41.49 41.15 41.34 42.12 41.98 41.21 40.23 40.11 40.40 39.98 40.86 39.88 39.53 39.05 37.83
46.87 44.39 43.00 40.94 38.05 29.66 38.04 34.76 34.34 40.11 43.18 46.07 48.99 52.05 51.97 52.50 54.34 56.18 59.05 60.21 59.43 59.76 59.41 57.76 57.40 54.21 54.22 53.45 50.82 49.13 45.85 43.62 42.45 39.82 39.15 39.68 40.59 40.40 40.01 40.53 39.15 39.56 40.11 41.01 39.94 39.34 39.27 38.35 37.89
44.89 38.46 31.16 29.72 27.74 27.17 40.12 36.46 38.08 43.19 45.92 45.92 46.62 47.58 50.53 53.42 54.64 56.58 57.15 58.16 58.58 57.87 57.02 56.04 52.42 48.08 47.45 46.63 45.83 45.07 43.25 42.92 41.03 39.50 39.43 39.42 40.15 39.84 38.28 38.53 38.21 38.15 40.26 41.29 40.27 39.35 38.96 38.15 36.83
41.28 38.91 30.38 26.40 25.91 31.32 39.56 34.48 39.32 45.96 47.51 48.56 48.32 48.49 51.22 52.72 55.57 56.50 55.53 54.08 53.81 53.11 52.10 51.56 50.59 46.51 44.23 43.83 42.90 42.93 41.87 40.97 40.60 41.26 41.12 40.23 39.77 39.34 40.10 39.72 39.26 38.68 38.64 40.13 40.04 39.19 38.75 38.00 37.04
41.65 36.90 41.79 35.07 35.43 31.68 34.79 39.76 43.29 45.98 45.74 46.22 47.11 48.93 50.56 51.37 53.32 53.50 52.56 52.35 51.52 49.31 49.56 49.74 48.98 47.06 44.94 42.54 41.97 41.75 41.24 41.74 41.63 41.53 41.01 40.77 41.00 41.28 38.33 38.10 38.14 38.06 38.31 37.12 38.57 38.62 38.47 37.72 37.30
43.68 43.94 36.01 34.78 28.41 26.93 31.57 33.00 36.60 41.72 44.07 45.81 45.94 46.31 49.81 50.73 51.47 52.26 52.40 51.26 50.85 50.18 49.31 48.45 47.78 45.70 43.61 42.43 42.08 42.96 42.79 42.33 41.86 41.73 41.21 41.14 40.79 40.98 38.87 39.08 38.02 37.35 37.34 37.68 37.87 38.38 38.46 37.35 35.28
40.68 38.19 38.48 38.32 32.40 27.54 25.70 30.74 39.27 42.96 44.55 45.00 45.90 47.10 49.65 50.79 51.38 51.81 52.05 51.63 51.11 50.49 49.27 48.50 46.61 43.65 42.19 41.85 41.44 41.35 42.32 42.81 42.72 41.95 41.66 41.31 40.53 40.52 39.94 38.99 37.57 38.07 38.34 37.76 36.19 35.45 35.57 35.46 35.81
43.02 40.80 39.40 29.09 30.75 29.33 27.44 31.47 42.19 42.91 44.38 45.25 46.85 48.43 50.59 51.88 51.32 51.75 51.51 51.17 50.30 50.12 49.08 48.05 46.22 44.31 43.04 42.62 41.76 41.51 42.06 43.01 42.97 42.07 41.28 40.53 40.67 39.72 39.10 38.75 37.90 37.95 38.00 36.61 35.29 35.22 35.75 35.39 33.77

GFSSGP_sfc_wetblb_027.txt.gz
Wetbulb
56.03 53.73 50.80 48.74 38.44 34.12 30.86 36.19 39.94 41.83 50.71 57.49 59.56 57.97 57.39 57.93 56.02 49.05 65.34 65.97 68.88 69.65 70.41 70.13 70.35 71.22 71.33 71.10 70.61 70.11 69.69 68.43 67.81 67.33 67.99 67.40 67.43 67.11 67.85 67.63 67.67 67.72 67.03 66.48 66.32 66.03 65.97 66.22 66.61
52.89 52.37 48.84 41.59 32.30 28.46 32.00 37.76 40.03 48.08 53.58 56.00 55.61 58.08 57.96 57.39 62.82 63.29 64.36 67.91 69.41 69.97 69.76 69.26 70.50 70.73 71.03 70.34 69.85 69.44 68.75 68.01 67.55 66.96 67.16 67.13 67.28 66.87 67.82 67.82 67.53 67.70 67.44 66.19 66.27 66.05 65.81 65.66 66.22
53.63 54.57 46.24 36.93 29.35 30.07 31.81 39.21 49.49 52.67 55.01 53.76 51.90 55.13 57.88 60.02 63.15 64.16 67.00 68.48 69.17 69.03 68.87 69.22 70.12 70.18 70.39 69.76 69.18 68.85 68.73 68.27 67.77 67.51 66.76 66.64 67.30 66.77 67.14 67.75 67.58 67.60 66.42 66.26 66.34 66.08 65.73 66.14 65.82
51.41 47.50 41.79 33.58 31.20 36.43 37.38 42.14 51.75 52.17 54.28 55.57 52.41 50.55 58.65 63.65 64.16 65.51 67.48 68.36 68.28 68.04 68.86 69.18 69.51 69.81 69.74 69.49 69.10 68.82 68.19 67.36 67.21 67.67 68.07 67.47 67.13 66.58 67.24 67.50 67.39 66.84 66.05 65.95 65.73 65.60 66.11 66.26 65.51
46.79 41.11 34.31 31.58 33.89 40.40 50.10 51.24 51.99 51.44 52.38 53.59 53.87 54.19 57.39 63.49 65.03 66.29 66.42 67.34 66.89 67.29 67.80 68.76 68.49 69.00 69.22 69.05 68.64 68.22 67.68 67.05 67.44 67.69 67.77 67.70 67.58 66.88 67.58 67.15 67.12 66.86 65.80 65.31 65.02 65.87 65.97 65.99 65.37
42.20 38.90 32.42 31.60 36.33 44.15 50.97 52.45 52.58 52.36 53.12 53.95 54.40 55.10 57.60 64.79 63.36 63.22 64.58 65.74 66.08 65.83 67.02 67.96 68.88 68.24 68.10 68.15 67.94 67.22 66.95 66.94 67.36 67.41 67.41 67.61 67.33 67.19 67.08 67.05 66.89 66.58 66.47 66.00 65.62 65.12 65.16 65.65 65.41
40.20 37.29 33.70 35.62 36.26 39.21 50.29 52.68 51.89 51.42 51.33 52.21 54.97 52.95 58.30 61.05 62.24 62.99 62.53 62.32 63.23 64.61 64.58 66.32 66.11 67.30 67.39 66.63 66.36 65.93 66.35 66.47 66.96 67.00 66.70 66.79 66.52 66.57 66.78 66.61 66.65 66.20 65.54 65.12 64.86 64.82 64.82 65.71 65.24
43.02 39.17 34.75 34.60 35.64 41.59 49.29 52.62 52.13 51.55 50.61 56.42 55.45 52.48 54.84 60.03 62.11 62.29 61.21 61.10 61.71 62.56 62.39 62.00 63.35 63.59 64.70 64.55 65.54 65.44 65.32 65.75 66.08 66.36 66.01 65.48 65.78 66.20 66.01 65.82 65.83 65.36 64.43 64.74 64.94 64.68 64.61 63.86 64.60
41.50 35.64 33.10 35.14 40.92 44.91 50.33 48.75 52.82 53.42 50.87 55.33 57.54 57.16 59.95 61.98 61.64 59.89 58.76 60.02 60.42 60.60 60.79 62.17 62.59 64.47 64.22 63.65 64.63 64.84 65.57 65.26 65.24 64.92 64.68 63.26 61.94 61.27 61.20 63.94 64.21 63.71 63.24 63.62 64.52 63.62 62.64 60.62 61.92
39.72 34.95 37.15 41.16 48.19 46.38 49.16 48.74 50.90 50.20 50.57 53.93 56.79 59.76 60.78 60.00 60.02 58.66 57.52 57.33 58.44 59.25 60.23 62.13 62.65 63.22 63.23 63.34 62.59 61.03 61.56 61.21 61.19 61.01 60.73 59.49 59.65 60.77 61.99 62.89 63.32 63.11 63.53 62.69 62.21 60.73 59.40 56.32 52.79
38.84 37.71 41.62 48.09 50.40 49.28 48.42 49.30 52.27 51.04 47.98 52.32 54.62 56.32 58.11 57.95 58.22 59.01 59.36 59.10 58.45 58.74 58.39 61.03 63.81 63.47 61.80 61.03 60.57 60.10 59.05 58.80 58.99 59.34 58.54 58.94 59.54 60.27 59.63 59.58 59.85 56.45 58.29 54.45 54.24 52.82 51.94 51.08 50.50
38.80 42.80 47.62 49.49 50.83 49.54 48.38 50.20 48.84 48.72 51.42 55.91 56.66 57.57 57.42 57.68 57.86 58.71 58.02 58.47 58.12 57.95 58.16 59.55 62.23 62.66 61.60 60.04 59.38 58.70 59.69 61.19 61.28 59.98 61.13 59.70 58.12 57.22 56.63 55.86 54.64 53.34 52.31 51.81 51.54 50.63 49.71 48.96 49.32
40.88 42.79 44.92 50.83 51.28 50.36 52.42 48.87 49.14 49.37 56.53 57.06 58.01 57.42 57.16 57.16 57.26 57.97 58.52 58.39 58.29 57.67 58.53 59.64 62.20 62.42 61.16 59.48 58.61 60.18 62.00 60.85 60.22 60.56 60.37 59.01 57.10 56.08 55.49 53.35 52.97 51.98 51.07 50.24 49.21 48.48 48.19 47.71 47.64
44.30 46.56 48.24 49.65 50.04 51.41 48.98 49.53 50.12 49.87 57.76 56.99 56.87 55.59 55.13 56.72 57.25 56.63 58.32 58.57 59.22 59.37 59.59 60.93 62.67 62.54 60.09 59.52 59.78 60.35 59.55 59.18 59.42 59.50 59.49 58.56 56.57 54.12 52.79 51.52 51.02 50.78 49.72 48.72 47.94 47.48 47.11 46.19 45.95
46.37 45.82 48.00 48.46 49.20 48.47 49.82 46.58 47.47 51.49 56.69 56.70 55.96 55.94 55.66 56.92 57.84 56.45 57.98 58.25 59.58 60.67 61.95 62.26 62.51 60.55 59.99 59.16 58.80 58.83 58.38 58.28 57.93 58.43 58.02 56.81 55.41 53.48 51.94 49.99 49.17 49.13 48.43 47.94 47.55 47.23 46.75 45.53 45.11
41.69 42.69 39.48 45.63 49.35 49.74 45.80 40.42 47.49 51.80 52.63 53.16 55.86 55.47 55.90 56.67 57.38 57.29 57.65 59.18 60.54 61.77 61.90 62.22 62.76 60.08 58.53 57.43 57.46 57.45 56.62 56.37 55.95 56.63 56.19 55.46 53.84 52.67 49.97 48.78 48.59 48.14 47.80 47.27 46.43 45.69 44.61 43.59 42.52
38.77 34.79 37.38 43.68 49.89 48.17 44.08 40.76 47.17 50.94 52.12 51.97 53.36 56.10 56.35 56.43 57.05 57.42 57.86 59.76 61.62 62.03 61.81 59.77 60.37 58.75 58.03 56.79 57.24 56.41 55.12 54.05 54.00 53.98 53.02 53.08 53.16 51.64 48.99 48.13 47.49 47.23 46.25 45.71 45.61 43.05 42.95 41.26 40.92
34.81 36.08 35.38 38.03 45.16 45.86 42.79 40.26 46.45 49.82 51.74 52.36 50.30 51.68 55.35 56.62 56.76 58.27 59.27 60.90 61.75 60.92 61.05 59.77 59.29 58.02 57.39 57.20 56.85 55.55 54.02 53.64 53.76 51.89 51.14 50.74 51.39 50.23 48.43 47.17 46.90 46.31 44.93 43.92 42.67 41.42 41.05 40.95 40.25
40.95 39.07 37.66 39.13 43.08 44.15 42.93 41.74 45.86 48.26 50.12 48.68 49.24 50.27 51.10 56.71 58.46 59.56 60.44 60.88 60.19 59.48 59.40 59.79 58.08 57.42 57.55 56.96 55.87 53.78 52.84 52.98 51.64 50.64 49.77 49.71 49.26 48.53 47.36 46.48 45.96 45.31 44.11 42.72 42.51 40.74 40.14 39.92 38.56
43.44 39.83 39.08 41.67 42.27 42.38 39.24 39.92 44.48 47.63 49.80 49.47 49.73 49.75 50.95 55.28 56.03 58.74 59.48 59.26 58.07 59.00 59.22 59.32 58.57 57.60 57.58 57.95 56.49 55.37 53.54 51.43 49.05 48.86 48.49 48.55 48.18 47.57 47.41 45.66 44.42 43.55 42.49 41.39 41.12 40.37 39.46 39.17 38.12
40.84 39.17 38.93 39.69 39.05 39.89 39.25 37.55 43.84 47.86 47.61 48.67 49.64 50.62 51.71 52.75 53.27 55.35 58.14 58.16 57.34 57.76 58.50 59.38 58.96 58.37 57.82 57.86 56.65 52.28 49.64 48.26 47.05 46.19 46.17 46.84 47.62 45.46 43.51 42.17 41.10 40.41 40.10 39.14 38.94 39.85 39.24 37.32 37.31
37.79 42.85 41.77 40.75 36.51 32.50 37.01 29.91 37.23 44.63 46.83 47.23 48.12 49.44 50.69 51.98 53.86 54.47 56.53 57.31 57.47 57.54 58.84 59.46 59.49 58.87 58.34 57.43 56.57 54.01 51.99 48.81 46.36 45.99 45.98 42.01 42.82 42.16 41.71 41.05 40.86 40.43 40.11 39.30 39.30 41.26 38.99 37.59 36.05
40.39 43.27 41.35 40.86 37.37 35.22 36.17 32.81 35.26 42.04 42.94 46.53 48.40 48.82 50.21 51.26 53.32 53.73 54.78 57.59 58.26 58.39 58.75 59.20 59.23 59.09 58.78 57.27 56.11 53.18 50.42 47.30 46.71 44.67 40.38 39.87 40.87 41.72 41.29 41.08 40.16 39.77 40.03 39.96 39.85 39.20 38.50 38.07 37.10
44.73 42.25 40.65 38.79 36.12 28.95 35.30 33.51 33.03 37.28 43.47 47.25 50.03 49.92 50.61 48.68 51.16 54.29 55.87 57.67 58.14 58.57 58.27 58.61 58.54 58.38 58.04 57.12 54.78 51.86 47.46 45.70 43.82 39.57 39.00 39.49 39.46 39.32 40.29 39.76 40.13 41.45 42.37 39.92 39.30 38.57 38.34 37.49 36.90
42.33 36.81 29.46 28.59 27.24 26.91 37.94 34.51 36.36 41.66 43.83 44.46 45.68 48.81 51.04 50.26 51.57 55.11 57.17 57.77 57.69 57.59 58.45 58.27 57.19 54.00 55.25 53.95 51.02 48.51 46.84 46.52 44.10 40.17 39.37 38.60 38.20 38.42 38.76 40.64 40.76 40.81 42.60 40.69 39.85 39.63 37.80 37.18 36.11
39.47 37.35 29.35 25.35 24.65 29.75 37.63 32.56 37.86 44.12 46.45 46.13 46.19 47.06 47.59 49.37 52.92 55.69 57.57 58.10 57.92 58.14 57.73 57.58 54.17 50.19 48.95 47.87 46.14 43.36 43.51 44.56 43.10 41.61 39.71 40.09 40.32 40.25 40.52 40.41 40.64 39.31 38.62 39.21 39.74 38.88 37.81 37.06 36.16
41.29 35.95 39.47 33.28 32.28 29.69 32.19 37.66 41.16 44.16 43.80 44.59 45.21 48.03 47.63 49.73 52.96 55.56 57.22 58.04 57.05 56.05 53.53 51.64 49.29 46.11 46.02 44.96 43.48 42.39 42.52 43.44 42.35 41.88 41.71 41.10 40.99 41.04 40.68 40.13 39.72 38.16 37.55 36.34 37.13 37.61 37.37 37.16 36.26
42.47 43.53 34.30 33.15 27.53 26.40 30.02 31.30 33.31 41.49 43.09 44.66 44.30 47.08 49.03 50.32 52.61 53.31 54.17 53.63 53.60 52.63 50.83 47.63 46.82 45.76 45.09 44.39 44.60 44.24 43.56 43.11 41.89 40.96 40.79 40.91 41.26 41.62 40.17 39.62 39.43 37.44 36.50 37.22 37.02 37.68 38.59 36.51 35.15
39.72 37.19 37.02 36.72 31.44 26.38 24.29 30.15 37.87 41.16 43.34 43.94 43.02 45.79 48.38 49.98 51.72 52.96 53.45 52.77 52.02 50.93 49.38 47.87 45.63 43.41 42.60 43.44 42.23 41.42 41.08 41.55 41.04 41.33 41.35 41.20 41.22 40.40 40.29 39.68 38.58 36.75 36.60 36.90 36.14 35.09 34.87 34.51 34.35
41.07 39.46 37.89 29.04 29.97 28.24 26.93 30.36 40.64 41.50 42.97 43.07 44.87 45.89 46.86 50.12 51.62 52.80 52.90 51.10 49.40 49.14 49.07 47.94 46.69 44.49 43.70 43.35 42.94 41.59 41.07 41.42 40.65 40.29 41.28 41.04 40.35 39.86 38.08 37.92 36.98 36.86 37.73 37.14 35.59 34.07 34.65 33.98 33.55

GFSSGP_sfc_wetblb_030.txt.gz
Wetbulb
55.39 51.79 49.67 46.25 37.96 33.38 30.05 34.88 37.84 39.12 50.35 56.55 59.27 57.94 56.12 58.24 54.15 48.06 65.20 66.62 68.63 69.19 69.78 69.71 70.38 70.82 70.38 70.15 69.91 69.60 69.37 69.06 68.35 67.89 68.13 67.94 68.08 68.06 68.16 68.06 68.06 68.30 68.30 67.18 67.07 67.84 68.17 68.47 68.58
50.94 50.45 47.82 39.90 32.07 27.76 30.71 36.04 40.13 47.38 52.20 54.86 54.15 58.19 58.08 57.19 62.17 62.80 63.54 67.80 68.93 69.42 69.31 69.25 70.36 70.31 70.18 69.85 69.64 69.17 68.89 68.84 68.25 67.94 67.79 67.94 68.01 67.69 68.47 67.99 67.61 68.09 68.28 66.76 66.39 66.25 66.26 66.41 67.43
51.45 52.76 44.53 35.49 28.89 29.17 30.77 36.56 48.30 51.28 54.10 52.64 51.40 56.16 58.34 58.76 62.98 63.96 67.17 68.47 69.18 68.87 68.49 68.89 69.91 69.93 69.87 69.52 68.94 68.46 68.42 68.18 67.91 67.82 67.44 67.29 67.47 67.56 67.79 67.87 67.66 68.34 68.11 66.44 66.25 65.86 65.47 65.75 65.88
49.62 46.92 39.52 34.36 29.02 34.18 35.86 39.41 48.49 50.51 52.83 53.83 51.51 52.44 60.71 63.66 63.63 65.82 68.11 68.73 68.35 68.31 68.09 68.75 69.02 69.48 69.39 69.26 68.93 68.61 67.96 67.26 67.47 67.58 67.82 67.86 67.93 67.03 67.91 67.62 67.67 68.13 67.87 66.22 65.99 65.50 65.50 65.87 65.69
44.29 39.82 33.19 30.90 32.40 35.94 46.21 50.21 51.04 50.17 51.06 52.45 53.22 54.43 57.08 63.13 65.47 66.78 67.09 67.34 66.98 67.52 68.28 68.33 68.09 68.75 69.12 69.32 69.03 68.25 67.65 67.39 67.79 67.98 67.86 68.01 68.06 67.86 68.04 67.61 67.50 67.29 66.96 67.03 65.99 66.32 65.78 65.19 65.45
41.22 37.18 30.52 28.89 33.50 39.17 49.15 51.54 51.34 51.39 51.88 53.15 54.20 54.55 57.77 63.28 63.21 63.45 64.37 63.96 64.93 65.40 66.49 67.26 68.53 68.20 68.30 68.35 67.85 67.23 67.24 67.81 67.71 67.61 67.75 68.01 67.90 67.62 67.63 67.34 67.15 66.68 66.14 66.14 66.36 66.32 65.92 64.61 65.05
39.42 35.33 30.53 31.71 35.38 39.05 47.69 51.32 50.34 50.60 50.07 49.77 53.60 53.07 58.25 60.31 61.62 62.21 62.34 62.15 61.99 62.65 64.76 64.72 66.54 66.78 66.77 66.62 66.57 66.34 66.79 67.30 67.45 67.30 67.38 67.24 66.89 66.82 66.94 66.93 66.45 66.13 65.79 65.76 65.66 65.80 65.82 64.52 64.24
40.96 37.50 32.58 32.53 34.58 37.59 48.25 51.35 51.19 50.34 48.34 54.91 55.55 52.88 54.43 59.36 60.38 60.84 60.99 60.98 60.20 60.81 61.92 61.47 61.87 63.08 63.33 63.88 65.35 65.64 66.23 66.42 66.76 66.64 66.11 65.60 65.96 66.38 65.93 65.78 65.70 65.43 65.45 65.42 65.14 64.97 65.25 64.08 62.94
39.87 34.49 31.00 33.46 36.98 42.07 49.36 48.08 51.11 54.44 53.83 55.92 57.70 56.99 59.57 60.63 60.29 59.50 59.06 59.41 59.14 59.34 60.15 60.39 60.46 62.30 63.08 63.23 64.35 64.96 66.20 65.94 65.50 65.33 65.01 62.71 61.87 61.64 60.43 63.61 64.09 64.03 63.79 64.58 63.68 62.59 61.68 61.26 61.22
38.63 33.95 35.83 40.42 41.42 45.32 47.99 48.16 50.35 50.47 51.98 54.20 56.47 59.92 61.07 59.67 58.62 57.27 56.79 56.64 57.92 58.05 58.93 60.12 60.22 60.37 61.97 63.63 60.95 60.41 62.42 61.60 61.12 60.92 60.19 60.21 59.67 59.06 61.03 62.61 63.45 63.65 62.58 61.86 60.96 59.73 58.17 54.78 51.48
37.09 36.89 40.26 42.92 48.04 48.10 46.51 47.73 50.72 50.08 47.57 53.83 53.99 57.74 58.32 58.87 58.32 57.26 57.24 56.85 57.12 58.06 58.86 59.59 60.11 59.86 61.84 60.94 59.76 59.15 58.90 58.87 59.30 59.23 58.63 58.46 59.29 59.05 58.85 58.49 56.37 54.74 56.34 52.54 52.23 50.96 50.16 49.42 48.70
37.44 41.56 43.18 45.09 50.14 48.30 47.64 48.71 48.31 48.96 50.58 56.50 57.84 58.51 57.10 57.19 58.04 57.95 57.87 58.03 57.96 57.23 57.89 59.34 60.66 61.73 61.50 60.52 58.97 58.17 57.77 58.02 58.04 57.92 58.86 58.84 58.43 57.29 56.26 55.28 52.65 51.93 51.48 50.41 49.68 49.03 48.62 47.71 47.49
39.61 41.50 44.32 49.00 50.27 50.12 50.75 48.58 49.21 52.24 54.97 57.14 57.45 56.88 57.01 57.66 57.29 58.88 59.45 58.35 57.70 56.65 57.95 59.89 60.73 61.75 60.89 58.70 57.91 57.78 59.37 59.41 59.12 58.96 59.53 57.42 56.47 55.42 53.36 52.07 51.24 50.13 49.94 48.86 48.06 47.49 47.16 46.26 45.74
43.18 43.83 46.32 48.81 49.79 50.29 48.41 48.54 49.77 53.65 56.12 55.84 56.23 55.66 56.18 56.31 56.62 56.85 57.30 56.86 56.72 56.77 57.14 58.41 60.37 62.07 60.32 57.64 57.77 59.60 59.56 59.40 58.96 58.88 58.03 56.96 55.70 53.05 51.44 50.54 50.24 48.93 48.35 47.77 47.27 46.63 45.78 44.48 44.30
45.80 44.44 47.22 47.14 47.81 47.44 50.10 45.37 47.08 54.86 56.05 54.53 54.81 53.93 55.08 56.26 57.05 56.35 57.52 56.60 56.63 57.39 57.78 59.01 61.06 62.06 59.39 58.17 58.78 59.04 58.18 58.30 58.24 58.26 57.71 56.02 53.94 52.03 50.16 49.09 48.51 47.82 47.56 47.15 46.59 45.96 45.11 43.71 43.94
39.82 41.72 37.46 46.74 48.27 48.18 46.00 39.07 47.78 55.53 54.97 53.59 54.30 54.54 54.65 55.60 57.08 56.55 57.64 57.93 58.25 58.52 59.53 61.04 62.60 60.41 58.35 57.85 57.92 57.78 57.28 56.90 56.88 56.68 55.80 55.03 53.08 51.34 48.95 48.54 47.89 47.47 47.03 46.07 45.26 44.33 43.38 42.37 41.92
37.35 32.64 36.32 41.99 49.11 47.11 43.62 39.61 47.69 53.14 54.32 53.79 54.03 54.07 54.32 54.95 56.40 56.92 56.76 57.56 58.83 59.80 60.66 60.91 60.83 58.74 57.56 57.02 56.96 56.36 55.54 55.24 55.36 54.50 53.92 52.69 51.67 50.16 48.82 47.81 46.84 46.00 45.37 44.75 44.28 42.47 42.03 40.51 40.89
33.78 34.45 34.02 36.70 44.96 44.92 40.56 40.23 45.60 49.88 51.13 52.63 53.65 54.63 55.18 55.05 55.78 57.14 56.45 57.76 59.14 60.06 60.48 60.02 59.12 57.70 56.98 56.44 55.72 54.28 53.19 53.83 52.94 51.60 51.55 52.15 50.13 49.30 48.01 46.68 45.81 45.18 43.94 42.53 41.74 40.85 40.63 40.79 40.05
39.76 37.45 35.67 38.04 42.39 44.20 43.14 41.18 44.87 47.52 49.51 50.47 51.68 53.27 54.89 55.95 57.52 57.09 56.99 58.26 59.70 59.21 59.00 59.07 57.38 56.60 56.73 55.70 54.12 52.49 52.30 52.50 50.64 49.87 49.83 50.54 48.86 47.84 46.50 45.64 44.86 44.18 42.74 41.96 41.94 40.50 39.77 38.70 38.26
40.68 38.10 37.65 40.22 41.05 42.43 38.53 39.34 43.15 46.60 48.91 51.14 50.28 51.30 52.90 54.32 56.10 56.84 56.63 58.12 59.50 59.68 59.64 58.81 58.11 57.00 57.29 57.10 54.71 53.90 52.89 51.41 49.41 48.56 48.30 48.30 47.51 46.67 46.37 44.45 43.23 42.56 41.55 40.64 40.65 40.28 39.08 38.67 37.63
39.13 37.77 37.91 38.53 38.05 37.61 37.20 36.19 41.72 46.13 47.25 49.06 50.07 51.18 52.19 51.96 54.89 56.46 57.63 58.12 58.67 59.04 59.01 58.96 58.09 57.33 57.46 57.10 54.93 50.62 50.95 47.99 46.67 45.71 45.77 46.35 46.70 45.48 43.43 41.80 40.32 39.70 39.47 39.07 39.38 39.59 39.14 37.21 36.87
36.13 41.38 39.75 39.22 35.20 31.08 35.62 29.55 34.92 42.68 45.64 46.64 47.62 47.88 49.69 51.05 54.12 55.55 57.14 57.46 57.58 58.35 58.86 59.30 58.45 57.44 57.37 57.42 55.45 52.76 51.89 49.12 47.47 45.38 44.89 42.12 42.27 41.24 40.75 40.74 40.37 40.11 40.24 39.48 40.65 40.87 39.68 37.84 36.27
39.99 41.97 39.75 39.44 35.94 34.29 35.07 32.19 34.20 40.48 42.93 46.47 48.65 47.47 48.95 50.31 51.68 53.38 55.03 57.67 57.92 56.73 57.63 58.53 58.19 57.93 57.35 57.46 56.43 53.60 51.61 50.61 47.94 44.55 40.01 40.16 39.80 40.38 40.83 40.73 40.61 39.77 40.63 41.98 41.77 39.61 38.14 38.07 37.01
43.63 40.35 38.56 37.34 34.87 28.65 33.91 32.16 32.11 35.66 43.14 47.91 50.01 49.84 49.29 49.10 50.24 51.55 52.80 55.41 56.16 55.92 56.62 57.80 58.82 58.07 57.55 56.77 54.66 52.95 49.72 48.99 46.33 42.58 39.26 40.47 38.25 39.27 39.56 39.63 39.21 40.97 42.84 41.04 40.26 38.90 38.25 37.60 36.96
40.05 35.42 28.59 28.01 27.37 27.12 36.13 33.24 35.54 40.51 41.15 44.14 46.67 48.11 49.02 49.85 49.39 51.30 52.78 54.22 55.92 55.76 56.94 57.96 59.14 57.64 57.62 56.30 54.70 52.28 51.50 49.30 46.64 41.87 39.74 37.88 38.01 38.86 38.33 39.23 39.63 40.83 42.53 42.03 39.73 38.51 38.06 37.10 36.45
37.33 36.57 28.61 24.57 23.68 28.19 35.52 30.80 36.62 42.35 44.30 44.93 44.71 44.47 46.23 47.90 49.96 52.51 54.71 55.29 56.07 56.44 56.84 58.13 58.17 57.63 55.88 55.80 53.87 52.45 50.43 48.91 47.38 41.50 40.46 40.16 39.92 39.88 40.33 40.81 39.50 40.49 41.36 39.92 40.30 39.25 37.50 37.37 36.50
38.19 34.31 37.86 31.63 30.76 28.50 30.94 35.78 39.81 41.04 43.17 44.43 44.64 44.90 43.71 46.58 48.56 52.17 55.19 56.23 56.30 56.46 56.82 57.83 56.82 56.62 53.98 52.93 50.87 49.06 47.91 46.71 43.34 43.52 41.26 40.36 41.23 40.73 40.86 40.84 41.17 40.44 38.58 38.82 39.10 39.16 38.04 37.57 36.16
39.98 41.67 33.52 31.68 27.31 25.62 28.57 29.67 31.88 38.32 41.49 43.54 44.08 45.55 45.86 46.88 49.68 52.04 54.85 56.10 56.64 57.15 57.79 56.38 54.78 52.65 51.49 49.64 47.55 46.16 45.73 45.68 44.46 41.91 40.72 41.27 41.81 40.96 41.00 40.96 39.99 39.10 38.59 38.48 38.29 37.50 37.71 36.94 36.04
37.64 35.78 35.30 35.33 30.53 26.28 23.23 29.02 37.27 38.74 40.95 41.24 43.04 44.74 45.61 48.30 49.89 51.96 53.89 55.12 54.90 54.56 51.78 52.03 49.28 47.16 45.53 45.72 44.43 43.21 43.30 43.18 43.84 42.97 42.70 41.04 41.15 41.46 41.22 39.95 39.24 38.40 37.93 37.92 36.91 37.12 36.55 34.76 33.76
39.30 37.94 36.38 29.07 29.23 27.57 26.15 28.58 40.00 39.32 40.02 41.05 41.71 43.81 44.52 47.99 49.86 51.02 51.85 51.58 51.15 51.49 50.33 50.11 46.57 44.36 43.68 42.86 43.08 43.21 43.16 43.62 42.00 41.15 41.14 41.35 40.94 40.61 40.06 39.57 38.25 37.97 38.09 37.48 36.05 34.39 34.44 33.65 33.36

GFSSGP_sfc_wetblb_033.txt.gz
Wetbulb
60.28 55.68 55.63 51.92 45.41 43.16 39.82 40.75 43.56 44.79 53.09 58.23 60.98 59.31 57.67 58.61 55.73 53.23 65.95 67.64 69.95 69.30 69.93 70.46 70.24 70.52 70.51 70.39 70.18 69.93 69.79 69.77 69.36 69.04 69.02 68.78 68.68 68.80 68.82 68.64 68.54 68.89 69.28 69.14 69.24 69.38 68.92 68.07 68.31
55.50 53.71 53.46 47.28 41.88 37.92 39.39 41.86 46.53 52.34 55.34 57.54 57.74 60.12 58.99 57.34 61.93 62.43 64.26 68.71 69.62 69.29 69.55 69.42 69.82 69.87 70.03 69.93 69.56 69.50 69.58 69.14 69.04 68.87 69.02 68.85 68.97 69.09 68.87 68.43 68.28 68.49 69.00 68.32 68.71 69.34 69.18 68.36 68.92
55.15 54.73 51.55 45.56 39.93 37.90 39.31 42.27 51.81 54.58 55.88 55.61 54.92 59.84 60.12 58.01 63.47 64.19 67.55 69.22 69.71 69.24 69.61 69.34 69.64 69.29 69.71 69.45 69.14 68.87 68.72 68.58 68.43 68.58 68.92 68.90 68.95 69.09 68.77 68.24 68.23 68.42 68.59 67.11 67.24 67.23 67.49 67.54 67.51
53.96 53.47 45.78 42.12 38.39 40.13 41.04 44.23 52.68 52.69 55.50 56.12 57.35 56.32 61.09 64.02 64.17 66.35 68.75 69.44 68.94 69.53 69.66 69.18 69.09 69.39 69.48 69.26 69.03 68.44 68.08 67.74 67.48 68.07 68.53 68.85 68.85 68.73 68.73 68.29 68.25 68.47 68.05 66.36 65.99 66.21 65.87 66.44 66.27
49.59 47.37 42.42 39.00 38.39 40.78 43.95 53.31 54.15 52.83 53.69 55.22 57.08 54.69 57.00 62.77 66.08 67.35 67.93 68.66 67.71 68.34 69.65 69.64 68.14 68.88 69.23 69.45 68.93 68.22 67.76 67.67 67.65 67.92 68.09 68.46 68.56 68.60 68.20 68.09 68.02 67.85 67.75 66.96 65.60 65.92 66.35 65.82 65.72
48.41 45.04 40.42 37.97 38.95 42.21 46.64 54.70 54.41 53.80 54.68 55.58 56.61 56.13 57.65 63.81 63.43 63.57 63.75 64.42 65.66 66.79 67.56 68.54 68.68 68.31 68.23 68.49 67.90 67.44 67.66 67.88 67.71 67.73 67.85 68.48 68.37 67.96 67.79 67.43 66.82 67.01 67.19 67.11 66.65 65.50 65.94 65.46 65.44
46.51 44.22 40.00 39.08 40.51 42.14 49.85 54.95 53.05 53.41 53.53 53.37 57.51 54.41 57.71 60.13 61.88 61.88 61.40 62.63 63.70 63.62 65.00 66.43 66.12 66.13 66.29 66.50 66.67 66.98 67.44 67.62 67.51 67.50 67.68 67.69 67.25 66.99 66.97 66.84 66.72 66.38 66.18 66.49 66.54 65.41 65.25 65.45 64.73
47.52 45.42 40.14 40.23 39.79 40.49 51.46 52.98 54.25 52.57 51.55 57.28 58.03 54.14 53.88 58.90 60.96 60.74 60.55 60.99 61.59 61.69 62.61 62.28 62.17 63.02 62.96 64.09 65.90 66.57 66.75 66.90 67.03 67.13 66.59 65.99 66.15 66.48 66.29 65.94 65.88 66.08 66.13 66.06 66.35 65.05 64.35 63.82 63.06
46.20 43.53 39.73 40.18 40.49 45.18 52.39 51.33 53.49 56.83 55.67 56.88 57.71 58.35 59.03 59.86 60.52 59.24 58.45 58.75 59.09 59.37 58.93 59.84 59.15 60.80 62.96 64.17 65.41 66.41 66.87 66.38 65.87 65.76 65.23 64.06 64.12 64.35 63.85 64.06 64.46 65.17 64.51 64.13 63.71 62.04 61.36 60.93 60.11
46.69 42.08 41.38 44.22 44.53 48.70 51.18 51.68 52.38 53.68 54.32 54.26 56.71 58.91 59.23 59.33 59.00 57.26 56.48 55.84 56.65 56.40 57.75 58.71 59.87 60.00 63.12 62.28 62.51 64.16 64.23 63.73 63.79 63.74 63.88 63.67 64.23 63.59 63.35 63.84 63.93 63.11 61.78 60.99 60.25 58.80 57.68 57.87 56.68
44.07 43.18 44.54 45.40 46.32 52.36 50.85 51.29 53.70 52.75 50.83 54.71 54.72 56.57 57.73 57.66 57.29 56.83 57.38 56.82 56.13 56.25 57.31 58.94 58.12 58.82 61.32 62.36 60.91 61.65 61.51 62.14 62.59 62.63 62.79 62.91 63.37 63.88 63.59 62.21 60.14 59.55 58.38 56.73 56.58 55.83 55.34 55.37 55.50
43.10 45.22 45.76 47.79 52.55 51.51 50.34 52.35 51.02 52.11 53.57 57.28 59.09 58.79 58.17 56.93 56.91 56.29 56.64 56.89 56.77 57.33 58.41 58.91 59.18 58.41 60.81 62.55 60.80 60.61 61.22 60.95 61.87 61.36 62.89 63.76 62.96 62.44 61.81 58.82 58.29 57.74 56.54 56.03 55.84 55.14 54.90 54.58 54.07
43.66 45.40 46.29 46.87 51.99 51.87 52.60 50.46 51.48 53.01 56.79 59.07 58.57 57.43 57.35 57.64 57.57 57.73 58.22 57.76 58.35 57.17 58.30 58.85 59.90 59.88 62.09 61.59 60.44 60.22 60.96 61.28 62.13 62.20 63.67 63.69 62.47 61.42 58.99 57.74 57.22 56.63 56.39 55.97 55.39 55.01 54.26 53.45 52.59
46.02 46.22 49.57 50.98 51.88 52.20 51.78 52.10 52.45 53.85 56.96 56.32 57.07 57.08 57.80 57.83 58.58 58.97 58.49 57.63 56.61 57.79 57.96 59.34 59.96 62.60 62.64 60.88 60.94 61.29 62.12 62.42 62.07 62.98 63.15 62.25 61.45 58.94 57.56 57.01 56.31 55.88 56.32 55.99 55.46 54.39 53.27 52.17 51.98
48.39 47.32 49.20 50.24 51.11 50.33 51.56 48.03 50.34 55.18 56.44 55.45 56.07 55.63 56.53 57.64 57.82 58.51 59.19 58.61 57.10 57.84 59.10 60.11 61.70 64.15 63.24 60.77 60.86 61.89 62.92 63.01 62.44 62.74 61.94 61.22 59.84 58.81 57.71 56.35 55.39 55.11 55.32 54.91 54.29 53.08 52.55 51.59 50.52
44.65 45.10 42.05 47.97 49.91 49.85 48.75 43.56 51.72 55.65 54.39 53.62 54.85 54.44 55.17 56.24 57.67 59.34 59.53 58.98 58.29 58.66 59.22 60.58 62.05 63.68 63.47 61.85 61.96 62.59 62.86 63.01 62.78 62.46 61.68 60.02 58.36 57.62 57.16 55.78 55.06 54.76 54.66 53.93 52.95 52.20 51.00 50.74 50.58
42.55 39.27 40.41 45.12 50.93 49.09 47.84 44.34 51.57 55.32 54.35 52.67 53.88 54.22 55.29 56.19 57.91 58.72 59.95 59.56 58.62 59.38 60.05 60.77 62.41 63.46 63.25 62.29 62.26 62.88 62.46 62.00 62.28 61.83 61.09 59.44 57.37 56.24 56.28 55.39 54.15 54.27 52.99 52.30 51.66 50.84 50.97 49.93 49.96
39.28 39.97 41.69 42.19 47.89 48.58 46.08 44.85 50.71 54.17 53.89 53.31 54.01 55.18 55.25 55.72 57.06 59.17 59.24 60.24 59.95 60.52 61.24 61.87 62.86 63.61 63.21 61.85 61.72 61.19 60.36 59.85 60.51 60.70 59.86 58.30 56.14 55.62 54.82 53.66 53.31 52.78 51.50 50.78 50.99 50.37 49.88 50.18 50.28
43.39 41.62 40.78 43.41 45.14 47.16 46.59 45.56 47.60 52.73 53.73 53.90 54.56 55.41 56.01 56.46 58.26 59.56 59.87 59.96 60.48 61.13 61.22 62.35 62.66 62.92 61.70 60.21 59.84 59.65 58.18 58.35 57.80 58.09 57.55 56.34 55.38 54.62 54.00 52.78 52.23 52.19 51.61 50.73 50.66 49.32 48.48 48.24 48.81
43.38 41.66 41.25 43.17 43.63 45.48 43.41 44.10 47.17 50.26 52.36 53.25 54.26 55.04 55.99 57.75 58.53 59.03 59.54 59.27 59.99 60.69 61.77 62.38 62.75 62.29 61.85 61.53 60.93 60.21 58.35 58.09 56.97 55.73 56.37 55.23 54.56 53.71 52.97 52.50 51.77 51.32 50.11 49.88 49.63 48.96 47.73 48.24 47.96
42.94 41.93 41.23 41.31 41.71 42.90 42.75 41.83 44.96 48.65 51.26 52.80 53.89 55.68 56.39 57.13 57.98 59.07 58.41 59.01 59.93 60.58 61.80 62.55 62.82 62.05 61.98 61.65 60.13 57.33 56.01 55.08 53.91 53.28 53.94 53.53 53.35 53.09 52.38 51.89 50.69 49.22 48.76 47.72 48.45 48.61 47.39 45.31 45.54
40.82 44.31 42.60 41.30 39.90 36.89 41.80 36.86 40.09 46.35 48.38 50.07 52.73 53.65 55.03 56.15 57.45 59.43 59.72 59.30 59.68 61.14 62.59 63.01 62.63 61.86 61.75 61.03 59.79 57.48 57.37 55.44 55.00 53.37 53.27 52.58 52.21 51.01 50.18 48.92 48.65 48.27 48.14 47.71 47.76 47.09 45.98 46.80 44.72
43.16 45.06 43.60 42.65 39.91 40.15 39.97 38.16 41.36 44.40 45.66 49.26 51.84 53.07 54.63 55.85 56.45 57.78 59.61 60.55 61.20 61.58 62.14 62.78 62.54 61.61 61.31 59.81 60.03 58.82 58.01 56.91 53.86 51.91 50.54 49.16 48.94 48.75 47.67 48.18 48.12 47.88 47.69 47.91 48.03 46.82 46.05 46.78 45.95
45.84 43.89 41.35 40.92 40.03 35.35 38.34 38.64 40.33 42.16 46.16 49.20 52.67 54.11 54.37 54.88 55.46 56.74 59.12 60.68 61.41 61.79 61.83 62.36 61.03 60.86 60.22 59.68 59.84 58.42 57.31 53.71 51.57 48.14 46.88 46.84 47.09 46.39 47.28 47.22 47.55 47.96 47.86 47.36 46.81 44.45 44.81 45.87 45.77
44.22 41.13 36.09 33.71 34.11 33.34 39.57 37.61 41.82 44.99 45.96 47.89 50.29 53.12 54.84 55.74 55.27 55.94 56.07 57.40 60.01 59.89 60.50 61.31 60.23 59.60 58.65 58.80 58.90 58.05 55.46 53.51 51.91 47.07 45.85 45.33 45.40 45.36 45.77 46.52 46.55 46.87 46.45 45.32 43.59 44.36 46.27 45.79 45.23
42.48 41.66 36.24 28.66 29.63 33.79 38.48 35.77 41.50 46.85 48.15 48.21 48.74 49.14 50.91 54.07 55.44 56.01 56.63 57.65 58.76 59.31 60.21 60.88 60.68 59.70 58.58 58.78 58.69 57.63 55.74 55.17 51.95 48.31 47.50 46.67 46.63 45.79 46.16 46.07 46.70 46.93 45.75 45.02 46.39 46.24 46.06 45.94 45.47
41.89 39.53 41.73 35.87 34.46 34.15 36.53 40.01 44.60 44.94 46.56 48.52 48.84 49.10 49.86 50.40 52.68 54.32 56.16 57.29 57.90 59.28 59.52 60.92 60.86 60.61 60.11 58.73 58.79 57.20 56.77 55.20 52.01 49.77 49.92 48.31 47.16 45.40 45.34 45.80 43.13 45.37 45.26 43.48 44.44 45.18 45.19 45.61 45.76
44.16 44.77 38.30 37.49 30.71 28.89 34.08 35.22 38.99 42.95 44.61 46.94 48.87 49.99 51.02 51.55 51.66 53.12 55.30 57.46 58.43 59.38 60.04 60.86 61.28 60.53 60.85 59.49 58.88 58.39 57.26 55.16 54.06 51.26 48.93 46.65 46.27 45.68 45.32 44.84 44.90 44.32 41.81 44.03 43.52 44.33 44.28 44.57 45.06
41.41 40.75 39.29 39.98 36.88 32.82 30.39 35.18 43.37 44.33 45.28 47.20 47.62 48.35 50.41 51.79 53.60 53.98 55.51 57.96 59.04 59.80 59.92 60.21 60.37 60.31 59.11 58.86 58.29 57.01 55.81 54.73 52.33 49.58 48.07 47.25 46.76 45.93 44.54 43.35 44.20 40.89 41.67 42.26 42.34 42.85 43.20 43.07 44.20
43.45 42.43 41.43 36.99 33.72 33.55 32.97 35.60 45.19 45.56 44.66 45.44 47.59 47.05 49.14 51.00 53.78 55.20 56.55 57.61 58.13 58.64 58.79 58.75 58.63 58.12 57.43 55.65 54.19 54.38 53.26 51.45 49.93 49.00 48.45 48.09 45.90 45.11 43.73 42.97 40.80 41.52 41.02 41.72 41.18 40.75 41.93 42.58 41.96

GFSSGP_sfc_wetblb_036.txt.gz
Wetbulb
62.56 60.41 59.36 56.81 47.82 46.51 44.17 44.42 48.28 50.62 51.62 60.71 63.10 61.30 58.87 61.32 57.58 54.71 67.45 69.74 70.60 69.57 69.92 71.21 70.49 70.83 71.09 71.07 70.64 70.36 70.33 70.04 69.77 69.65 69.31 69.16 69.23 69.55 69.18 69.28 69.45 70.18 70.10 69.58 69.26 69.15 69.09 67.61 67.39
59.02 56.36 57.59 53.99 44.37 41.74 43.41 46.75 47.69 53.07 57.30 60.35 60.44 62.17 60.88 58.25 63.08 64.15 65.38 67.99 70.44 69.89 69.67 69.36 70.10 70.21 70.48 70.10 69.91 69.96 70.02 69.65 69.48 69.38 69.33 69.41 69.58 69.50 69.41 69.16 69.53 70.26 70.95 70.26 69.44 69.44 68.88 67.80 67.74
58.10 58.02 53.02 49.15 44.92 41.75 43.88 47.17 51.14 55.16 58.32 59.44 58.74 63.38 60.77 58.65 62.99 64.26 68.80 69.38 70.21 69.69 69.36 69.91 69.70 69.75 70.03 69.73 69.55 69.25 69.08 68.96 68.96 69.09 69.50 69.70 69.60 69.53 69.36 68.89 68.79 69.33 70.10 69.51 69.38 69.32 68.57 67.73 67.50
57.93 56.69 52.63 44.99 42.75 45.15 44.91 50.19 56.04 55.87 57.76 59.28 61.01 58.62 61.66 63.49 65.36 67.21 68.81 69.45 69.13 68.91 69.45 69.33 68.82 69.26 69.64 69.61 69.24 68.95 68.54 68.27 68.23 68.84 69.40 69.53 69.65 69.41 69.28 68.75 68.62 68.78 68.65 67.60 68.07 67.78 67.25 66.93 66.47
56.93 53.35 46.27 43.79 43.12 44.94 47.98 52.52 56.72 55.13 56.81 57.67 59.92 57.35 58.93 63.49 66.40 68.14 68.87 69.62 68.46 69.04 70.13 69.54 68.13 68.93 69.22 69.35 68.94 68.47 68.08 67.96 68.20 68.52 68.77 69.01 69.21 69.36 69.01 68.50 68.34 68.19 67.79 67.13 66.44 66.54 66.64 66.41 66.25
52.02 51.52 44.09 43.07 42.57 46.44 50.56 55.65 57.13 56.62 57.35 58.58 58.93 59.00 58.63 63.15 62.58 63.95 66.99 67.35 69.18 68.44 69.55 69.14 68.56 68.81 68.54 68.29 68.02 67.56 67.57 67.73 68.03 68.26 68.37 68.74 68.66 68.36 68.32 67.98 68.03 68.01 66.99 66.68 67.05 66.54 66.15 65.89 64.83
49.75 47.65 43.96 43.48 45.33 47.53 52.78 58.01 55.99 56.28 56.88 57.02 60.66 56.98 58.97 60.22 61.65 62.61 63.44 64.57 66.25 68.08 67.53 66.59 66.35 66.50 66.72 66.53 66.99 67.03 67.46 67.82 67.93 67.90 68.14 68.04 67.26 66.97 66.92 66.95 67.15 67.28 66.99 66.30 66.19 66.18 65.90 64.59 63.38
52.35 49.68 44.06 46.49 45.42 46.62 54.14 55.85 57.19 56.59 56.14 60.91 61.40 56.39 55.40 59.09 61.19 62.12 62.51 61.86 62.89 64.12 65.43 63.72 62.73 62.71 63.29 64.98 66.42 66.93 67.12 67.25 67.49 67.56 66.99 66.23 66.33 66.44 66.43 66.20 66.60 66.88 67.16 66.13 65.36 65.54 64.65 62.58 61.49
52.48 46.36 46.23 45.15 46.27 48.27 54.45 54.08 57.03 59.12 57.99 58.92 59.70 61.13 60.71 60.11 60.66 60.25 59.48 59.02 59.64 60.81 61.45 61.67 60.62 60.69 61.33 63.16 65.81 66.84 67.17 66.70 66.32 66.13 65.29 64.31 63.83 64.03 64.79 64.86 65.88 65.41 65.38 64.75 63.37 62.41 61.95 61.35 60.14
50.12 46.97 44.68 48.28 48.76 48.65 53.49 55.15 55.68 56.08 57.01 56.44 56.77 59.31 60.13 59.66 59.80 59.44 57.82 56.96 57.10 57.84 59.10 60.05 59.09 59.08 60.10 60.69 63.75 66.03 65.72 64.82 64.81 63.92 63.82 63.70 65.12 65.05 64.46 64.74 63.44 63.09 62.59 62.24 60.66 59.89 59.89 61.58 61.22
50.10 47.00 48.81 49.15 49.75 50.99 53.41 54.49 56.55 54.53 54.11 57.05 54.53 56.49 58.41 58.78 58.95 58.11 57.22 56.15 55.68 56.65 57.39 58.45 59.55 60.37 60.25 59.97 63.09 64.37 64.33 64.19 64.14 64.19 64.04 64.25 64.07 64.42 64.58 64.11 62.87 62.18 61.69 60.33 60.34 60.33 60.85 60.51 60.06
46.97 49.76 49.99 50.26 52.42 53.12 53.32 55.78 54.75 55.44 56.22 59.49 58.29 58.05 57.88 57.67 58.10 56.80 56.32 54.91 55.16 56.06 55.96 56.83 58.20 58.19 59.83 61.06 62.06 62.49 61.87 62.33 62.55 62.80 63.56 64.18 63.63 64.79 64.64 63.60 63.14 62.22 62.13 61.30 60.99 60.04 59.71 58.92 58.57
48.09 49.63 50.48 51.90 51.68 54.90 55.04 53.60 54.18 55.62 59.75 59.91 58.78 57.86 57.27 57.77 57.54 56.80 56.16 55.79 55.07 53.05 54.61 56.28 57.99 58.55 59.76 61.18 60.11 61.15 61.58 61.62 62.03 62.90 63.52 63.90 63.84 64.97 64.37 63.05 62.69 62.14 61.50 61.33 60.26 59.41 58.86 58.15 57.45
50.05 50.58 52.93 52.53 54.21 55.24 53.74 54.15 55.29 56.81 59.65 57.18 58.29 56.71 57.32 57.84 56.65 56.30 55.72 56.05 55.17 54.24 54.99 57.23 57.91 59.08 59.40 60.05 61.60 61.59 62.35 62.79 62.80 63.93 64.90 65.55 65.18 64.39 63.11 62.27 61.48 61.27 61.52 61.01 60.43 59.34 58.35 57.64 57.35
50.70 50.11 51.74 53.03 53.98 53.38 55.09 51.54 53.37 57.46 58.44 57.24 57.78 57.84 57.75 58.25 58.65 58.01 58.54 59.12 57.79 58.13 58.09 58.44 59.41 61.51 61.43 62.19 63.16 62.27 62.29 62.54 63.55 65.51 66.18 66.04 65.15 64.00 63.34 62.31 61.42 60.86 60.51 59.94 58.78 58.24 58.05 57.19 55.44
48.29 49.85 44.49 50.39 52.78 53.40 53.80 47.74 54.86 57.10 56.10 55.34 55.42 56.44 56.69 57.50 59.37 60.66 60.76 59.62 60.45 59.96 59.50 60.48 61.39 62.51 63.63 63.51 63.10 62.27 63.91 64.04 64.70 65.21 65.93 65.34 64.57 63.89 62.84 61.45 60.78 60.24 59.77 59.10 58.34 57.59 56.52 55.98 54.93
47.58 43.61 44.13 47.64 52.87 52.39 52.51 48.36 55.41 57.49 55.16 53.67 54.87 54.70 55.57 56.85 58.55 60.81 60.78 59.63 60.30 60.25 60.47 60.54 62.66 63.93 65.03 65.22 63.84 62.82 64.71 64.58 65.88 65.61 65.36 63.93 63.04 62.50 62.60 61.24 60.17 59.99 58.61 58.08 57.06 56.14 56.31 54.02 53.83
42.63 43.61 45.75 46.56 51.54 51.97 50.08 49.41 54.81 56.57 55.15 54.41 55.68 55.01 55.83 57.00 58.17 59.64 60.84 60.29 60.37 61.40 61.45 61.88 63.20 64.23 65.20 65.23 63.83 63.24 64.82 65.96 66.18 65.81 65.32 64.26 63.03 61.91 61.95 60.68 59.29 58.74 57.25 56.58 55.89 54.56 53.96 53.42 53.43
46.53 44.96 44.03 46.99 49.89 49.47 48.54 49.09 52.73 55.43 55.49 55.12 55.86 56.92 56.41 57.12 59.68 61.15 61.21 61.21 60.75 61.70 61.95 62.56 62.96 64.39 65.01 64.23 62.02 62.03 62.76 64.39 64.80 65.48 65.14 64.07 62.73 61.27 60.65 59.24 58.16 57.78 56.87 56.16 55.49 53.83 51.34 51.99 53.24
46.83 44.57 44.48 46.99 47.49 47.92 47.59 47.45 51.33 55.23 56.01 56.79 56.90 57.53 58.52 58.98 59.14 60.59 61.81 61.47 61.23 61.54 62.37 63.00 63.58 64.50 65.14 64.88 63.10 63.90 64.21 64.33 64.39 63.77 63.07 62.63 61.33 60.62 59.44 58.49 57.50 57.53 56.05 55.19 54.07 52.35 51.56 52.88 52.16
46.73 45.11 44.68 44.70 46.45 47.61 46.61 45.48 48.58 52.81 55.81 57.15 57.86 58.79 59.21 59.54 60.09 60.86 61.48 62.67 62.40 61.66 62.20 62.90 64.30 65.40 66.01 65.72 64.16 63.60 64.26 62.89 60.90 60.51 60.57 60.34 60.06 59.37 58.31 58.27 57.58 56.87 55.83 53.69 52.80 51.93 51.55 50.84 50.74
43.88 48.10 46.39 45.51 44.14 41.15 46.19 40.31 46.16 50.24 51.68 54.05 56.15 57.27 58.70 59.58 60.70 61.74 62.54 62.56 63.21 63.09 63.88 64.15 64.46 65.48 66.10 66.01 63.84 61.98 60.90 60.71 60.98 60.28 60.16 58.16 57.23 58.11 57.69 57.31 55.94 55.48 54.10 52.70 51.81 52.43 52.49 51.07 49.68
45.69 48.43 46.99 46.35 44.98 43.79 43.80 41.55 44.72 47.85 48.82 51.68 54.98 57.05 58.49 59.87 60.54 61.18 62.30 63.61 63.97 64.10 63.91 64.92 65.09 65.55 66.17 65.77 64.76 62.76 61.83 63.08 62.24 60.25 58.52 57.60 57.18 57.15 56.67 55.03 53.39 52.91 52.83 52.05 52.46 51.79 50.87 51.56 46.94
49.73 47.85 46.61 46.87 45.19 38.80 42.49 42.21 43.56 46.15 47.57 49.80 53.89 56.75 58.39 59.51 60.60 61.49 62.91 63.77 64.41 64.82 64.44 64.74 64.79 64.97 65.56 64.27 62.40 61.86 61.83 61.91 59.88 58.43 57.14 55.67 55.80 54.74 53.04 51.20 51.88 53.27 52.09 51.98 52.33 50.53 51.09 48.48 49.28
48.49 45.77 39.47 37.42 37.67 36.77 43.54 41.74 44.57 48.11 49.62 51.00 52.19 54.41 57.99 59.85 60.26 60.86 61.49 62.44 63.82 64.45 64.76 64.69 64.74 62.11 63.74 62.89 61.09 61.59 61.71 61.85 58.43 58.07 56.67 53.28 49.60 49.64 49.66 51.08 51.85 51.90 52.01 51.89 51.14 50.67 48.34 49.25 48.39
46.49 45.98 40.21 31.66 33.54 38.20 42.80 38.77 45.23 49.67 51.78 53.01 54.09 54.60 55.49 58.37 60.34 60.86 61.59 62.24 63.38 64.32 65.30 64.79 64.43 61.51 60.76 60.03 61.14 62.18 61.82 61.70 59.66 59.89 53.38 49.08 48.27 48.82 51.26 51.37 52.17 51.44 48.67 49.97 49.44 48.21 47.29 48.04 48.60
45.73 43.01 47.05 40.77 41.04 38.82 41.54 44.03 48.30 49.16 49.94 51.54 52.53 53.69 54.85 55.93 56.99 59.21 61.42 62.35 62.86 63.45 64.59 64.98 64.37 63.40 62.66 60.31 58.98 60.06 60.58 60.58 60.37 59.38 52.52 50.60 51.71 51.76 51.52 51.52 50.13 49.34 49.41 48.69 48.79 47.02 47.88 48.17 49.04
47.84 49.11 41.54 43.45 33.87 32.18 38.73 40.08 42.42 45.64 46.88 49.33 50.41 51.87 54.49 56.35 56.12 57.11 58.54 60.28 62.33 63.10 64.31 64.87 65.21 64.67 63.99 60.66 60.24 60.53 60.64 60.63 60.57 59.76 55.11 53.82 53.41 53.64 51.11 50.38 49.24 47.46 46.81 47.67 47.32 44.76 47.77 48.24 48.26
45.65 44.53 44.94 44.74 42.49 35.76 34.10 39.46 47.64 47.37 48.32 49.26 51.17 52.38 54.09 55.44 57.51 57.88 58.97 60.20 61.36 62.38 63.35 63.78 64.25 64.63 64.79 62.83 62.02 61.65 61.84 61.31 60.77 59.57 56.43 54.84 54.05 52.73 48.70 49.78 48.32 45.88 46.89 45.70 45.18 46.70 46.99 45.38 45.49
48.49 45.97 46.34 40.68 38.41 40.84 39.74 39.40 49.59 50.51 50.70 50.74 51.62 51.30 53.52 55.44 56.59 59.35 59.77 60.74 61.66 61.88 62.56 63.03 63.63 63.81 64.63 64.84 63.96 62.35 61.66 60.81 59.25 57.27 55.61 54.68 52.70 51.54 50.36 50.11 47.33 44.22 45.56 45.91 44.44 44.56 43.50 43.72 43.82

GFSSGP_sfc_wetblb_039.txt.gz
Wetbulb
64.02 63.13 60.68 56.62 48.17 47.55 44.51 46.42 49.85 49.03 50.54 57.13 60.85 60.09 54.78 60.12 55.90 52.86 68.67 70.10 70.22 69.50 70.47 71.90 71.28 71.86 71.94 71.80 71.24 70.82 70.70 70.30 70.00 69.90 69.69 69.39 69.46 69.73 69.83 70.10 70.32 70.43 70.57 69.67 68.90 67.97 67.56 67.10 66.67
61.88 57.68 56.62 53.22 45.53 42.66 44.36 48.42 46.74 49.91 56.43 61.53 62.41 62.73 60.58 59.60 64.87 65.24 67.25 70.31 69.31 69.50 70.64 72.22 70.84 71.19 71.22 70.82 70.50 70.23 70.12 70.12 69.85 69.66 69.34 69.69 69.83 70.15 70.20 70.53 70.64 70.74 70.89 69.76 68.63 67.90 67.31 66.91 66.74
59.23 58.03 53.00 50.05 46.43 42.76 43.41 48.32 49.26 54.27 57.30 59.34 58.55 63.45 62.21 59.87 63.28 65.52 69.98 71.27 69.72 67.90 69.87 70.91 69.95 70.21 70.40 70.12 69.77 69.52 69.40 69.51 69.24 69.27 69.83 69.91 69.98 69.98 70.03 70.26 70.69 70.91 70.89 69.78 68.62 67.65 66.98 66.73 67.25
58.00 56.57 53.30 45.26 43.99 46.47 47.15 49.82 53.56 54.52 56.75 59.49 60.00 59.17 62.14 62.18 60.48 62.78 68.79 71.71 70.00 66.33 67.81 68.96 69.11 69.55 69.76 69.76 69.54 69.17 68.90 68.42 68.74 69.12 69.61 69.98 69.98 69.76 69.64 69.10 69.71 70.54 70.58 69.48 68.40 66.96 66.26 66.76 66.51
56.44 53.54 46.85 46.05 45.36 47.03 48.82 50.58 54.81 54.77 57.61 58.38 60.58 57.47 61.04 64.14 66.40 66.80 68.21 70.30 68.81 66.07 67.67 69.02 68.34 69.01 69.47 69.70 69.28 68.77 68.54 68.33 68.85 69.06 69.19 69.24 69.39 69.53 69.16 68.44 68.42 68.86 69.05 68.34 67.06 66.17 66.30 66.46 65.83
52.52 52.20 45.28 42.82 44.62 46.81 50.43 54.86 55.64 56.58 57.98 59.25 58.98 58.96 60.38 63.12 63.81 65.01 68.86 68.92 69.48 68.10 68.51 68.10 68.94 68.88 68.66 68.64 68.24 68.03 67.88 68.36 68.64 68.87 69.05 69.35 69.24 68.97 68.73 68.45 67.84 68.05 67.98 67.48 67.09 66.83 66.10 65.15 64.03
50.80 49.00 45.77 44.75 45.17 48.82 52.45 57.70 56.17 56.83 56.83 58.51 62.24 57.57 60.33 60.52 62.46 63.95 65.09 66.79 68.19 67.08 67.17 67.19 66.97 67.67 67.32 66.83 66.82 67.17 67.75 68.11 68.20 68.32 68.39 68.10 67.49 67.39 67.69 67.49 67.19 66.94 66.93 66.91 66.68 66.18 65.41 63.85 63.32
52.29 50.23 45.74 46.37 46.01 45.40 55.14 56.30 58.44 57.81 58.46 62.44 62.91 56.69 58.05 60.09 61.77 62.56 62.73 62.62 65.72 65.92 65.56 66.05 66.19 67.66 67.26 66.99 66.70 66.92 67.27 67.54 67.71 67.49 66.76 66.28 66.43 66.48 66.87 66.75 67.29 66.63 66.48 66.47 65.96 65.09 63.69 62.47 61.66
53.56 47.51 44.91 45.97 46.59 48.08 54.68 54.76 59.23 60.35 58.76 60.72 62.41 62.61 62.13 61.03 61.69 61.75 60.43 60.78 60.23 62.56 63.12 62.80 62.20 63.14 64.79 64.87 66.35 66.75 67.49 67.16 66.22 66.12 65.19 63.98 63.57 64.31 65.13 65.74 66.61 66.16 65.15 65.32 64.83 63.77 62.91 61.96 61.18
50.67 47.77 46.23 50.04 50.50 49.98 52.47 55.19 57.12 56.63 57.84 58.32 57.39 59.69 60.59 60.55 60.57 59.65 58.77 57.64 58.96 58.80 59.65 60.27 59.83 60.32 60.23 63.61 65.59 65.39 66.14 65.48 64.74 63.99 63.26 63.08 65.28 65.60 64.20 64.23 64.35 64.10 63.42 62.91 62.83 62.31 62.15 61.92 61.04
51.32 47.97 49.83 50.20 51.98 52.69 52.65 54.87 57.57 55.92 54.35 57.04 57.14 56.97 58.66 59.11 59.37 58.12 57.69 57.77 57.39 58.29 57.75 58.85 59.32 58.88 59.27 59.62 62.53 63.00 64.12 64.87 64.91 64.42 65.58 65.66 64.95 64.62 64.08 62.47 62.58 62.83 62.59 60.79 59.88 59.72 62.20 61.97 61.12
48.37 50.79 50.94 51.50 51.97 52.85 53.76 56.73 55.51 57.21 57.99 61.62 60.13 59.45 59.20 58.47 58.26 57.46 55.74 55.84 55.41 56.58 56.99 57.50 58.69 58.20 59.11 58.64 59.92 62.07 61.91 63.63 63.75 63.93 64.86 65.45 64.26 65.35 64.01 63.60 63.84 63.52 62.91 62.10 62.59 61.94 61.29 60.60 59.69
49.65 50.80 52.15 53.50 53.23 54.31 56.29 54.76 55.08 56.77 59.77 60.42 59.21 58.25 57.49 57.92 57.19 58.43 56.54 55.68 55.04 54.66 55.52 56.16 57.10 56.25 57.47 58.19 59.72 61.37 61.86 62.08 62.81 63.37 63.76 63.94 64.24 65.33 64.63 64.30 63.71 63.54 63.38 62.74 61.86 60.67 60.14 59.22 58.64
51.68 51.57 52.95 53.40 54.33 55.96 54.48 54.96 56.84 58.19 60.06 58.85 58.31 57.85 57.11 57.28 56.40 55.07 54.87 53.03 53.71 54.06 55.05 56.28 57.31 58.58 58.80 57.44 58.32 59.42 60.88 61.94 62.75 62.96 63.47 64.11 64.10 66.46 64.18 63.99 63.37 63.06 63.11 62.95 62.01 60.71 59.39 58.50 58.33
51.93 49.95 52.17 52.88 54.25 54.15 55.95 49.33 54.22 58.36 59.16 58.20 56.94 56.23 55.17 56.58 56.08 55.52 55.67 52.97 53.24 53.86 55.34 55.88 56.71 57.84 57.92 57.85 59.02 59.90 61.21 61.37 61.61 62.36 66.12 65.05 65.03 66.10 65.18 64.15 63.34 63.11 63.14 62.40 61.09 59.89 58.73 57.52 56.08
49.39 50.71 47.30 50.90 53.09 53.98 50.28 42.78 55.27 58.19 57.40 56.48 56.74 56.62 55.28 57.38 59.01 57.46 56.87 55.31 54.73 55.22 55.68 55.81 56.94 57.26 59.62 60.17 62.38 61.53 62.65 62.70 62.36 64.02 65.88 65.87 65.62 65.73 65.03 63.36 63.10 63.00 62.39 61.59 60.29 58.73 57.34 56.44 55.53
48.52 43.95 46.91 47.77 52.83 53.11 52.90 44.86 55.49 58.02 55.20 53.70 55.85 55.88 55.33 57.17 59.19 60.77 61.45 59.29 58.15 57.93 58.69 57.11 59.97 59.67 62.31 62.43 63.10 62.21 62.83 62.78 62.17 64.53 66.44 66.33 65.69 65.26 65.03 63.79 63.03 62.50 61.53 60.56 59.40 57.83 56.96 54.78 54.30
44.02 44.57 46.51 46.13 51.03 52.10 50.73 49.54 55.60 57.01 56.00 54.80 53.51 54.33 53.51 55.18 57.25 59.10 59.26 60.21 61.24 60.30 59.39 59.57 61.50 62.11 63.34 62.85 63.06 62.15 61.97 63.09 64.49 65.97 65.70 65.62 64.88 64.54 64.39 63.76 62.56 62.01 60.67 59.59 58.16 56.86 56.03 54.86 54.94
48.14 45.95 45.29 47.96 51.95 50.33 49.33 49.71 51.60 56.75 56.17 55.32 54.90 54.95 55.74 56.86 59.00 60.40 59.83 60.32 60.13 60.77 59.97 60.61 61.25 62.84 63.44 62.45 61.50 60.85 59.87 62.23 64.34 66.10 65.53 65.88 65.32 64.12 64.20 63.21 61.85 61.07 59.49 58.76 57.76 56.36 54.43 53.51 55.21
47.80 45.96 45.67 47.64 49.26 49.00 48.41 48.17 51.17 56.11 56.19 56.64 56.24 56.67 56.75 57.59 58.40 59.59 60.47 60.09 60.37 60.64 60.93 60.81 61.28 62.30 63.66 64.09 62.58 61.67 62.22 62.92 64.12 65.47 65.67 65.74 65.35 63.90 63.48 62.87 61.06 60.29 58.92 57.93 56.87 55.60 53.57 54.95 55.05
46.80 45.78 45.93 45.46 48.68 49.62 48.32 46.27 48.39 53.27 56.60 57.66 57.63 58.24 58.09 57.84 57.80 59.12 59.92 60.94 60.90 61.25 61.94 62.35 63.16 63.08 64.52 64.87 63.79 62.54 63.48 64.08 63.56 63.71 63.79 64.63 64.57 63.26 62.55 61.72 60.56 59.72 58.81 56.64 56.49 54.98 54.68 53.67 54.35
43.98 48.57 47.57 46.46 45.70 42.23 48.82 40.02 46.21 50.23 52.14 55.45 57.28 57.91 58.17 58.82 59.67 59.58 60.67 61.07 61.46 62.06 63.87 63.64 64.18 64.27 64.74 65.53 63.65 62.24 61.38 61.15 62.81 63.37 63.40 63.29 62.71 61.82 60.54 59.73 60.06 59.36 58.19 57.06 55.89 54.66 55.26 53.84 51.80
46.35 49.91 47.98 47.82 46.25 45.40 45.21 42.05 44.94 48.74 48.42 51.46 55.30 57.40 58.07 59.01 59.77 59.98 60.91 61.95 63.15 63.42 64.03 64.75 64.23 64.40 65.62 65.58 65.93 64.02 62.43 63.11 64.13 63.17 62.60 62.37 60.24 59.99 59.08 59.50 59.29 58.40 56.69 56.88 55.97 54.54 54.15 52.72 51.45
50.61 48.72 48.32 48.29 46.41 40.11 43.89 43.56 42.39 46.49 47.99 49.89 53.46 56.22 57.99 58.54 59.42 60.19 61.73 62.83 62.81 64.19 64.95 65.62 64.18 63.88 64.97 66.33 65.51 64.70 63.39 62.88 62.99 62.37 60.97 60.13 59.73 59.10 59.19 58.32 57.93 56.59 54.54 54.74 54.16 54.35 53.07 53.27 51.85
49.19 46.18 39.29 38.33 38.46 37.81 45.30 43.19 44.85 47.82 50.43 50.75 51.61 54.72 57.70 59.11 59.31 59.71 60.09 61.04 62.86 63.71 64.68 65.16 64.19 63.94 64.98 65.42 65.42 63.37 62.04 62.78 62.52 61.99 60.26 59.27 59.42 58.64 58.11 54.43 52.30 52.51 52.60 54.36 54.66 53.52 49.92 50.80 49.75
47.18 46.48 40.81 30.68 35.72 38.69 45.07 39.75 44.39 50.70 52.01 52.39 53.00 54.66 55.85 58.62 59.56 59.74 59.93 61.80 62.95 64.16 65.14 64.81 64.39 64.15 64.89 64.56 63.95 62.42 61.24 60.78 61.91 63.13 61.16 60.15 59.76 57.45 52.70 50.57 50.94 51.62 54.03 54.22 52.53 49.64 51.39 50.71 50.42
46.69 43.90 48.83 42.55 44.04 40.10 42.82 45.34 48.62 49.72 49.79 51.07 52.09 54.63 55.93 56.56 58.90 59.76 60.31 60.86 62.73 63.93 65.45 66.66 65.14 64.76 64.79 64.49 62.26 61.81 62.08 61.82 62.52 61.94 61.69 60.35 55.73 51.38 50.27 50.59 50.41 52.32 52.92 50.26 50.34 49.90 47.51 49.22 49.71
48.65 50.61 43.10 44.04 34.96 33.55 39.93 42.02 43.14 46.73 48.13 49.67 50.38 52.03 55.01 56.90 57.44 58.63 60.32 61.35 62.32 63.80 64.96 67.43 66.73 65.36 64.82 62.94 63.68 61.76 62.10 62.91 63.00 62.48 60.61 58.22 54.41 52.98 52.07 51.69 51.60 51.69 50.47 50.11 50.37 47.35 48.76 47.86 48.72
46.47 45.91 46.58 45.93 43.63 36.54 35.58 40.44 49.17 48.32 49.62 49.30 51.17 52.09 53.51 54.87 57.51 58.48 59.40 60.69 62.00 63.59 64.48 65.33 66.23 65.96 64.53 64.07 63.95 61.37 61.58 61.76 61.80 61.27 59.86 56.67 54.56 53.75 52.90 52.79 51.80 49.38 49.11 49.69 48.39 46.92 46.02 47.16 47.77
48.68 47.00 47.11 41.95 40.05 42.89 41.52 41.38 50.89 50.95 51.47 51.67 51.84 52.73 54.01 55.36 56.49 59.24 60.49 61.14 61.44 62.20 63.24 64.27 65.24 65.65 65.81 64.98 63.30 61.91 62.88 62.04 60.98 60.42 59.24 57.60 55.97 55.31 54.29 52.12 49.64 48.61 49.30 48.13 44.83 43.02 46.06 45.11 42.91

GFSSGP_sfc_wetblb_042.txt.gz
Wetbulb
62.33 62.10 61.17 57.19 46.45 46.17 42.37 44.22 48.92 47.54 49.91 55.47 56.62 54.23 53.09 56.99 53.55 51.51 63.70 62.94 64.38 68.27 71.62 71.96 71.47 71.99 72.09 71.82 71.61 71.16 70.77 70.66 70.63 70.34 69.88 69.73 70.37 70.39 70.32 70.22 70.27 70.98 70.05 68.20 67.81 67.35 66.69 65.70 65.68
60.18 60.39 56.92 51.02 43.93 40.88 42.30 47.56 46.79 50.22 55.82 57.28 54.60 55.76 53.49 55.14 60.09 64.21 65.97 67.05 68.94 69.39 71.27 71.65 71.29 71.43 71.49 71.20 70.68 70.44 70.56 70.44 70.26 69.76 69.64 70.20 70.41 70.63 70.83 70.46 70.25 70.56 70.16 68.17 67.79 67.22 66.46 65.86 66.33
58.74 58.19 51.22 47.98 45.12 41.07 42.29 47.50 48.75 53.61 55.87 55.57 53.31 56.69 60.34 55.58 58.86 63.56 67.08 68.68 68.94 69.00 71.06 70.98 70.52 70.40 70.84 70.59 70.20 69.76 69.77 69.55 69.33 69.36 70.07 70.41 70.46 71.10 71.07 70.72 70.39 70.59 70.10 67.99 67.56 66.84 66.21 66.22 66.44
58.55 55.50 52.53 44.87 41.93 45.58 46.42 48.56 51.21 52.99 52.43 55.72 56.50 56.64 60.08 63.87 61.83 62.13 64.90 67.81 67.03 67.32 70.44 69.11 69.37 69.84 69.98 69.94 69.77 69.45 69.14 68.75 68.61 69.28 70.05 70.39 70.66 70.73 71.04 70.50 70.44 70.76 70.03 67.73 66.87 66.18 65.87 66.51 65.61
56.34 52.01 45.96 44.05 44.87 47.08 49.76 51.20 51.97 52.78 51.50 52.30 55.09 52.14 54.14 62.43 65.72 66.44 65.25 68.80 66.06 67.86 69.17 69.25 68.30 69.21 69.80 69.77 69.61 69.19 68.80 68.65 69.01 69.32 69.40 69.65 69.80 69.67 69.66 69.73 70.05 69.93 69.34 67.64 66.33 65.73 66.11 65.84 65.03
51.27 51.88 43.72 42.17 44.89 49.59 51.62 52.38 54.68 53.25 53.82 52.28 53.44 50.35 51.97 63.04 63.28 64.16 66.62 68.14 67.89 66.75 68.52 68.59 69.23 69.04 68.83 68.69 68.79 68.26 68.43 68.69 68.93 68.97 68.89 69.45 68.92 68.49 68.65 68.78 68.72 68.72 67.94 67.34 67.01 66.42 65.75 65.04 64.34
49.35 47.88 44.50 44.89 45.28 48.14 47.87 52.49 51.01 52.57 52.79 51.44 53.18 49.73 57.69 59.97 62.41 63.60 64.59 67.21 66.76 66.47 67.38 66.78 67.27 68.04 67.33 67.20 67.17 67.34 68.06 68.31 68.48 68.71 68.66 68.19 67.70 67.57 67.39 67.70 68.13 67.88 67.15 66.80 66.22 65.70 64.95 64.12 63.35
51.57 48.74 44.98 45.86 45.63 46.57 51.57 52.26 54.66 55.87 53.21 57.44 57.84 55.74 57.03 58.99 62.26 62.64 62.57 63.50 65.51 64.88 64.95 64.68 65.02 65.35 65.91 66.34 66.62 67.19 67.27 67.47 67.30 67.16 66.65 66.37 66.62 67.03 66.68 66.54 66.90 66.89 66.68 66.29 65.77 64.81 64.00 62.84 61.65
53.23 45.48 43.75 45.81 46.46 48.29 53.37 53.05 53.13 54.00 56.95 59.73 59.94 59.33 59.35 61.15 62.93 61.81 61.03 59.94 61.90 63.50 63.58 64.53 64.55 63.52 64.96 65.86 66.77 67.25 67.68 66.84 66.34 65.98 65.19 63.79 62.82 62.14 64.74 65.70 65.97 66.17 65.58 65.33 64.85 64.00 62.67 61.49 60.79
49.32 45.92 46.68 49.37 49.59 49.05 50.80 52.97 51.02 53.00 55.73 54.47 54.57 59.08 60.73 61.44 60.78 59.10 58.53 57.88 58.19 59.61 60.36 61.60 63.16 63.73 64.34 65.36 65.71 65.83 66.10 64.95 64.41 63.42 62.82 62.75 63.22 63.51 64.17 64.58 64.42 64.36 64.42 64.51 63.72 62.81 62.17 61.05 56.20
49.89 46.14 49.80 49.76 51.34 51.44 50.84 52.32 53.47 55.33 53.57 55.41 51.02 56.81 58.26 59.23 57.78 57.11 57.22 57.58 57.22 58.01 58.90 59.81 60.06 60.78 60.87 61.73 63.25 63.13 63.04 63.18 63.26 62.78 63.76 62.86 62.66 62.43 61.82 61.69 61.12 60.20 61.11 58.41 59.20 59.11 58.09 59.06 57.38
47.01 49.81 50.56 50.70 51.78 51.22 49.95 55.32 54.15 56.34 57.33 59.59 58.89 58.77 58.84 58.15 56.98 55.99 55.23 55.80 56.18 56.14 57.54 57.87 58.74 58.88 59.48 60.32 60.90 61.87 61.93 61.97 61.87 63.36 63.66 62.72 62.64 61.48 60.54 60.58 60.87 60.31 59.85 57.50 58.23 58.94 58.46 56.92 56.68
48.62 49.53 51.15 52.17 52.88 52.49 54.39 53.65 54.13 56.88 58.52 59.55 58.96 58.79 57.90 57.67 56.02 55.54 55.29 55.21 55.41 55.15 55.55 55.55 56.56 56.44 56.73 57.46 58.10 59.58 60.65 60.93 62.04 62.57 63.22 63.16 62.46 63.18 61.76 60.95 60.84 60.13 61.04 60.38 59.02 57.88 57.20 55.99 55.60
51.50 51.06 50.60 52.75 52.14 53.40 53.12 49.74 51.15 56.11 59.35 57.63 57.98 56.98 56.71 55.80 55.06 54.18 54.32 53.89 54.03 54.34 54.56 55.55 55.88 56.21 56.37 55.69 55.87 56.85 58.81 59.68 60.82 61.62 62.12 62.93 62.97 62.90 62.43 62.57 62.21 61.32 60.74 60.39 59.02 57.75 56.20 55.02 54.55
51.02 47.85 49.91 51.98 52.96 52.64 53.16 47.31 47.01 52.83 57.81 55.83 55.62 55.75 55.31 55.15 55.17 54.28 53.80 52.88 53.81 54.20 55.10 55.29 56.18 56.06 55.18 55.92 57.34 58.22 57.93 58.62 57.78 59.68 62.48 62.86 62.26 63.84 63.23 61.53 60.96 60.91 60.76 60.17 58.43 56.72 55.27 53.70 52.81
48.44 48.17 44.59 51.13 53.02 53.02 51.53 42.58 50.17 52.94 55.03 53.08 52.80 53.68 55.05 55.34 55.90 55.54 54.09 53.50 54.11 54.17 54.67 56.06 57.72 56.27 56.13 56.47 55.56 56.08 57.44 57.51 58.09 59.50 62.67 63.26 63.34 63.93 62.90 62.19 60.92 60.95 59.74 58.71 57.41 55.90 54.26 52.83 51.26
46.79 42.43 45.13 48.05 51.84 52.30 51.17 44.42 49.90 53.68 56.09 53.71 53.52 54.53 56.21 56.13 55.83 55.48 54.38 54.43 54.60 54.72 55.28 55.73 55.48 54.80 54.52 54.98 55.40 55.88 58.02 61.11 60.18 60.41 62.38 64.19 63.89 63.63 62.92 62.15 61.63 60.70 59.46 58.49 57.18 54.90 53.70 51.02 50.16
42.57 43.81 45.70 46.49 50.25 50.73 48.67 47.38 49.19 51.83 53.86 53.17 54.29 52.71 54.88 56.08 56.73 57.23 56.44 55.83 56.37 55.67 55.53 55.63 55.11 54.40 54.80 54.61 56.48 58.76 60.55 60.32 60.38 60.15 62.89 63.26 63.51 64.18 63.13 62.42 60.91 59.53 58.53 57.12 55.73 53.19 51.83 50.91 50.25
46.31 45.71 45.13 48.95 51.53 49.81 49.05 49.47 50.01 54.19 53.99 52.88 52.22 50.02 52.28 54.40 57.30 59.22 57.74 57.21 56.81 57.38 55.38 55.86 54.74 55.69 57.40 58.16 58.72 59.25 57.66 59.20 60.30 62.55 63.14 64.07 63.58 63.09 62.19 61.57 60.27 59.39 57.95 56.30 55.71 53.21 50.40 48.58 50.14
46.47 44.45 44.93 47.46 50.38 48.56 47.40 47.33 52.60 54.40 54.43 54.49 52.91 52.65 53.00 54.92 56.77 57.21 57.45 57.65 58.23 57.09 56.85 58.04 57.50 59.02 60.35 60.63 59.39 59.69 59.09 59.29 60.93 63.06 63.92 63.89 63.41 62.71 62.05 61.36 59.36 58.78 57.05 56.39 54.08 52.78 50.28 50.61 50.80
45.20 44.10 44.86 45.26 48.16 49.42 47.25 45.23 47.66 53.83 55.02 55.91 56.28 56.37 55.99 55.64 56.48 57.05 57.44 57.97 58.33 56.77 57.20 58.09 59.45 60.29 61.27 61.81 61.49 60.51 60.39 59.48 60.03 61.27 62.75 63.25 63.35 62.66 61.40 61.38 59.41 58.29 57.46 54.93 54.29 52.92 50.94 48.73 49.53
42.21 47.36 47.13 46.40 44.98 40.30 48.06 38.93 45.86 50.87 51.65 54.00 55.24 55.63 55.94 56.46 57.36 58.21 58.07 57.44 58.06 58.88 59.25 59.40 59.88 60.28 61.54 62.63 62.33 59.44 58.19 57.61 60.17 61.34 61.74 62.33 63.06 62.44 60.76 60.30 59.06 58.42 57.04 54.72 54.00 54.17 52.29 50.75 48.40
44.74 49.48 47.94 47.08 44.31 44.74 44.41 41.36 44.09 48.68 47.94 52.14 54.86 56.23 56.95 57.55 57.61 57.81 58.52 59.06 59.09 60.20 60.33 60.69 60.77 61.44 62.07 62.49 62.95 61.42 59.24 60.64 62.37 61.47 61.55 61.23 61.22 60.47 60.41 58.31 57.21 57.29 56.71 56.26 53.50 52.32 52.27 51.84 47.56
50.14 48.37 48.10 47.12 44.63 38.39 43.48 42.22 42.57 45.44 47.67 50.29 53.90 56.49 57.38 57.49 58.19 58.77 59.91 60.55 60.42 60.64 61.08 61.70 61.59 62.07 62.75 63.08 62.99 62.11 59.67 60.75 60.86 60.34 59.39 59.61 58.42 57.88 57.97 57.61 57.22 57.07 56.43 54.24 52.64 51.90 52.04 49.23 47.90
48.21 45.16 38.13 36.68 36.97 36.46 45.04 42.30 44.56 48.61 50.66 51.51 52.14 53.53 57.36 58.05 57.90 58.47 58.67 59.46 60.48 60.59 60.69 61.60 62.01 61.65 62.75 63.06 63.15 62.87 62.22 61.57 60.39 59.69 59.81 58.80 57.00 56.90 57.03 57.26 56.28 54.85 53.62 52.75 51.32 51.92 51.04 49.38 46.46
46.05 44.99 39.17 31.13 31.62 37.05 44.50 39.84 43.77 50.77 51.88 52.36 52.67 54.05 56.24 57.84 58.25 58.55 58.83 59.88 60.40 61.32 61.64 61.65 61.52 61.26 62.12 63.00 63.11 63.13 63.01 61.65 61.45 61.01 60.21 58.68 57.85 57.81 57.91 57.08 53.19 51.78 51.65 51.21 51.25 51.63 49.73 48.52 47.40
46.02 42.75 47.45 40.14 40.09 36.15 39.66 44.73 47.93 50.16 49.64 50.28 51.13 53.29 54.56 55.65 58.06 58.74 59.29 59.68 61.20 61.73 62.23 62.46 62.47 62.15 62.48 62.62 63.63 62.80 62.60 61.90 61.23 60.54 61.05 59.02 58.57 57.08 54.09 52.84 51.20 50.60 51.23 50.96 49.42 48.11 48.11 47.19 46.54
47.13 49.45 42.44 43.20 34.07 32.49 39.23 40.76 41.85 46.29 47.46 49.84 50.06 52.03 55.30 57.20 56.66 58.44 58.44 59.51 60.76 62.59 63.56 63.79 63.37 61.91 63.29 63.44 64.05 62.96 62.55 60.82 60.10 60.80 60.36 59.44 57.48 53.14 52.12 51.20 50.39 50.11 49.85 49.11 48.21 48.05 47.39 46.17 45.70
45.03 43.72 45.82 45.77 43.21 35.91 34.58 39.43 47.56 46.48 47.90 49.95 51.25 52.60 53.98 55.60 57.83 58.01 58.70 59.71 60.54 61.41 62.51 63.71 63.88 63.79 63.27 63.50 63.42 62.58 62.03 61.10 61.43 61.27 60.75 59.86 53.89 53.30 51.78 50.98 50.11 49.36 48.70 48.22 47.35 46.27 45.94 44.85 45.10
47.51 45.72 45.73 40.43 39.07 42.57 41.59 39.96 50.87 51.38 50.91 52.36 52.88 53.20 54.28 55.89 56.74 58.47 59.45 59.86 59.66 60.19 61.93 64.11 64.72 64.28 63.58 63.50 63.33 62.57 61.28 60.30 59.85 59.76 59.69 56.10 54.15 53.17 52.51 51.54 50.33 49.76 48.48 48.03 46.30 45.59 43.56 43.93 42.86

GFSSGP_sfc_wetblb_045.txt.gz
Wetbulb
58.45 56.76 56.80 52.18 40.76 36.66 34.37 38.76 44.20 44.13 50.03 54.86 55.51 53.46 51.08 54.98 54.53 51.23 62.15 62.34 62.87 64.21 65.52 70.40 71.28 71.88 71.81 71.77 71.37 70.87 70.79 70.77 70.31 70.04 70.55 70.87 70.85 70.78 71.06 70.70 69.11 69.27 69.01 67.33 66.34 66.29 66.58 66.42 66.34
56.49 56.29 53.86 46.88 35.32 30.27 36.16 43.38 43.21 51.24 54.75 55.22 55.32 54.94 53.17 53.48 57.98 61.35 62.70 62.93 63.95 63.68 63.70 69.84 70.60 71.37 71.61 71.08 70.79 70.58 70.77 70.26 69.80 70.16 70.48 70.60 70.65 70.63 70.70 70.02 68.94 69.23 68.95 66.85 66.26 66.05 66.52 66.28 66.58
57.79 55.52 45.07 39.34 34.95 34.29 35.25 42.72 46.51 51.79 54.95 54.06 53.25 57.85 57.78 54.52 58.44 61.37 63.71 63.74 68.31 68.92 68.52 69.96 70.05 70.85 71.01 70.64 70.22 70.01 69.97 69.37 69.57 70.03 70.48 70.58 70.82 70.97 70.77 69.94 69.04 69.33 68.85 66.71 66.05 65.87 65.69 65.75 65.75
54.00 49.41 46.46 37.41 36.22 40.43 42.78 46.94 48.24 52.09 53.29 54.20 55.78 53.99 57.76 61.69 62.98 64.78 63.91 67.61 66.91 67.79 68.85 69.18 69.80 70.40 70.62 70.25 70.00 69.55 68.95 68.57 69.16 69.82 70.20 70.89 71.04 71.02 70.49 69.79 69.31 69.35 68.24 66.48 65.94 65.51 64.99 65.35 64.73
51.99 44.97 37.22 36.14 38.96 43.94 47.94 49.05 50.23 52.15 52.38 52.48 53.32 48.90 54.37 61.04 64.51 65.46 66.40 66.82 66.45 66.43 65.90 68.67 68.54 69.30 69.58 69.84 69.66 69.19 68.70 68.88 69.33 69.69 70.20 70.70 71.08 70.76 70.34 69.76 69.19 68.65 68.07 66.36 65.55 64.96 65.16 64.73 64.32
44.53 44.29 36.22 36.47 41.17 47.60 47.99 49.58 50.92 52.53 54.45 52.99 51.71 51.31 52.61 62.01 62.01 63.59 65.57 66.70 66.25 66.83 67.64 68.34 69.17 68.94 68.85 68.99 68.71 68.34 68.76 69.00 68.96 69.17 69.40 69.79 69.87 70.00 70.06 69.68 68.72 68.05 67.43 66.97 66.16 65.50 64.83 64.30 64.00
42.22 38.77 36.47 38.83 41.14 45.18 47.38 51.72 51.06 51.41 53.04 51.53 55.06 50.77 54.63 59.79 62.25 63.26 64.93 64.53 64.75 66.89 66.80 66.58 67.62 68.40 67.90 67.37 67.61 67.73 68.32 68.51 68.62 68.63 68.37 68.20 68.14 68.30 68.91 68.82 68.25 67.69 67.19 66.43 65.82 65.12 64.11 63.22 62.77
45.40 40.92 37.83 40.24 40.79 41.59 49.50 53.20 52.66 52.71 52.30 56.20 56.26 52.53 52.77 59.02 61.99 62.45 64.18 64.27 64.13 65.09 64.62 63.88 65.17 65.96 66.54 66.54 66.32 67.32 67.63 67.65 67.51 67.35 66.88 66.48 66.75 67.45 67.69 67.57 67.19 66.96 66.43 65.85 65.17 64.32 63.18 62.07 61.10
46.41 37.80 37.07 40.17 42.55 45.03 51.53 50.35 53.43 54.20 55.18 56.34 58.41 57.91 59.22 61.52 62.39 61.22 60.99 62.04 62.03 62.74 63.01 63.20 62.62 63.83 64.47 64.23 66.63 67.51 67.71 66.88 66.36 66.06 65.56 63.16 62.20 62.76 64.49 65.88 66.33 66.22 65.37 65.17 64.34 63.39 62.33 61.14 60.42
42.11 36.73 40.41 46.87 45.56 45.42 50.77 49.68 50.50 50.93 49.97 52.61 55.89 58.81 60.73 60.35 59.53 58.83 58.09 58.09 60.46 60.80 61.67 62.44 61.42 61.64 62.68 64.37 65.11 65.74 65.66 64.35 63.59 62.63 60.49 60.53 61.64 62.49 63.47 64.63 65.07 65.00 64.36 64.19 63.72 62.58 61.65 58.99 54.09
44.07 39.71 45.65 47.23 48.68 47.48 45.92 50.11 53.60 50.09 46.92 53.00 51.88 56.02 58.27 57.60 57.07 57.26 57.20 56.72 57.25 59.15 60.25 62.08 61.72 62.05 62.57 63.16 62.26 63.86 63.62 63.28 61.60 61.20 61.22 61.82 62.08 61.67 61.09 60.94 61.04 61.27 62.10 60.03 60.38 59.18 56.60 56.20 54.54
41.69 46.11 46.60 47.01 48.61 47.91 48.06 51.99 53.05 54.19 55.04 58.06 56.97 58.01 58.37 56.38 55.67 55.55 55.58 55.86 56.00 56.50 57.38 59.92 60.14 61.08 61.42 62.02 61.96 62.00 61.47 60.89 60.83 61.74 61.54 61.07 59.58 59.41 59.62 59.09 57.96 57.04 57.37 55.39 55.52 55.89 55.71 53.55 53.96
44.54 45.88 47.94 48.51 49.07 48.86 52.50 50.35 51.35 53.39 56.56 57.47 58.61 57.50 57.21 54.99 54.13 55.19 55.25 55.73 55.43 54.38 55.28 56.74 58.03 58.41 59.10 59.32 60.46 60.82 60.87 60.96 61.73 61.43 61.39 61.10 59.54 58.49 58.91 59.13 58.30 58.09 57.56 55.00 56.21 55.24 54.76 53.34 52.45
47.86 47.32 47.48 48.41 48.74 50.78 50.57 49.59 50.51 53.40 57.10 56.34 56.30 54.99 55.18 54.19 53.77 53.82 53.69 54.17 54.47 54.14 54.45 55.45 55.94 56.61 57.32 57.37 57.93 57.76 58.20 58.54 60.51 60.51 60.67 61.47 61.43 59.75 59.43 59.60 58.59 57.68 58.19 57.72 55.96 55.47 54.24 53.12 51.29
49.68 44.48 45.92 47.02 50.67 50.66 51.31 47.84 48.17 51.93 52.84 55.33 55.08 53.00 54.20 54.27 53.45 53.40 53.42 53.27 53.81 54.30 54.68 54.69 54.97 55.70 55.21 55.64 56.83 56.80 57.10 57.05 54.59 56.32 58.89 60.16 60.90 61.04 60.67 60.67 59.79 59.07 57.73 57.68 56.03 54.86 52.63 50.37 50.35
44.72 43.88 38.40 45.68 49.93 50.05 47.66 41.02 49.72 50.94 51.22 51.77 51.15 52.74 53.77 53.57 53.32 52.92 53.65 53.62 53.73 53.91 53.93 54.91 56.13 55.50 55.31 55.07 55.99 56.58 56.68 56.42 55.06 54.53 59.55 60.05 60.85 61.65 61.00 59.40 58.72 59.21 56.98 55.86 54.56 52.57 51.25 50.02 48.54
41.27 36.94 39.22 44.60 50.08 49.38 46.34 42.61 49.57 51.54 52.10 49.61 49.76 51.69 53.09 52.99 51.87 52.66 53.09 52.90 53.35 53.46 54.94 54.22 54.81 55.00 54.52 55.07 55.37 54.92 55.00 55.34 55.59 54.70 56.21 60.82 60.53 62.53 60.50 60.10 59.51 57.83 56.71 55.89 55.39 53.24 51.26 48.28 47.04
37.64 38.54 38.36 41.51 46.26 47.54 44.84 44.00 48.45 50.56 51.12 49.07 49.79 52.79 53.31 52.84 51.69 52.11 52.34 52.84 52.98 53.36 54.65 54.24 54.32 54.61 54.00 53.99 53.77 54.09 54.00 54.75 54.36 56.47 57.70 61.39 61.23 61.52 61.26 60.39 59.44 57.58 56.48 55.54 53.67 51.65 49.35 48.12 47.34
43.69 41.81 40.56 43.61 48.25 46.87 46.78 45.31 45.86 47.90 48.27 49.00 50.06 50.43 53.57 53.71 54.06 52.84 52.89 52.78 52.45 52.61 53.19 52.92 52.51 53.20 52.72 52.86 51.66 51.88 52.61 54.69 57.28 57.94 61.30 58.98 58.83 61.50 61.04 59.97 58.20 57.18 56.15 54.43 53.00 50.63 47.96 46.03 47.19
44.67 41.44 39.71 45.12 49.70 46.17 43.84 45.53 46.56 47.41 48.99 49.05 47.74 50.53 50.67 53.20 53.86 53.00 52.24 52.55 52.04 52.27 52.75 52.53 52.09 52.38 52.87 54.02 54.29 54.69 55.33 57.62 58.13 60.29 60.30 60.35 60.37 60.99 60.49 58.89 57.38 56.56 55.91 53.86 52.19 49.75 47.51 46.78 47.46
43.44 40.55 40.52 41.87 45.35 46.46 42.70 39.81 45.10 49.63 51.87 51.89 49.01 49.97 51.60 52.74 53.59 53.84 52.35 52.04 52.95 51.79 52.32 52.50 52.81 53.06 53.34 54.72 56.90 57.34 56.41 54.80 56.03 58.07 59.53 60.40 61.93 61.54 60.78 59.36 58.03 57.14 55.63 53.44 51.30 50.72 48.69 45.79 47.04
39.20 44.49 45.10 44.41 41.17 36.08 41.94 34.94 45.32 48.84 49.63 51.06 50.45 49.07 50.13 52.69 54.74 54.59 53.65 53.93 54.23 53.82 53.63 54.14 54.03 54.30 55.05 57.79 58.12 56.39 55.82 54.71 55.57 57.07 60.05 60.91 61.50 60.98 60.30 59.09 57.76 57.68 57.37 54.08 52.47 52.65 50.91 50.64 48.68
42.91 46.95 45.32 44.93 40.80 37.72 39.47 38.53 41.44 49.69 46.96 49.22 51.00 51.56 51.57 52.81 54.54 54.25 54.23 55.32 55.50 55.15 54.75 55.60 56.44 56.28 57.97 58.74 58.95 58.17 55.86 55.96 56.41 57.26 58.96 59.60 59.80 59.71 59.41 58.31 56.99 56.04 55.19 54.03 53.44 52.47 51.76 51.15 49.34
47.08 46.34 45.05 43.57 39.83 31.20 38.57 36.85 37.12 44.53 46.71 50.00 52.02 52.93 52.81 53.39 54.99 54.89 56.10 56.44 55.86 55.36 55.13 55.50 56.19 57.34 58.71 59.16 59.38 59.21 56.97 55.98 57.12 57.47 58.38 57.61 58.72 57.36 58.78 57.44 55.73 55.22 54.95 53.93 53.45 51.93 51.08 50.29 49.89
44.52 40.75 33.04 30.49 29.34 28.85 42.68 39.21 39.89 45.01 47.85 51.27 51.09 52.91 53.73 53.91 54.90 55.02 54.66 54.94 55.51 55.92 55.39 55.72 56.11 56.41 57.86 58.20 59.31 59.34 58.86 58.01 58.19 58.46 57.75 57.40 56.72 56.40 56.34 56.51 55.17 55.37 54.11 53.48 51.61 51.06 50.88 49.95 47.76
42.16 40.54 32.22 26.14 27.05 33.22 41.86 37.15 40.14 48.67 48.60 49.35 50.26 54.56 54.66 54.25 54.84 55.35 55.99 55.89 55.57 56.18 57.08 57.08 56.94 56.85 58.06 59.12 58.96 60.01 60.17 59.72 58.61 58.87 58.50 58.48 57.96 57.58 56.70 55.56 55.01 55.11 54.38 52.24 50.59 51.44 50.22 49.76 48.63
43.37 38.96 43.29 37.84 38.59 32.68 37.58 41.56 45.35 48.74 46.80 46.53 47.06 48.19 51.03 53.91 54.12 55.03 56.62 57.02 57.08 56.78 57.09 57.97 58.38 58.68 59.49 59.54 60.38 60.36 60.71 59.67 58.89 58.21 57.81 58.09 56.94 55.79 55.17 54.93 52.85 52.04 52.16 50.76 50.17 50.05 49.69 48.19 46.89
44.71 46.73 38.32 39.23 29.96 28.32 36.74 37.51 39.80 44.14 46.65 46.27 45.77 46.19 47.23 50.26 54.39 54.91 55.48 57.35 58.22 58.74 58.79 58.46 59.29 59.19 59.75 60.11 60.68 60.69 61.06 59.22 58.74 58.19 57.14 56.16 55.43 53.80 53.54 52.44 51.62 50.06 50.30 49.84 49.21 48.18 48.13 46.87 45.98
42.05 40.57 41.54 42.72 39.83 30.62 27.71 34.59 43.60 45.12 46.40 46.51 46.05 48.34 49.30 50.07 51.21 52.76 54.89 56.81 57.01 59.72 60.08 59.51 59.44 59.77 60.00 60.01 60.61 61.01 60.42 59.44 58.11 57.94 57.14 56.92 53.20 52.10 51.80 51.17 49.56 49.63 48.94 48.69 47.85 47.76 46.56 45.21 44.43
45.32 42.17 41.74 34.56 35.00 36.14 31.88 33.81 46.24 46.23 46.69 47.65 48.49 48.26 48.24 49.74 51.53 52.56 54.09 54.83 54.95 57.76 59.33 59.91 60.52 60.38 60.38 60.44 60.82 61.32 60.14 59.09 58.47 58.29 58.12 57.28 54.17 52.71 51.64 50.95 50.17 49.33 48.66 47.63 47.20 45.99 45.46 44.98 43.46

GFSSGP_sfc_wetblb_048.txt.gz
Wetbulb
56.88 54.88 55.17 50.90 39.35 34.80 31.65 36.78 41.89 42.11 43.87 52.75 53.93 54.33 52.93 55.21 54.67 51.98 62.08 62.52 63.42 67.66 70.01 68.78 70.15 71.09 71.59 71.41 70.96 70.68 70.64 70.62 71.22 71.22 71.46 71.63 71.06 70.23 69.74 69.33 68.76 68.16 68.51 68.05 67.86 67.64 67.38 67.30 67.09
54.80 54.71 51.24 44.73 33.91 28.63 32.02 39.12 41.16 44.66 52.62 55.36 55.68 55.90 54.23 51.77 57.14 61.93 61.12 62.37 62.83 63.71 68.02 69.53 69.70 69.63 71.27 70.82 70.59 70.36 70.45 70.50 71.02 70.90 71.15 71.43 71.03 69.84 69.60 69.01 68.23 68.12 68.19 67.66 67.59 67.54 66.62 65.97 66.41
55.32 53.61 44.35 39.01 31.50 29.70 32.58 39.09 44.49 50.95 53.71 53.25 54.83 58.16 56.17 53.66 58.59 60.31 62.34 63.35 63.27 63.04 65.00 66.31 65.49 67.82 70.29 70.61 70.36 69.87 69.39 69.87 70.42 70.46 71.08 71.29 70.79 70.06 69.62 68.72 68.23 68.24 68.13 67.22 67.42 66.38 65.19 65.29 65.89
52.16 47.78 44.59 36.13 33.53 37.48 40.02 43.04 48.19 49.27 52.52 54.09 55.80 52.19 57.13 59.88 60.26 64.72 63.99 65.87 67.00 65.12 64.31 65.47 65.76 67.85 70.26 70.53 70.06 69.34 69.05 69.18 69.48 69.87 70.56 71.07 70.79 69.99 69.40 68.50 68.25 68.34 67.61 66.13 65.54 64.72 64.83 65.11 65.80
50.17 43.07 35.57 32.76 36.14 39.97 45.23 47.44 48.81 50.89 51.46 52.04 52.11 48.34 53.83 58.58 63.69 64.61 65.37 66.36 66.25 65.45 65.68 65.27 66.79 67.44 69.20 70.19 69.66 68.98 69.05 69.18 69.35 69.83 70.11 70.36 70.60 69.81 69.24 68.49 67.92 67.60 67.03 65.49 64.58 64.30 65.37 64.90 65.57
43.95 41.63 33.53 31.44 36.54 42.59 46.75 48.98 50.62 52.51 53.26 52.53 51.60 50.54 52.06 61.45 61.06 62.36 64.75 65.33 65.37 64.97 66.83 67.95 68.38 68.36 68.61 68.93 68.55 68.50 68.76 69.01 69.47 69.66 69.83 70.19 69.89 69.36 68.84 68.33 67.80 67.45 66.97 66.17 65.29 64.95 64.65 64.54 64.48
41.07 37.93 33.48 34.83 38.87 39.82 46.57 50.24 50.73 51.11 50.53 50.81 54.25 50.90 53.72 59.48 61.50 62.83 64.40 64.81 66.04 66.67 66.71 67.03 66.12 67.51 65.54 64.93 65.87 67.90 68.42 68.75 69.06 69.24 69.49 69.46 69.16 68.83 68.48 68.13 67.69 67.13 66.44 65.55 64.90 64.40 63.87 63.97 63.35
43.09 39.91 34.58 36.60 37.10 38.28 48.00 51.94 51.79 51.44 49.18 56.96 58.70 53.73 51.58 59.00 62.03 62.94 64.39 64.34 64.86 64.16 65.40 64.25 65.35 66.06 63.76 61.89 63.44 66.34 67.75 67.64 67.61 67.85 67.70 67.76 68.18 68.37 67.89 67.23 66.93 66.62 65.87 65.12 64.27 63.74 63.47 63.06 62.39
44.00 36.42 33.50 36.60 38.97 42.73 50.58 48.72 51.00 54.37 54.49 55.79 57.52 57.16 59.43 61.45 62.23 61.53 61.59 62.03 63.10 62.65 62.84 63.57 64.07 63.54 63.31 62.80 63.66 65.00 67.05 66.92 66.49 66.27 65.69 64.83 65.34 65.58 64.70 65.72 65.98 65.73 64.75 64.35 63.42 62.96 61.77 60.00 61.14
41.12 34.72 38.06 42.50 43.83 46.76 50.04 47.70 49.73 48.53 50.89 53.28 54.94 58.87 60.43 60.19 60.08 59.13 59.18 58.77 60.21 60.73 60.87 62.28 61.55 61.48 61.09 61.67 61.43 64.48 65.57 64.24 63.42 61.62 60.55 61.97 62.68 63.60 64.29 64.70 64.85 64.44 64.00 63.36 62.57 61.73 60.58 57.88 52.24
40.20 38.62 43.88 45.01 47.24 47.53 48.35 48.53 52.47 49.73 50.99 53.21 50.99 55.44 57.59 57.94 58.16 58.15 58.03 57.23 58.96 60.50 60.98 61.04 61.63 60.90 59.94 59.38 60.42 63.35 63.22 61.93 60.60 59.90 61.13 61.78 62.23 61.78 61.76 61.65 61.68 61.61 62.35 60.22 59.24 56.68 55.84 55.39 52.62
39.22 44.59 45.29 45.17 47.82 48.58 48.84 51.27 52.54 52.26 53.63 56.54 55.71 57.99 57.69 56.59 56.83 57.07 56.47 56.53 56.81 58.18 60.80 60.88 60.98 61.19 60.24 59.12 59.73 63.13 61.94 60.67 60.61 60.30 61.07 59.82 58.96 58.92 58.95 58.28 58.56 57.82 57.03 55.63 54.88 54.83 54.32 52.79 51.98
43.32 44.72 46.57 47.12 48.96 50.90 53.42 51.81 52.50 53.22 56.15 57.18 57.11 57.76 56.01 54.98 55.00 55.68 56.27 56.13 55.91 55.71 59.24 60.48 60.76 61.26 61.48 59.97 61.81 61.67 60.76 60.64 61.14 60.70 59.84 59.18 58.13 57.38 57.04 55.93 56.05 56.15 55.27 53.87 55.30 54.25 52.73 51.31 49.76
46.78 46.95 45.89 46.79 46.46 51.12 49.21 49.66 49.91 53.70 55.74 55.37 54.76 54.04 53.91 54.23 54.21 54.14 54.64 54.34 54.22 54.78 55.85 57.87 59.74 60.81 60.40 59.94 60.03 60.26 60.21 61.30 61.24 60.78 60.09 58.85 57.98 57.80 57.45 56.35 56.18 56.38 55.83 54.81 55.14 53.72 52.08 50.75 48.53
47.69 43.07 44.65 45.39 44.99 48.30 49.38 44.33 46.91 54.66 55.44 54.41 54.31 54.68 53.67 54.02 54.10 53.50 54.26 54.17 54.23 54.50 55.29 55.73 56.61 57.08 57.83 57.82 57.65 57.61 58.22 56.88 59.86 59.88 60.23 59.35 59.11 58.29 58.57 57.94 56.93 56.44 57.03 56.17 54.33 53.92 52.42 50.89 49.01
42.93 41.73 37.14 43.89 45.18 48.68 46.07 40.00 47.22 53.20 51.77 52.51 51.14 52.59 53.05 52.92 52.30 53.96 54.31 54.12 54.26 54.41 55.02 56.37 56.72 55.89 56.58 56.64 56.88 56.54 56.21 55.56 54.41 55.72 58.17 58.79 59.85 60.60 59.10 58.44 57.91 58.09 56.70 56.21 54.56 52.85 49.84 48.51 46.57
38.73 34.79 37.55 40.82 46.23 48.06 44.59 40.84 47.29 49.38 51.64 49.96 50.66 51.46 52.23 51.52 51.74 51.91 54.18 53.94 54.04 54.33 54.73 55.37 55.81 55.32 55.75 55.94 55.63 55.37 54.98 55.06 54.84 54.22 55.09 59.50 59.70 60.94 60.08 58.87 58.35 57.41 56.25 54.84 54.09 51.77 50.73 47.90 46.18
34.81 35.93 34.94 37.89 44.49 46.90 43.05 42.53 46.76 48.04 49.83 48.81 48.19 51.02 51.78 51.92 50.39 51.90 53.11 53.40 53.62 54.31 54.50 55.31 55.56 54.80 55.18 55.03 54.62 53.93 54.30 54.75 54.69 54.42 55.03 56.64 58.47 59.71 59.57 59.05 58.66 56.70 55.21 54.26 53.05 51.59 49.56 47.47 46.16
41.03 39.20 38.00 40.72 46.22 46.01 44.22 43.43 44.82 47.24 48.40 47.08 47.56 50.21 51.71 51.67 51.16 51.69 52.18 52.22 51.57 52.98 53.87 54.23 54.33 53.74 54.19 53.76 52.85 52.70 52.77 54.15 54.47 54.03 55.39 57.05 58.72 60.52 59.41 58.86 58.31 56.39 55.25 54.93 53.44 49.84 47.30 45.40 46.31
41.03 39.23 39.34 41.49 46.34 45.89 43.08 44.03 44.12 45.69 47.32 47.57 48.28 50.39 51.96 51.87 50.26 51.00 51.15 50.88 51.62 51.86 52.87 52.54 52.72 52.39 53.29 53.47 53.40 53.70 53.14 53.51 53.74 54.24 55.51 58.05 57.68 58.46 60.33 59.25 58.11 56.27 54.92 53.35 51.87 49.52 46.37 45.75 46.15
41.08 39.48 39.68 39.38 43.44 42.88 41.12 39.13 43.50 46.96 48.33 49.71 50.03 51.07 53.12 52.00 50.27 50.23 50.64 50.62 50.69 51.23 51.77 52.08 52.24 51.74 51.94 52.60 51.92 51.88 51.59 52.38 52.61 54.00 55.54 57.92 58.00 57.92 59.69 59.42 58.05 56.36 55.61 54.21 53.08 49.48 48.36 47.49 48.37
38.05 44.62 42.83 42.47 39.18 34.05 39.86 31.28 41.04 44.84 46.17 49.23 48.45 49.73 50.83 53.14 52.34 51.04 50.82 50.48 50.25 51.29 52.39 52.25 52.09 51.96 52.42 53.17 52.00 51.61 51.55 51.02 53.45 54.30 56.48 57.88 58.88 59.50 59.88 59.52 57.98 56.81 56.07 54.15 53.61 51.54 48.94 48.35 47.64
41.70 45.49 43.63 42.78 38.67 35.93 37.49 33.76 37.71 44.83 45.05 47.60 47.59 48.12 50.01 53.10 53.13 51.32 50.70 51.18 51.65 51.54 51.38 52.15 52.32 52.21 52.81 53.12 53.56 53.62 54.42 55.90 54.52 54.27 55.55 58.09 58.45 59.16 59.44 58.90 57.22 56.71 57.68 55.26 52.32 50.63 50.45 50.58 50.07
46.87 44.13 43.06 41.43 38.13 30.66 36.47 35.08 34.17 42.06 46.16 49.08 50.73 48.51 48.83 51.08 53.80 53.75 52.22 52.41 52.11 52.09 51.42 51.47 51.70 52.15 52.85 53.03 53.88 55.30 55.75 55.11 53.49 54.17 55.51 56.76 58.78 59.14 58.83 58.34 58.08 57.52 57.20 55.18 52.66 51.82 50.66 50.96 48.88
43.11 38.85 31.76 30.17 29.19 28.53 40.03 37.11 38.18 42.94 49.50 50.63 50.92 51.43 50.38 50.35 52.58 54.11 52.39 52.50 52.73 52.58 51.59 52.00 52.24 52.16 53.39 53.82 54.67 56.10 56.97 55.90 54.22 54.92 55.62 56.32 57.31 56.83 58.05 57.97 57.27 56.17 55.30 53.60 53.20 52.30 50.44 50.08 49.44
40.45 38.94 31.20 25.39 26.63 31.07 39.25 33.83 38.94 46.22 47.66 49.18 52.67 53.35 53.20 51.65 52.42 53.50 53.82 53.70 54.46 53.74 53.43 52.55 53.06 53.92 54.21 54.97 55.92 56.95 57.26 58.28 57.00 56.46 57.00 57.35 57.56 57.26 58.43 57.72 56.18 54.94 55.10 53.15 51.68 51.54 50.91 49.69 49.29
40.45 36.39 41.52 35.75 36.41 30.92 34.36 39.15 43.80 45.96 45.49 45.37 48.05 49.84 51.66 52.35 52.57 53.84 54.33 54.61 54.88 54.52 53.74 53.20 53.37 54.60 55.14 55.65 56.76 57.28 58.30 58.45 58.43 57.99 57.33 57.87 57.56 56.11 55.15 56.09 54.55 53.82 53.97 52.09 50.00 50.42 50.15 49.63 48.57
43.11 44.36 36.47 36.37 28.85 26.32 33.28 35.42 36.44 43.16 43.38 45.55 44.70 47.52 50.82 52.63 52.55 54.38 54.81 54.67 55.53 55.82 55.73 54.69 54.49 54.35 55.42 56.41 57.06 57.37 57.58 58.35 58.73 57.70 57.38 57.60 57.01 55.66 54.58 54.22 53.99 52.46 51.38 51.53 49.79 49.51 49.57 48.61 47.26
39.91 38.86 40.25 40.14 35.97 28.69 27.30 31.96 41.64 44.18 45.90 45.03 45.37 45.87 47.55 51.00 52.72 53.53 55.03 55.93 55.93 56.05 56.31 56.21 56.13 56.31 56.35 57.40 57.88 58.19 58.92 58.98 59.08 58.56 58.20 57.82 56.31 55.12 54.78 54.01 52.12 51.22 50.93 50.49 49.44 48.43 48.09 46.88 45.00
42.98 40.76 40.51 34.42 33.35 34.03 30.40 34.04 44.97 45.09 45.34 46.06 46.55 46.84 46.51 48.86 50.75 53.67 53.82 55.86 56.03 56.07 56.25 56.32 57.12 57.15 57.69 58.27 58.92 58.97 59.66 58.26 58.29 58.18 58.36 57.52 56.35 54.76 54.44 52.77 51.18 50.99 49.80 49.33 48.26 47.39 47.19 45.38 43.47